[[{"header":{"parameterUnit":"m.s-1","parameterCategory":1,"la1":30.6,"la2":29.2853,"lo1":-89.7004,"lo2":-87.6739,"dy":0.0162,"dx":0.0183,"nx":112,"ny":82,"refTime":"2026-02-20T12:00:00:Z","depth":0,"parameterNumber":2,"parameterNumberName":"U-component_of_WINDS"},"data":[0.0,0.0,0.0,0.0,0.0,0.0,0.0,0.0,0.0,0.0,0.0,0.0,0.0,0.0,0.0,0.0,0.0,0.0,0.0,0.0,0.0,0.0,0.0,0.0,0.0,0.0,0.0,0.0,0.0,0.0,0.0,0.0,0.0,0.0,0.0,0.0,0.0,0.0,0.0,0.0,0.0,0.0,0.0,0.0,0.0,0.0,0.0,0.0,0.0,0.0,0.0,0.0,0.0,0.0,0.0,0.0,0.0,0.0,0.0,0.0,0.0,0.0,0.0,0.0,0.0,0.0,0.0,0.0,0.0,0.0,0.0,0.0,0.0,0.0,0.0,0.0,0.0,0.0,0.0,0.0,0.0,0.0,0.0,0.0,0.0,0.0,0.0,0.0,0.0,0.0,-2.5455,-2.81,-3.203,-3.4759,-3.5538,-3.538,-3.3098,-2.8017,0.0,0.0,0.0,0.0,0.0,0.0,0.0,0.0,0.0,0.0,0.0,0.0,0.0,0.0,0.0,0.0,0.0,0.0,0.0,0.0,0.0,0.0,0.0,0.0,0.0,0.0,0.0,0.0,0.0,0.0,0.0,0.0,0.0,0.0,0.0,0.0,0.0,0.0,0.0,0.0,0.0,0.0,0.0,0.0,0.0,0.0,0.0,0.0,0.0,0.0,0.0,0.0,0.0,0.0,0.0,0.0,0.0,0.0,0.0,0.0,0.0,0.0,0.0,0.0,0.0,0.0,0.0,0.0,0.0,0.0,0.0,0.0,0.0,0.0,0.0,0.0,0.0,0.0,0.0,0.0,0.0,0.0,0.0,0.0,0.0,0.0,0.0,0.0,0.0,0.0,0.0,0.0,0.0,0.0,0.0,0.0,0.0,0.0,0.0,0.0,0.0,0.0,0.0,0.0,-2.5825,-3.1269,-3.2985,-3.4252,-3.5492,-3.4433,-3.201,-2.7969,0.0,0.0,0.0,0.0,0.0,0.0,0.0,0.0,0.0,0.0,0.0,0.0,0.0,0.0,0.0,0.0,0.0,0.0,0.0,0.0,0.0,0.0,0.0,0.0,0.0,0.0,0.0,0.0,0.0,0.0,0.0,0.0,0.0,0.0,0.0,0.0,0.0,0.0,0.0,0.0,0.0,0.0,0.0,0.0,0.0,0.0,0.0,0.0,0.0,0.0,0.0,0.0,0.0,0.0,0.0,0.0,0.0,0.0,0.0,0.0,0.0,0.0,0.0,0.0,0.0,0.0,0.0,0.0,0.0,0.0,0.0,0.0,0.0,0.0,0.0,0.0,0.0,0.0,0.0,0.0,0.0,0.0,0.0,0.0,0.0,0.0,0.0,0.0,0.0,0.0,0.0,0.0,0.0,0.0,0.0,0.0,0.0,0.0,0.0,0.0,0.0,0.0,0.0,-2.4194,-2.7116,-3.2052,-3.3191,-3.4137,-3.5492,-3.4247,-3.1775,-2.7936,-2.6927,0.0,0.0,0.0,0.0,0.0,0.0,0.0,0.0,0.0,0.0,0.0,0.0,0.0,0.0,0.0,0.0,0.0,0.0,0.0,0.0,0.0,0.0,0.0,0.0,0.0,0.0,0.0,0.0,0.0,0.0,0.0,0.0,0.0,0.0,0.0,0.0,0.0,0.0,0.0,0.0,0.0,0.0,0.0,0.0,0.0,0.0,0.0,0.0,0.0,0.0,0.0,0.0,0.0,0.0,0.0,0.0,0.0,0.0,0.0,0.0,0.0,0.0,0.0,0.0,0.0,0.0,0.0,0.0,0.0,0.0,0.0,0.0,0.0,0.0,0.0,0.0,0.0,0.0,0.0,0.0,0.0,0.0,0.0,0.0,0.0,0.0,0.0,0.0,0.0,0.0,0.0,0.0,0.0,0.0,0.0,0.0,0.0,0.0,0.0,0.0,0.0,0.0,-2.6782,-2.8543,-3.2435,-3.3287,-3.4137,-3.5492,-3.3931,-3.1407,-2.792,-2.5772,0.0,0.0,0.0,0.0,0.0,0.0,0.0,0.0,0.0,0.0,0.0,0.0,0.0,0.0,0.0,0.0,0.0,0.0,0.0,0.0,0.0,0.0,0.0,0.0,0.0,0.0,0.0,0.0,0.0,0.0,0.0,0.0,0.0,0.0,0.0,0.0,0.0,0.0,0.0,0.0,0.0,0.0,0.0,0.0,0.0,0.0,0.0,0.0,0.0,0.0,0.0,0.0,0.0,0.0,0.0,0.0,0.0,0.0,0.0,0.0,0.0,0.0,0.0,0.0,0.0,0.0,0.0,0.0,0.0,0.0,0.0,0.0,0.0,0.0,0.0,0.0,0.0,0.0,0.0,0.0,0.0,0.0,0.0,0.0,0.0,0.0,0.0,0.0,0.0,0.0,0.0,0.0,0.0,0.0,0.0,0.0,0.0,0.0,0.0,0.0,0.0,0.0,-2.7305,-2.9754,-3.3166,-3.355,-3.4137,-3.5492,-3.3,-3.0299,-2.7855,-2.438,0.0,0.0,0.0,0.0,0.0,0.0,0.0,0.0,0.0,0.0,0.0,0.0,0.0,0.0,0.0,0.0,0.0,0.0,0.0,0.0,0.0,0.0,0.0,0.0,0.0,0.0,0.0,0.0,0.0,0.0,0.0,0.0,0.0,0.0,0.0,0.0,0.0,0.0,0.0,0.0,0.0,0.0,0.0,0.0,0.0,0.0,0.0,0.0,0.0,0.0,0.0,0.0,0.0,0.0,0.0,0.0,0.0,0.0,0.0,0.0,0.0,0.0,0.0,0.0,0.0,0.0,0.0,0.0,0.0,0.0,0.0,0.0,0.0,0.0,0.0,0.0,0.0,0.0,0.0,0.0,0.0,0.0,0.0,0.0,0.0,0.0,0.0,0.0,0.0,0.0,0.0,0.0,0.0,0.0,0.0,0.0,0.0,0.0,0.0,0.0,0.0,0.0,-2.6788,-2.9264,-3.2613,-3.3365,-3.3962,-3.4894,-3.3134,-3.0782,-2.7883,0.0,0.0,0.0,0.0,0.0,0.0,0.0,0.0,0.0,0.0,0.0,0.0,0.0,0.0,0.0,0.0,0.0,0.0,0.0,0.0,0.0,0.0,0.0,0.0,0.0,0.0,0.0,0.0,0.0,0.0,0.0,0.0,0.0,0.0,0.0,0.0,0.0,0.0,0.0,0.0,0.0,0.0,0.0,0.0,0.0,0.0,0.0,0.0,0.0,0.0,0.0,0.0,0.0,0.0,0.0,0.0,0.0,0.0,0.0,0.0,0.0,0.0,0.0,0.0,0.0,0.0,0.0,0.0,0.0,0.0,0.0,0.0,0.0,0.0,0.0,0.0,0.0,0.0,0.0,0.0,0.0,0.0,0.0,0.0,0.0,0.0,0.0,0.0,0.0,0.0,0.0,0.0,0.0,0.0,0.0,0.0,0.0,0.0,0.0,0.0,0.0,0.0,-2.4293,-2.6796,-2.9357,-3.23,-3.2824,-3.3237,-3.3917,-3.206,-2.9767,-2.7238,0.0,0.0,0.0,0.0,0.0,0.0,0.0,0.0,0.0,0.0,0.0,0.0,0.0,0.0,0.0,0.0,0.0,0.0,0.0,0.0,0.0,0.0,0.0,0.0,0.0,0.0,0.0,0.0,0.0,0.0,0.0,0.0,0.0,0.0,0.0,0.0,0.0,0.0,0.0,0.0,0.0,0.0,0.0,0.0,0.0,0.0,0.0,0.0,0.0,0.0,0.0,0.0,0.0,0.0,0.0,0.0,0.0,0.0,0.0,0.0,0.0,0.0,0.0,0.0,0.0,0.0,0.0,0.0,0.0,0.0,0.0,0.0,0.0,0.0,0.0,0.0,0.0,0.0,0.0,0.0,0.0,0.0,0.0,0.0,0.0,0.0,0.0,0.0,0.0,0.0,0.0,0.0,0.0,0.0,0.0,0.0,0.0,0.0,0.0,0.0,0.0,0.0,-2.4394,-2.7595,-3.0359,-3.235,-3.1982,-3.1862,-3.2526,-2.9349,-2.6856,0.0,0.0,0.0,0.0,0.0,0.0,0.0,0.0,0.0,0.0,0.0,0.0,0.0,0.0,0.0,0.0,0.0,0.0,0.0,0.0,0.0,0.0,0.0,0.0,0.0,0.0,0.0,0.0,0.0,0.0,0.0,0.0,0.0,0.0,0.0,0.0,0.0,0.0,0.0,0.0,0.0,0.0,0.0,0.0,0.0,0.0,0.0,0.0,0.0,0.0,0.0,0.0,0.0,0.0,0.0,0.0,0.0,0.0,0.0,0.0,0.0,0.0,0.0,0.0,0.0,0.0,0.0,0.0,0.0,0.0,0.0,0.0,0.0,0.0,0.0,0.0,0.0,0.0,0.0,0.0,0.0,0.0,0.0,0.0,0.0,0.0,0.0,0.0,0.0,0.0,0.0,0.0,0.0,0.0,0.0,0.0,0.0,0.0,0.0,0.0,0.0,0.0,0.0,-2.3249,-2.7093,-2.9838,-3.0416,-3.1159,-3.1493,-3.1193,-2.9367,-2.7494,-2.5806,0.0,0.0,0.0,0.0,0.0,0.0,0.0,0.0,0.0,0.0,0.0,0.0,0.0,0.0,0.0,0.0,0.0,0.0,0.0,0.0,0.0,0.0,0.0,0.0,0.0,0.0,0.0,0.0,0.0,0.0,0.0,0.0,0.0,0.0,0.0,0.0,0.0,0.0,0.0,0.0,0.0,0.0,0.0,0.0,0.0,0.0,0.0,0.0,0.0,0.0,0.0,0.0,0.0,0.0,0.0,0.0,0.0,0.0,0.0,0.0,0.0,0.0,0.0,0.0,0.0,0.0,0.0,0.0,0.0,0.0,0.0,0.0,0.0,0.0,0.0,0.0,0.0,0.0,0.0,0.0,0.0,0.0,0.0,0.0,0.0,0.0,0.0,0.0,0.0,0.0,0.0,0.0,0.0,0.0,0.0,0.0,0.0,0.0,0.0,0.0,0.0,0.0,-2.2792,-2.6638,-2.928,-2.9577,-3.0073,-3.0256,-2.9827,-2.8321,-2.6681,-2.4979,0.0,0.0,0.0,0.0,0.0,0.0,0.0,0.0,0.0,0.0,0.0,0.0,0.0,0.0,0.0,0.0,0.0,0.0,0.0,0.0,0.0,0.0,0.0,0.0,0.0,0.0,0.0,0.0,0.0,0.0,0.0,0.0,0.0,0.0,0.0,0.0,0.0,0.0,0.0,0.0,0.0,0.0,0.0,0.0,0.0,0.0,0.0,0.0,0.0,0.0,0.0,0.0,0.0,0.0,0.0,0.0,0.0,0.0,0.0,0.0,0.0,0.0,0.0,0.0,0.0,0.0,0.0,0.0,0.0,0.0,0.0,0.0,0.0,0.0,0.0,0.0,0.0,0.0,0.0,0.0,0.0,0.0,0.0,0.0,0.0,0.0,0.0,0.0,0.0,0.0,0.0,0.0,0.0,0.0,0.0,0.0,0.0,0.0,0.0,0.0,0.0,0.0,-2.2708,-2.6232,-2.8801,-2.9367,-2.8921,-2.8577,-2.8502,-2.6782,-2.5121,-2.3789,0.0,0.0,0.0,0.0,0.0,0.0,0.0,0.0,0.0,0.0,0.0,0.0,0.0,0.0,0.0,0.0,0.0,0.0,0.0,0.0,0.0,0.0,0.0,0.0,0.0,0.0,0.0,0.0,0.0,0.0,0.0,0.0,0.0,0.0,0.0,0.0,0.0,0.0,0.0,0.0,0.0,0.0,0.0,0.0,0.0,0.0,0.0,0.0,0.0,0.0,0.0,0.0,0.0,0.0,0.0,0.0,0.0,0.0,0.0,0.0,-2.5426,0.0,0.0,0.0,0.0,0.0,0.0,0.0,0.0,0.0,0.0,0.0,0.0,0.0,0.0,0.0,0.0,0.0,0.0,0.0,0.0,0.0,0.0,0.0,0.0,0.0,0.0,0.0,0.0,0.0,0.0,0.0,0.0,0.0,0.0,0.0,0.0,0.0,0.0,0.0,0.0,0.0,-2.2133,-2.5994,-2.8442,-2.8064,-2.8368,-2.8382,-2.7869,-2.6956,-2.5809,-2.447,-2.1911,0.0,0.0,0.0,0.0,0.0,0.0,0.0,0.0,0.0,0.0,0.0,0.0,0.0,0.0,0.0,0.0,0.0,0.0,0.0,0.0,0.0,0.0,0.0,0.0,0.0,0.0,0.0,0.0,0.0,0.0,0.0,0.0,0.0,0.0,0.0,0.0,0.0,0.0,0.0,0.0,0.0,0.0,0.0,0.0,0.0,0.0,0.0,0.0,0.0,0.0,0.0,0.0,0.0,0.0,0.0,0.0,0.0,0.0,0.0,0.0,-2.7243,0.0,0.0,0.0,0.0,0.0,0.0,0.0,0.0,0.0,0.0,0.0,0.0,0.0,0.0,0.0,0.0,0.0,0.0,0.0,0.0,0.0,0.0,0.0,0.0,0.0,0.0,0.0,0.0,0.0,0.0,0.0,0.0,0.0,0.0,0.0,0.0,0.0,0.0,0.0,0.0,-2.2338,-2.5776,-2.8004,-2.763,-2.7914,-2.7989,-2.763,-2.7001,-2.6033,-2.4694,-2.2628,0.0,0.0,0.0,0.0,0.0,0.0,0.0,0.0,0.0,0.0,0.0,0.0,0.0,0.0,0.0,0.0,0.0,0.0,0.0,0.0,0.0,0.0,0.0,0.0,0.0,0.0,0.0,0.0,0.0,0.0,0.0,0.0,0.0,0.0,0.0,0.0,0.0,0.0,0.0,0.0,0.0,0.0,0.0,0.0,0.0,0.0,0.0,0.0,0.0,0.0,0.0,0.0,0.0,-3.1952,-3.2277,-3.1845,-3.3267,-3.4372,-3.5052,-3.2764,-3.1697,-3.1362,-2.8772,0.0,0.0,0.0,0.0,0.0,0.0,0.0,0.0,0.0,0.0,0.0,0.0,0.0,0.0,0.0,0.0,0.0,0.0,0.0,0.0,0.0,0.0,0.0,0.0,-2.7136,-2.668,-2.3302,0.0,0.0,0.0,0.0,0.0,0.0,0.0,0.0,0.0,0.0,0.0,-2.3084,-2.5903,-2.7779,-2.7779,-2.7779,-2.772,-2.76,-2.7091,-2.6243,-2.5023,-2.3482,-2.1574,0.0,0.0,0.0,0.0,0.0,0.0,0.0,0.0,0.0,0.0,0.0,0.0,0.0,0.0,0.0,0.0,0.0,0.0,0.0,0.0,0.0,0.0,0.0,0.0,0.0,0.0,0.0,0.0,0.0,0.0,0.0,0.0,-2.2163,-2.301,0.0,0.0,0.0,0.0,0.0,0.0,0.0,0.0,0.0,0.0,0.0,0.0,0.0,-2.8839,-2.9803,-3.2341,-3.3406,-3.3017,-3.6366,-3.7611,-3.6973,-3.8441,-3.9522,-4.0231,-3.9834,0.0,-3.4766,-3.2252,0.0,0.0,0.0,0.0,0.0,0.0,0.0,0.0,0.0,0.0,0.0,0.0,0.0,0.0,0.0,0.0,0.0,0.0,0.0,0.0,0.0,0.0,-3.0634,-3.0705,-3.0796,-3.0427,0.0,-2.523,-2.1997,-2.0924,-1.96,0.0,0.0,0.0,0.0,0.0,0.0,0.0,-2.4336,-2.684,-2.8472,-2.8472,-2.8472,-2.8218,-2.7645,-2.7525,-2.7151,-2.6378,-2.5568,-2.4455,-2.2948,-2.1374,0.0,0.0,0.0,0.0,0.0,0.0,0.0,0.0,0.0,0.0,0.0,0.0,0.0,0.0,0.0,0.0,0.0,0.0,0.0,0.0,0.0,0.0,0.0,0.0,0.0,0.0,0.0,0.0,0.0,-2.1715,-2.349,-2.3425,-2.3765,-2.3517,0.0,0.0,0.0,0.0,0.0,0.0,0.0,0.0,0.0,-3.0265,-3.1069,-3.2239,-3.3846,-3.5554,-3.6671,-3.7188,-3.9259,-4.0273,-4.0392,-4.1035,-4.1728,-4.2455,-4.2455,-4.1254,-3.9039,-3.5563,-3.2631,-3.0044,0.0,0.0,0.0,0.0,-2.741,-2.7664,-2.943,-2.9804,-2.9415,-2.8936,0.0,0.0,0.0,0.0,0.0,0.0,0.0,0.0,0.0,0.0,-3.169,-3.2422,-3.2632,-3.2482,-3.1898,-2.9502,-2.659,0.0,-2.3412,-2.2476,-1.9097,0.0,0.0,0.0,0.0,-2.4128,-2.5614,-2.7776,-2.9146,-2.9146,-2.9146,-2.8876,-2.8229,-2.8143,-2.7735,-2.6662,-2.6318,-2.557,-2.4216,-2.3143,-2.1284,0.0,0.0,0.0,0.0,0.0,0.0,0.0,0.0,0.0,0.0,0.0,0.0,0.0,0.0,0.0,0.0,0.0,0.0,0.0,0.0,0.0,0.0,0.0,0.0,0.0,0.0,0.0,0.0,-2.3543,-2.4795,-2.4052,-2.4965,-2.4847,0.0,0.0,0.0,0.0,0.0,0.0,-2.8917,-3.0399,-3.1906,-3.3387,-3.4353,-3.574,-3.7618,-3.8565,-3.958,-4.0679,-4.1424,-4.2049,-4.2591,-4.2777,-4.3183,-4.3724,-4.3724,-4.3138,-4.1897,-3.8221,-3.522,-3.2738,-3.0673,-2.9535,-2.9262,-3.043,-3.0864,-3.1164,-3.3275,-3.3694,-3.311,-3.2108,-3.1016,-2.9588,-2.6868,0.0,0.0,0.0,0.0,-2.8496,-3.0707,-3.1779,-3.2572,-3.3739,-3.4008,-3.3963,-3.3784,-3.2976,-3.1096,0.0,-2.6965,-2.6193,-2.1679,0.0,0.0,0.0,0.0,-2.5963,-2.722,-2.8801,-2.9846,-2.9846,-2.9846,-2.9564,-2.8906,-2.8697,-2.8173,-2.7171,-2.6783,-2.6124,-2.5158,-2.4555,-2.2896,-2.0027,0.0,0.0,0.0,0.0,0.0,0.0,0.0,0.0,0.0,0.0,0.0,0.0,0.0,0.0,0.0,0.0,0.0,0.0,0.0,0.0,0.0,0.0,0.0,0.0,0.0,0.0,0.0,0.0,0.0,-2.5592,-2.7418,0.0,0.0,0.0,0.0,-2.7603,-2.9697,-3.1295,-3.2029,-3.3466,-3.4977,-3.6523,-3.7973,-3.9106,-3.9927,-4.1356,-4.2117,-4.2202,-4.2946,-4.3308,-4.3358,-4.413,-4.4513,-4.4547,-4.4547,-4.364,-4.2029,-3.9768,-3.7866,-3.6167,-3.4061,-3.323,-3.329,-3.3994,-3.4264,-3.4369,-3.513,-3.5385,-3.534,-3.528,-3.3484,-3.117,-2.9854,-2.8935,0.0,0.0,-2.9921,-3.1586,-3.2991,-3.386,-3.4548,-3.5235,-3.54,-3.522,-3.4593,-3.4414,-3.3529,0.0,-2.8801,-2.7096,-2.5544,0.0,-2.5388,-2.5314,-2.6533,-2.7949,-2.9292,-3.0028,-3.0447,-3.0447,-3.0447,-3.0208,-2.9579,-2.8966,-2.8577,-2.8502,-2.7237,-2.6502,-2.6488,-2.5798,-2.4262,-2.182,-2.0648,0.0,0.0,0.0,0.0,0.0,0.0,0.0,0.0,0.0,0.0,0.0,0.0,0.0,0.0,0.0,0.0,0.0,0.0,0.0,0.0,0.0,0.0,0.0,0.0,0.0,0.0,0.0,0.0,-2.7757,-2.9348,0.0,-2.7959,-2.9127,-3.0184,-3.0659,-3.2764,-3.4374,-3.5153,-3.7036,-3.8363,-3.8903,-4.0341,-4.1238,-4.1508,-4.2523,-4.3014,-4.3003,-4.3237,-4.3356,-4.3327,-4.3037,-4.3229,-4.3726,-4.3152,-4.2592,-4.1959,-4.0658,-3.9215,-3.7774,-3.6491,-3.6013,-3.6043,-3.6282,-3.6626,-3.6971,-3.6791,-3.7015,-3.7225,-3.6402,-3.5205,-3.3901,-3.3062,-3.2616,-3.2392,-3.2467,-3.2929,-3.3634,-3.4547,-3.4966,-3.519,-3.5444,-3.5504,-3.5429,-3.519,-3.4786,-3.4234,-3.3245,-3.1465,-2.943,-2.7245,-2.723,-2.738,-2.6931,-2.8034,-2.9217,-3.0058,-3.0746,-3.1137,-3.1137,-3.1137,-3.0896,-3.0223,-2.9594,-2.8854,-2.7966,-2.7031,-2.6515,-2.6517,-2.5834,-2.4511,-2.2578,-2.1674,-1.9303,0.0,0.0,0.0,0.0,0.0,0.0,0.0,0.0,0.0,0.0,0.0,0.0,0.0,0.0,0.0,0.0,0.0,0.0,0.0,0.0,0.0,0.0,0.0,0.0,0.0,0.0,-2.9417,-2.9713,-3.172,-3.24,-3.0662,-3.2062,-3.3303,-3.3776,-3.5868,-3.736,-3.7867,-3.9785,-4.0843,-4.0832,-4.2016,-4.2675,-4.2675,-4.3436,-4.3653,-4.3384,-4.3313,-4.3139,-4.2847,-4.2252,-4.2489,-4.3229,-4.2137,-4.1677,-4.1598,-4.0485,-3.9455,-3.8501,-3.8196,-3.8078,-3.8063,-3.7823,-3.8018,-3.8287,-3.7644,-3.7554,-3.7614,-3.6761,-3.6043,-3.5429,-3.4966,-3.4848,-3.4848,-3.4848,-3.4848,-3.4936,-3.5385,-3.5504,-3.5504,-3.5504,-3.5504,-3.5504,-3.5504,-3.5145,-3.4788,-3.4548,-3.3245,-3.1466,-2.928,-2.9475,-2.9609,-2.8723,-2.952,-3.0387,-3.0806,-3.1227,-3.1511,-3.1511,-3.1511,-3.1316,-3.0896,-3.0073,-2.9099,-2.7888,-2.6567,-2.5822,-2.5822,-2.4941,-2.3835,-2.2553,-2.1261,-1.9173,-1.6307,0.0,0.0,0.0,0.0,0.0,0.0,0.0,0.0,0.0,0.0,0.0,0.0,0.0,0.0,0.0,0.0,0.0,0.0,0.0,0.0,0.0,0.0,0.0,-2.5561,-2.9539,-3.2097,-3.1426,-3.4579,-3.5969,-3.3758,-3.5563,-3.6874,-3.6896,-3.8902,-4.0155,-4.0172,-4.1547,-4.2338,-4.232,-4.3064,-4.3426,-4.3426,-4.417,-4.4138,-4.3306,-4.3246,-4.2785,-4.1965,-4.1933,-4.2395,-4.3136,-4.1606,-4.099,-4.0863,-3.9342,-3.8611,-3.8482,-3.9125,-3.9394,-3.9305,-3.8631,-3.8377,-3.8272,-3.7629,-3.7015,-3.6507,-3.6507,-3.6088,-3.5564,-3.5549,-3.5534,-3.5534,-3.5504,-3.5504,-3.5504,-3.5504,-3.5504,-3.5504,-3.5504,-3.5504,-3.5504,-3.5504,-3.5504,-3.531,-3.4668,-3.3993,-3.314,-3.1795,-3.2093,-3.2108,-3.0791,-3.1122,0.0,-3.1525,-3.1511,-3.1511,-3.1511,-3.1511,-3.1511,-3.1511,-3.0328,-2.9262,-2.8423,-2.5975,-2.4525,-2.4525,-2.3312,-2.2406,-2.1873,-1.9511,-1.8051,-1.759,0.0,0.0,0.0,0.0,0.0,0.0,0.0,0.0,0.0,0.0,0.0,0.0,0.0,0.0,0.0,0.0,0.0,0.0,0.0,0.0,0.0,-2.6133,-2.7992,-2.832,-3.1086,-3.3406,-3.4279,-3.6297,-3.7341,-3.6732,-3.7705,-3.8625,-3.9144,-4.0261,-4.1131,-4.1665,-4.2591,-4.3094,-4.3115,-4.3859,-4.4265,-4.4265,-4.386,-4.3532,-4.3276,-4.2029,-4.128,-4.1046,-4.0413,-4.0569,-4.1363,-4.0281,-4.0204,-4.0683,-3.9642,-3.9159,-3.911,-3.8796,-3.8676,-3.8646,-3.8467,-3.8078,-3.7659,-3.7464,-3.73,-3.715,-3.715,-3.703,-3.6806,-3.6357,-3.6222,-3.6118,-3.5639,-3.5504,-3.5504,-3.5504,-3.5504,-3.5504,-3.5504,-3.5504,-3.5504,-3.5504,-3.5504,-3.5444,-3.525,-3.507,-3.4532,-3.3185,-3.3095,-3.3095,-3.2721,-3.2422,0.0,-3.2213,-3.1795,-3.1511,-3.1511,-3.1511,-3.1511,-3.1511,-3.0328,-2.907,-2.7845,-2.615,-2.522,-2.522,-2.4372,-2.3645,-2.3123,-2.1165,-1.9899,0.0,0.0,0.0,0.0,0.0,0.0,0.0,0.0,0.0,0.0,0.0,0.0,0.0,0.0,0.0,0.0,0.0,0.0,0.0,0.0,0.0,0.0,-2.8969,-3.1092,-3.1891,-3.3628,-3.5367,-3.6863,-3.8098,-3.8819,-3.8816,-3.9488,-4.0109,-4.0544,-4.154,-4.2311,-4.2726,-4.3483,-4.391,-4.391,-4.435,-4.4615,-4.4615,-4.3756,-4.3108,-4.2754,-4.1379,-4.05,-4.015,-3.9646,-3.99,-4.0641,-3.9491,-3.9475,-4.0207,-3.9048,-3.8736,0.0,0.0,0.0,0.0,0.0,-3.7345,-3.6985,-3.6701,-3.6611,-3.6611,-3.6611,-3.6611,-3.6552,-3.6193,-3.6073,-3.5998,-3.5609,-3.5504,-3.5504,-3.5504,-3.5504,-3.5504,-3.5504,-3.5504,-3.5504,-3.5504,-3.5504,-3.5504,-3.5504,-3.5504,0.0,-3.4472,-3.4098,-3.3814,-3.3529,-3.317,-3.2931,-3.2931,-3.2318,-3.1914,-3.1914,-3.1675,-3.1511,-3.1511,-3.0328,0.0,0.0,0.0,-2.5225,-2.4365,-2.4207,0.0,0.0,0.0,0.0,0.0,0.0,0.0,0.0,-1.9935,-1.9513,0.0,0.0,0.0,0.0,0.0,0.0,0.0,0.0,0.0,0.0,0.0,0.0,0.0,0.0,0.0,0.0,-3.1633,-3.3789,-3.5711,-3.6606,-3.7516,-3.883,-3.9637,-4.0146,-4.0231,-4.0811,-4.1264,-4.142,-4.2654,-4.3429,-4.3527,0.0,0.0,0.0,0.0,-4.4615,-4.4615,-4.3756,-4.2847,-4.1997,-4.1113,-4.0239,-3.9388,-3.9517,-3.9955,-4.061,-3.9232,-3.9112,-3.9712,-3.8217,-3.7973,-3.8556,-3.9095,-3.8931,-3.8242,-3.703,-3.6596,-3.6507,-3.5923,0.0,0.0,-3.5714,-3.5714,-3.5714,-3.5639,-3.5609,-3.5609,-3.5534,-3.5504,-3.5504,-3.5504,-3.5504,-3.5504,-3.5504,-3.5504,-3.5504,-3.5504,-3.5504,-3.5504,-3.5504,-3.5504,-3.5504,-3.5504,-3.4996,-3.4429,-3.3814,-3.3649,-3.3604,-3.3604,-3.3036,-3.2617,-3.2617,0.0,0.0,-3.1615,-3.0447,-2.9364,-2.8579,-2.6953,-2.5247,-2.3445,-2.3932,-2.396,-2.3378,-2.3876,-2.4702,-2.581,-2.5294,-2.5949,-2.759,-2.3048,-2.2151,0.0,0.0,0.0,0.0,0.0,0.0,0.0,0.0,0.0,0.0,0.0,0.0,0.0,0.0,0.0,-3.1438,-3.3612,-3.5835,-3.8025,-3.8476,-3.8681,-3.898,-3.9648,-4.0324,-4.0923,-4.1116,-4.169,-4.2902,-4.3247,-4.3669,-4.4316,-4.453,-4.4615,-4.4615,-4.4615,-4.4615,-4.4615,-4.3756,-4.2847,-4.1997,0.0,0.0,-3.9409,-4.0115,-4.0519,-4.0675,-4.038,-4.0353,-4.0421,-3.9425,-3.911,-3.9185,-3.8751,-3.8497,-3.8287,-3.7524,-3.724,-3.721,-3.709,-3.7045,-3.7045,-3.7045,-3.7045,-3.6941,-3.6447,-3.6297,0.0,-3.5654,-3.5504,-3.5504,-3.5504,-3.5504,-3.5504,-3.5504,-3.5504,-3.5504,-3.5504,-3.5504,-3.5504,-3.5504,-3.5504,-3.5504,-3.5504,-3.5385,-3.5265,-3.513,-3.4637,-3.4324,-3.4324,-3.3709,-3.3305,-3.3305,-3.2721,-3.2303,-3.2303,-3.1091,-3.0048,-2.9416,-2.8512,-2.7877,-2.748,-2.7584,-2.7598,-2.7465,-2.7052,-2.698,-2.7214,-2.7113,-2.7505,-2.8368,-2.6298,-2.5912,0.0,0.0,0.0,0.0,0.0,0.0,0.0,0.0,0.0,0.0,0.0,-2.55,-2.701,0.0,-3.2227,-3.3716,-3.5852,-3.7708,-3.8853,-3.9302,-3.9539,-3.9539,-4.0197,-4.0797,-4.1176,-4.1852,-4.2605,-4.3341,-4.3775,-4.4181,-4.4581,-4.4615,-4.4615,-4.4615,-4.4198,-4.3995,-4.3995,-4.2746,-4.2095,-4.2079,-4.0704,-4.0289,-4.0706,-4.069,-4.069,-4.069,-4.069,-4.0466,-4.0025,-3.9574,-3.9388,-3.9394,-3.9035,-3.8901,-3.8781,-3.7778,-3.7614,-3.7853,-3.7524,-3.7404,-3.7404,-3.7404,-3.7404,-3.7345,-3.7045,-3.6941,-3.6821,-3.6178,-3.5998,-3.5923,-3.5594,-3.5504,-3.5504,-3.5504,-3.5504,-3.5504,-3.5504,-3.5504,-3.5504,-3.5504,-3.5504,-3.5504,-3.5504,-3.5504,-3.5504,-3.5504,-3.5205,-3.4996,-3.4996,-3.4397,-3.3978,-3.3978,-3.3395,-3.3006,-3.3006,-3.175,-3.0612,-2.9666,-2.9307,-2.8951,-2.8607,-2.8921,-2.8936,-2.8607,-2.8618,-2.8918,-2.9549,-2.9549,-3.0073,-3.1046,-3.0361,-2.987,0.0,0.0,0.0,0.0,0.0,0.0,0.0,0.0,-2.3065,-2.516,-2.6285,-2.7639,-3.0076,-3.2335,-3.4263,-3.5615,-3.7621,-3.9043,-3.9194,-3.9724,-4.0096,-4.0096,-4.062,-4.1092,-4.1379,-4.2496,-4.3318,-4.3623,-4.4215,-4.4547,-4.4395,-4.4378,-4.431,-4.4175,-4.3673,-4.3392,-4.3392,-4.2216,-4.1892,-4.2404,-4.0863,-4.0808,-4.1965,-4.128,-4.0946,-4.0946,-4.0777,-4.022,-3.9388,-3.9388,-3.9388,-3.9388,-3.9388,-3.9388,-3.9254,-3.8197,-3.8138,-3.8512,-3.7988,-3.7793,-3.7793,-3.7793,-3.7793,-3.7778,-3.7644,-3.7599,-3.7464,-3.6851,-3.6671,-3.6552,-3.6013,-3.5789,-3.5699,-3.5699,-3.5594,-3.5504,-3.5504,-3.5504,-3.5504,-3.5504,-3.5504,-3.5504,-3.5504,-3.5504,-3.5504,-3.5504,-3.5326,-3.5213,-3.5213,-3.4723,-3.4382,-3.4382,-3.3974,-3.3634,-3.3499,-3.2497,-3.1436,-3.0402,-3.037,-3.0103,-2.9564,-3.0058,-3.0088,-2.9564,-3.0073,-3.0851,-3.1884,-3.1884,-3.2422,-3.3499,-3.3619,-3.3051,-2.3835,-2.1576,-2.0471,-2.2412,-2.2479,-2.2922,0.0,0.0,-2.7507,-2.9145,-3.0576,-3.1655,-3.1984,-3.3862,-3.5651,-3.6527,-3.7978,-3.9228,-3.9893,-4.0037,-4.0096,-4.0096,-4.018,-4.073,-4.2049,-4.232,-4.298,-4.4378,-4.4564,-4.4282,-4.3561,-4.3511,-4.3234,-4.2574,-4.3115,-4.3392,-4.3392,-4.3912,-4.3843,-4.3174,-4.2968,-4.2552,-4.1997,-4.1901,-4.1869,-4.1804,-4.1046,-4.022,-3.9388,-3.9388,-3.9388,-3.9388,-3.9388,-3.9388,-3.9394,-3.9209,-3.9209,-3.929,-3.9179,-3.92,-3.92,-3.92,-3.92,-3.908,-3.8467,-3.8287,-3.8138,-3.7494,-3.73,-3.7285,-3.7225,-3.6791,-3.6372,-3.6372,-3.5923,-3.5504,-3.5504,-3.5504,-3.5504,-3.5504,-3.5504,-3.5504,-3.5504,-3.5504,-3.5504,-3.5504,-3.4725,-3.4177,-3.4177,-3.4105,-3.4062,-3.4062,-3.4262,-3.4159,-3.3544,-3.3365,-3.3215,-3.3066,-3.3051,-3.3021,-3.2946,-3.3021,-3.3021,-3.2946,-3.3021,-3.3125,-3.3275,-3.3275,-3.335,-3.3499,-3.4098,-3.3978,-2.5293,-2.4306,-2.3917,0.0,-2.512,-2.6593,-2.8151,-2.8834,-2.9574,-3.1064,-3.2209,-3.3073,-3.3506,-3.5416,-3.706,0.0,-3.8673,-3.9741,-4.0054,-4.0096,-3.9943,-3.952,-3.9842,-4.0688,-4.2151,-4.2692,-4.3403,-4.453,-4.4164,-4.3758,-4.3409,-4.2997,-4.2828,-4.2946,-4.2828,-4.298,-4.3392,-4.3288,-4.3251,-4.3354,-4.2788,-4.2878,-4.3515,-4.3,-4.2489,-4.1965,-4.108,-4.022,-3.9388,-3.9388,-3.9388,-3.9388,-3.9388,-3.9388,-3.9388,-3.9388,-3.9388,-3.9388,-3.9388,-3.9388,-3.9388,-3.9388,-3.9388,-3.9364,-3.908,-3.899,-3.8841,-3.8167,-3.7973,-3.7883,-3.7509,-3.721,-3.6941,-3.6567,-3.6282,-3.5968,-3.5594,-3.5504,-3.5504,-3.5504,-3.5504,-3.5311,-3.4725,-3.461,-3.4442,-3.3905,-3.3925,-3.3993,-3.3993,-3.3993,-3.4211,-3.4806,-3.4993,-3.4801,-3.4159,-3.4068,-3.3934,-3.3514,-3.3499,-3.3499,-3.3499,-3.3499,-3.3499,-3.3499,-3.3499,-3.3679,-3.4068,-3.4068,-3.4277,-3.4666,-3.4951,-3.4921,-2.6044,-2.6133,-2.6539,-2.5895,-2.7691,-2.9661,-2.985,-3.0646,-3.1634,-3.2681,-3.349,-3.4167,-3.4694,-3.6337,-3.7654,-3.7878,-3.8975,-3.9884,-4.0079,-3.9926,-3.9605,-3.9056,-3.9276,-4.0079,-4.1542,-4.254,-4.342,-4.4198,-4.3741,-4.3291,-4.3115,-4.2591,-4.2439,-4.2794,-4.2675,-4.2861,-4.3375,-4.3058,-4.3158,-4.3713,-4.3056,-4.338,-4.457,-4.3456,-4.2458,-4.1593,-4.0724,-3.999,-3.9388,-3.9388,-3.9388,-3.9388,-3.9388,-3.9388,-3.9388,-3.9388,-3.9388,-3.9388,-3.9388,-3.9388,-3.9388,-3.9388,-3.9388,-3.9388,-3.9388,-3.9388,-3.932,-3.8811,-3.8676,-3.8556,-3.8093,-3.7823,-3.7569,-3.712,-3.6866,-3.6567,-3.5923,-3.5774,-3.5729,-3.5549,-3.5279,-3.4953,-3.4495,-3.4177,-3.3774,-3.3101,-3.3567,-3.391,-3.3671,-3.3842,-3.4394,-3.5392,-3.5504,-3.5295,-3.4801,-3.4788,-3.4562,-3.4083,-3.4053,-3.4053,-3.4053,-3.4053,-3.4053,-3.4053,-3.4053,-3.4277,-3.4788,-3.4788,-3.5026,-3.5504,-3.5504,-3.5504,-2.5812,-2.6133,-2.7046,-2.8502,-3.0008,-3.1319,-3.2027,-3.3326,-3.4369,-3.4402,-3.501,-3.5543,-3.5554,-3.6254,-3.7074,-3.7786,-3.8546,-3.9282,-3.9994,-3.9486,-3.9022,-3.8988,-3.8396,-3.8548,0.0,-4.1474,-4.2642,-4.3375,-4.3409,-4.3098,-4.2371,-4.2303,-4.1982,-4.1288,-4.2615,-4.3375,-4.3392,-4.4164,-4.4536,-4.4564,-4.4525,-4.4542,-4.4542,-4.2831,-4.156,-4.069,-3.9829,-3.9409,-3.9388,-3.9388,-3.9388,-3.9388,-3.9388,-3.9388,-3.9388,-3.9388,-3.9388,-3.9388,-3.9388,-3.9388,-3.9388,-3.9388,-3.9388,-3.9388,-3.9388,-3.9388,-3.9388,-3.9394,-3.9394,-3.9343,-3.9328,-3.8856,-3.8362,-3.8347,-3.7838,-3.721,-3.6596,-3.6462,-3.6267,-3.5624,-3.4725,-3.4361,-3.5279,-3.4658,-3.3993,-3.3959,-3.3993,-3.3671,-3.2749,-3.3449,-3.4394,-3.5392,-3.5504,-3.5489,-3.5474,-3.5474,-3.5474,-3.5444,-3.5444,-3.5444,-3.5444,-3.5444,-3.5444,-3.5444,-3.5444,-3.5459,-3.5474,-3.5474,-3.5489,-3.5504,-3.5504,-3.5504,-2.6987,-2.7997,-2.9195,-3.0206,-3.1931,-3.3457,-3.3694,-3.4525,-3.5224,-3.5224,-3.5052,-3.4884,-3.4867,-3.5484,-3.6271,-3.704,-3.8195,-3.9265,-3.9994,-3.9893,-3.9385,-3.8396,-3.8903,0.0,0.0,0.0,0.0,-4.2574,-4.2219,-4.1847,-4.1576,-4.1576,-4.1677,-4.1914,-4.2895,-4.3673,-4.4181,-4.4479,-4.4615,-4.4615,-4.4615,-4.4615,-4.4542,-4.3396,-4.2395,-4.1495,-4.0638,-3.992,-3.9388,-3.9388,-3.9388,-3.9388,-3.9388,-3.9388,-3.9388,-3.9388,-3.9388,-3.9388,-3.9388,-3.9388,-3.9388,-3.9388,-3.9388,-3.9388,-3.9388,-3.9388,-3.9388,-3.9388,-3.9388,-3.9388,-3.9388,-3.9245,-3.896,-3.8497,-3.8227,-3.7883,-3.724,-3.7105,-3.6911,-3.6282,-3.5885,-3.5421,-3.465,-3.4211,-3.3993,-3.3993,-3.3993,-3.3876,-3.3567,-3.4394,-3.5133,-3.5472,-3.5504,-3.5504,-3.5504,-3.5504,-3.5504,-3.5504,-3.5504,-3.5504,-3.5504,-3.5504,-3.5504,-3.5504,-3.5504,-3.5504,-3.5504,-3.5504,-3.5504,-3.5504,-3.5504,-3.5504,-2.8422,-2.992,-3.1447,-3.2181,-3.3659,-3.4878,-3.4878,-3.5253,-3.5526,-3.5256,-3.4628,-3.4026,-3.375,-3.3891,-3.4533,-3.6124,-3.7161,-3.8326,-3.9876,-3.9876,-3.9368,-3.8413,-3.8886,-3.9039,0.0,0.0,0.0,-4.2151,-4.1627,-4.1322,-4.1576,-4.1339,-4.1542,-4.2269,-4.3031,-4.3792,-4.4598,-4.4615,-4.4615,-4.4615,-4.4615,-4.4615,-4.4542,-4.335,-4.252,-4.1933,-4.0758,-3.992,-3.9388,-3.9388,-3.9388,-3.9388,-3.9388,-3.9388,-3.9388,-3.9388,-3.9388,-3.9388,-3.9388,-3.9388,-3.9388,-3.9388,-3.9388,-3.9388,-3.9388,-3.9388,-3.9388,-3.9388,-3.9388,-3.9388,-3.9388,-3.9388,-3.9305,-3.8856,-3.8751,-3.845,-3.7414,-3.7491,-3.7466,-3.6468,-3.63,-3.6084,-3.5341,-3.5025,-3.4806,-3.4572,-3.4543,-3.4543,-3.4543,-3.51,-3.5504,-3.5504,-3.5504,-3.5504,-3.5504,-3.5504,-3.5504,-3.5504,-3.5504,-3.5504,-3.5504,-3.5504,-3.5504,-3.5504,-3.5504,-3.5504,-3.5504,-3.5504,-3.5504,-3.5504,-3.5504,-3.5504,-3.0039,-3.1862,-3.3679,-3.4379,-3.5128,-3.5656,-3.56,-3.5583,-3.5329,-3.4611,-3.3812,-3.3018,0.0,0.0,-3.216,-3.5074,-3.5633,-3.6732,-3.969,-3.9503,-3.9056,0.0,0.0,0.0,0.0,0.0,0.0,-4.2134,0.0,-4.1474,-4.2202,-4.1627,-4.1576,-4.2269,-4.3064,-4.3826,-4.4598,-4.4615,-4.4615,-4.4615,-4.4615,-4.4615,-4.4542,-4.2831,-4.2062,-4.1965,-4.022,-3.9481,-3.9445,-3.9409,-3.9388,-3.9388,-3.9388,-3.9388,-3.9388,-3.9388,-3.9388,-3.9388,-3.9454,-3.9454,-3.9388,-3.9388,-3.9388,-3.9388,-3.9388,-3.9388,-3.9388,-3.9388,-3.9388,-3.9388,-3.9388,-3.9388,-3.9388,-3.9388,-3.9388,-3.8962,-3.7295,-3.7737,-3.7981,-3.6345,-3.605,-3.6356,-3.7252,-3.6926,-3.6312,-3.5654,-3.5549,-3.5549,-3.5504,-3.5504,-3.5504,-3.5504,-3.5504,-3.5504,-3.5504,-3.5504,-3.5504,-3.5504,-3.5504,-3.5504,-3.5504,-3.5504,-3.5504,-3.5504,-3.5504,-3.5504,-3.5504,-3.5504,-3.5504,-3.5504,-3.5504,-3.5504,-3.2068,-3.3775,-3.5077,-3.5261,-3.5926,-3.6339,-3.5746,-3.5166,-3.4555,-3.384,-3.2226,-3.0875,0.0,0.0,0.0,-3.4392,-3.6214,0.0,-3.9842,-3.9943,0.0,-3.9825,0.0,-4.0443,-4.0629,-4.1136,0.0,0.0,-4.1128,-4.0696,-4.1441,-4.1813,-4.21,-4.2286,-4.3589,-4.4384,-4.4615,-4.4615,-4.4615,-4.4615,-4.4615,-4.4615,-4.457,-4.3456,-4.2986,-4.2878,-4.1129,-4.0363,-4.0309,-3.9681,-3.9388,-3.9388,-3.9388,-3.9388,-3.9388,-3.9388,-3.9388,-3.9448,-3.9978,-3.9828,-3.9388,-3.9388,-3.9388,-3.9388,-3.9388,-3.9388,-3.9388,-3.9388,-3.9388,-3.9388,-3.9388,-3.9388,-3.9388,-3.9388,-3.9388,-3.9292,-3.8831,-3.896,-3.8874,-3.7925,-3.7371,-3.7114,-3.737,-3.7285,-3.6956,-3.6327,-3.6237,-3.6058,-3.5564,-3.5504,-3.5504,-3.5504,-3.5504,-3.5504,-3.5504,-3.5504,-3.5504,-3.5504,-3.5504,-3.5504,-3.5504,-3.5504,-3.5504,-3.5504,-3.5504,-3.5504,-3.5504,-3.5504,-3.5504,-3.5504,-3.5504,-3.5504,-3.3861,-3.5224,-3.6118,-3.6131,-3.6455,-3.6322,-3.4555,-3.4091,-3.3434,-3.1371,-2.9945,0.0,-2.8676,-2.8952,-3.0169,0.0,0.0,0.0,-3.9292,-3.991,-4.0096,0.0,-4.0485,0.0,-4.0713,-4.1085,-4.1484,0.0,-4.1035,-4.0747,-4.1187,-4.1593,-4.1965,-4.2286,-4.3436,-4.4231,-4.4615,-4.4615,-4.4615,-4.4615,-4.4615,-4.4615,-4.4542,-4.329,-4.2724,-4.2614,0.0,-4.0115,-4.008,-3.961,-3.9388,-3.9388,-3.9388,-3.9811,-4.0467,-4.0467,-4.0649,-4.0969,-4.1334,-4.0952,-4.0277,-4.0277,-4.0277,-4.0232,-3.9933,-3.9843,-3.9783,-3.9463,-3.9388,-3.9388,-3.9388,-3.9388,-3.9388,-3.9388,-3.9388,-3.9265,-3.8782,-3.9068,-3.9305,-3.8916,-3.8542,-3.8197,-3.7898,-3.7838,-3.7629,-3.6985,-3.6881,-3.6656,-3.6013,-3.5684,-3.5504,-3.5504,-3.5504,-3.5504,-3.5504,-3.5504,-3.5504,-3.5504,-3.5504,-3.5504,-3.5504,-3.5504,-3.5504,-3.5504,-3.5504,-3.5504,-3.5504,-3.5504,-3.5504,-3.5504,-3.5504,-3.5504,-3.5382,-3.6401,-3.7039,-3.6846,-3.68,-3.6034,-3.3122,-3.2701,-3.1976,-2.8516,0.0,-2.7173,-2.6538,-2.6573,-2.7896,-3.1556,0.0,-3.5537,-3.8565,-3.9554,-4.0028,-4.0231,-4.0248,-4.0282,-4.0383,-4.04,-4.0637,-4.117,-4.1204,-4.1204,-4.1204,-4.1288,-4.1728,-4.2574,-4.3234,-4.3893,-4.4598,-4.4615,-4.4615,-4.4615,-4.4615,-4.4542,-4.4384,-4.2862,-4.2093,-4.1901,-4.0289,-3.9574,-3.9574,-3.9445,-3.9388,-3.9409,-3.9553,-4.0507,-4.1783,-4.1783,-4.2217,-4.2787,-4.2772,-4.223,-4.1527,-4.1452,-4.1422,-4.1265,-4.0711,-4.0531,-4.0412,-3.9843,-3.9679,-3.9679,-3.9679,-3.9619,-3.9508,-3.9508,-3.9448,-3.9141,-3.8234,-3.8745,-3.9388,-3.9388,-3.9388,-3.923,-3.8631,-3.8527,-3.8302,-3.7644,-3.7539,-3.7315,-3.6686,-3.6043,-3.5609,-3.5519,-3.5504,-3.5504,-3.5504,-3.5504,-3.5504,-3.5504,-3.5504,-3.5504,-3.5504,-3.5504,-3.5504,-3.5504,-3.5504,-3.5504,-3.5504,-3.5504,-3.5504,-3.5504,-3.5504,-3.5504,-3.6353,-3.7589,-3.8329,-3.7111,-3.68,-3.6158,-3.3768,-3.1891,0.0,0.0,-2.6354,-2.5037,-2.491,-2.5879,-2.7738,-3.0881,-3.3136,-3.5537,-3.8565,-3.9106,-3.9631,0.0,-4.1018,-4.1255,-4.1847,-4.1941,0.0,0.0,-4.1204,-4.1204,-4.1204,-4.1779,-4.2743,-4.4175,-4.4344,-4.4479,-4.4615,-4.4615,-4.4615,-4.4615,-4.4615,-4.4224,-4.3532,-4.3199,-4.2676,-4.1933,-4.0927,0.0,-4.0432,-3.9702,-3.9388,-3.9481,-4.017,-4.1021,-4.1783,-4.1728,-4.2162,-4.2777,-4.2561,-4.237,-4.2141,-4.1587,-4.1422,-4.1392,-4.125,-4.1205,-4.119,-4.107,-4.104,-4.104,-4.104,-4.0636,-4.0232,-4.0232,-3.9813,-3.9337,-3.9141,-3.9265,-3.9388,-3.9388,-3.9388,-3.9343,-3.926,-3.9245,-3.9005,-3.8317,-3.8227,-3.7988,-3.733,-3.6701,-3.6103,-3.5564,-3.5504,-3.5504,-3.5504,-3.5504,-3.5504,-3.5504,-3.5504,-3.5504,-3.5504,-3.5504,-3.5504,-3.5504,-3.5504,-3.5504,-3.5504,-3.5504,-3.5504,-3.5504,-3.5504,-3.5504,-3.7148,-3.8167,-3.8732,-3.7669,-3.7074,-3.5807,-3.1971,0.0,0.0,0.0,-2.4406,-2.3935,-2.3935,-2.4812,0.0,-2.9006,-3.0987,-3.3389,-3.6772,-3.7584,-3.8556,-4.0409,-4.0629,-4.0764,0.0,-4.1162,-4.1027,-4.0646,-4.0629,-4.0629,-4.0629,-4.1677,-4.3024,-4.4564,-4.4615,-4.4615,-4.4615,-4.4615,-4.4615,-4.4615,-4.4615,-4.4138,-4.3276,-4.2816,-4.2157,-4.128,-4.0413,-4.0274,-4.0656,-4.0239,-4.0343,-4.0808,-4.1213,-4.2342,-4.3731,-4.3681,-4.4065,-4.4563,-4.4403,-4.3716,-4.2821,-4.2491,-4.2402,-4.2342,-4.2036,-4.1931,-4.1856,-4.1512,-4.1422,-4.1422,-4.1422,-4.1145,-4.0905,-4.0905,-4.0412,-3.9828,-3.9499,-3.9388,-3.9388,-3.9388,-3.9388,-3.9388,-3.9388,-3.9388,-3.9305,-3.8975,-3.8931,-3.8676,-3.8003,-3.7659,-3.7225,-3.6567,-3.6492,-3.6492,-3.6492,-3.6492,-3.6492,-3.6492,-3.6193,-3.6013,-3.6013,-3.5684,-3.5504,-3.5504,-3.5504,-3.5504,-3.5504,-3.5504,-3.5504,-3.5504,-3.5504,-3.5684,-3.7442,-3.8204,-3.8606,-3.7853,-3.6875,-3.4878,-3.0269,-2.8726,0.0,0.0,-2.2861,-2.3153,-2.3153,0.0,-2.4991,0.0,-2.8873,-3.1157,-3.4839,-3.618,-3.7557,0.0,-4.0011,0.0,-4.0096,-4.0096,0.0,-4.0096,-4.0248,-4.0417,-4.057,-4.166,-4.3024,-4.4564,-4.4615,-4.4615,-4.4615,-4.4615,-4.4615,-4.4615,-4.4615,-4.4064,-4.3,-4.252,-4.1691,-4.069,-4.0185,-4.0343,-4.0979,-4.0979,-4.1379,-4.2029,-4.2205,-4.3601,-4.5478,-4.524,-4.5616,-4.6138,-4.571,-4.4577,-4.329,-4.329,-4.329,-4.32,-4.2731,-4.2605,-4.25,-4.1953,-4.1803,-4.1803,-4.1803,-4.1698,-4.1587,-4.1414,-4.0995,-4.0427,-3.9768,-3.9634,-3.9553,-3.9454,-3.9388,-3.9388,-3.9388,-3.9388,-3.9388,-3.9388,-3.9388,-3.923,-3.8676,-3.8601,-3.8407,-3.7898,-3.7584,-3.7404,-3.7404,-3.7404,-3.7404,-3.7404,-3.6956,-3.6686,-3.6686,-3.6193,-3.5908,-3.5908,-3.5908,-3.5908,-3.5908,-3.5908,-3.5908,-3.5908,-3.5908,-3.6193,-3.6666,-3.7443,-3.7811,-3.7078,-3.5293,-3.305,-3.0567,0.0,-2.542,-2.3645,-2.2813,-2.2392,-2.2392,0.0,0.0,0.0,0.0,-3.0398,-3.4066,-3.5881,-3.7371,-3.8903,0.0,0.0,-4.0096,-4.0096,-4.0096,-4.0096,-4.0713,-4.139,-4.2049,-4.2219,-4.3024,-4.4564,-4.4615,-4.4615,-4.4615,-4.4615,-4.4615,-4.4615,-4.4615,-4.3739,-4.2125,-4.2847,-4.2252,-4.0758,-4.1445,-4.1804,0.0,-4.1869,-4.1933,-4.2093,-4.2878,-4.4132,-4.5383,-4.4478,-4.5008,-4.5961,-4.419,-4.3433,-4.329,-4.329,-4.329,-4.329,-4.3215,-4.32,-4.3185,-4.3125,-4.311,-4.311,-4.311,-4.2716,-4.2156,-4.1519,-4.1324,-4.1115,-4.0442,-4.0307,-4.0127,-3.9529,-3.9388,-3.9388,-3.9388,-3.9388,-3.9388,-3.9388,-3.9388,-3.9394,-3.9334,-3.9334,-3.9269,-3.9209,-3.8138,-3.7404,-3.7404,-3.7404,-3.7404,-3.7404,-3.736,-3.733,-3.733,-3.727,-3.724,-3.724,-3.724,-3.724,-3.724,-3.724,-3.724,-3.724,-3.724,-3.727,-3.5874,-3.6975,-3.7706,-3.6976,-3.509,-3.2689,-3.0034,0.0,-2.5056,-2.3136,-2.2505,-2.2296,-2.2296,-2.2533,0.0,0.0,0.0,0.0,-3.1326,-3.2747,-3.4493,-3.7354,-3.8328,0.0,0.0,0.0,-4.0096,-4.0096,-4.0781,-4.1525,-4.2252,-4.2726,-4.347,-4.4581,-4.4615,-4.4615,-4.4615,-4.4615,-4.4355,-4.3814,-4.3814,-4.3199,-4.2029,-4.2363,-4.2125,-4.1511,-4.1869,-4.23,0.0,-4.2785,-4.3092,-4.3604,-4.3931,-4.4637,-4.5399,-4.5,-4.5058,-4.5248,-4.4472,-4.381,-4.329,-4.329,-4.329,-4.329,-4.329,-4.329,-4.329,-4.329,-4.329,-4.329,-4.329,-4.3135,-4.2776,-4.2171,-4.2006,-4.1826,-4.113,-4.0681,-4.0322,-4.0053,-3.9694,-3.9388,-3.9388,-3.9388,-3.9388,-3.9388,-3.9388,-3.9388,-3.9388,-3.9388,-3.9388,-3.9388,-3.8931,-3.8616,-3.8616,-3.8616,-3.8616,-3.8616,-3.8227,-3.8003,-3.8003,-3.7614,-3.7404,-3.7404,-3.7404,-3.7404,-3.7404,-3.7404,-3.7404,-3.7404,-3.7404,-3.7629,-3.497,-3.6231,-3.7046,-3.6305,-3.4432,-3.2036,0.0,-2.6893,-2.4708,-2.27,-2.2296,-2.2254,-2.2111,-2.2211,-2.2673,0.0,0.0,-2.598,-2.9313,-3.0784,-3.2682,0.0,0.0,-3.8058,0.0,-3.9842,-4.0096,-4.0096,-4.0984,-4.1745,-4.2252,-4.3217,-4.4012,-4.4581,-4.4615,-4.4615,-4.4615,-4.4615,-4.4281,-4.368,-4.3426,-4.2986,-4.2379,-4.2379,-4.2379,-4.2395,-4.2676,-4.3122,0.0,-4.368,-4.4035,-4.457,-4.4327,-4.4564,-4.504,-4.4724,-4.4551,-4.4496,-4.4411,-4.3888,-4.329,-4.329,-4.329,-4.329,-4.329,-4.329,-4.329,-4.329,-4.329,-4.329,-4.329,-4.329,-4.317,-4.2761,-4.2656,-4.25,-4.1856,-4.1309,-4.092,-4.0726,-4.0157,-3.9709,-3.9709,-3.9508,-3.9388,-3.9388,-3.9388,-3.9388,-3.9388,-3.9388,-3.9388,-3.9388,-3.9388,-3.9388,-3.9388,-3.9388,-3.9388,-3.9388,-3.896,-3.8691,-3.8691,-3.8242,-3.8003,-3.8003,-3.8003,-3.8003,-3.8003,-3.8003,-3.8003,-3.8003,-3.8003,-3.8257,-3.3911,-3.506,-3.5436,-3.4718,-3.2872,-3.0619,-2.8335,-2.6103,-2.4084,-2.2618,-2.2296,-2.2154,-2.1683,-2.1997,-2.2401,-2.2661,0.0,0.0,-2.8688,-3.0905,-3.2835,0.0,0.0,-3.7117,-3.7855,-3.9225,-4.0096,-4.0096,-4.1467,0.0,-4.2286,-4.3768,-4.4598,-4.4615,-4.4615,-4.4615,-4.4615,-4.4615,-4.4615,-4.457,-4.371,-4.3306,-4.3276,-4.3276,-4.3276,-4.3336,-4.4196,-4.457,0.0,-4.4587,-4.4598,-4.4514,-4.3651,-4.3781,-4.4256,-4.3138,-4.3185,-4.3741,-4.3428,-4.329,-4.329,-4.329,-4.329,-4.329,-4.329,-4.329,-4.329,-4.329,-4.329,-4.329,-4.329,-4.329,-4.329,-4.329,-4.329,-4.315,-4.253,-4.2381,-4.2186,-4.1527,-4.0846,-4.0382,-4.0382,-3.9843,-3.9388,-3.9388,-3.9388,-3.9388,-3.9388,-3.9388,-3.9388,-3.9388,-3.9388,-3.9388,-3.9388,-3.9388,-3.9388,-3.9388,-3.9373,-3.9373,-3.9373,-3.9373,-3.9394,-3.9394,-3.9394,-3.9394,-3.9394,-3.9394,-3.9394,-3.9394,-3.9394,-3.9373,-3.0407,-3.1283,-3.1657,-3.0926,-2.9421,-2.78,-2.6569,-2.497,-2.3462,-2.2505,-2.2039,-2.1774,-2.1638,-2.1724,-2.2524,-2.4662,0.0,0.0,0.0,0.0,0.0,-3.437,-3.7202,-3.9148,0.0,0.0,-4.0096,-4.0096,-4.0984,-4.1762,-4.2269,-4.325,-4.4028,-4.4581,-4.4615,-4.4615,-4.4615,-4.4615,-4.3989,-4.2831,-4.3139,-4.2986,-4.2426,-4.3017,-4.3621,-4.4196,-4.4485,-4.4615,-4.4615,-4.4615,-4.4253,-4.368,-4.3396,-4.2989,-4.2519,-4.2151,-4.2379,-4.2841,-4.2698,-4.2955,-4.329,-4.329,-4.329,-4.329,-4.329,-4.329,-4.329,-4.329,-4.329,-4.329,-4.329,-4.329,-4.329,-4.329,-4.329,-4.3245,-4.3075,-4.2671,-4.2336,-4.2126,-4.1557,-4.107,-4.107,-4.0531,-4.0083,-4.0083,-3.9709,-3.9388,-3.9388,-3.9388,-3.9388,-3.9388,-3.9388,-3.9388,-3.9388,-3.9388,-3.9388,-3.9388,-3.9388,-3.9388,-3.9388,-3.9388,-3.9388,-3.9388,-3.9388,-3.9388,-3.9388,-3.9388,-3.9388,-3.9388,-3.9388,-3.9388,0.0,-2.9102,-2.9501,-2.8738,-2.7613,-2.6419,-2.5406,-2.4254,-2.3201,-2.2457,-2.1938,-2.1545,-2.1404,-2.1509,-2.2175,-2.3898,-2.513,0.0,0.0,0.0,0.0,-3.5154,0.0,0.0,0.0,-3.9943,-4.0096,-4.0096,-4.0781,-4.1407,-4.1863,-4.2591,-4.3335,-4.4113,-4.4445,-4.4615,-4.4615,-4.4253,-4.3545,-4.2489,-4.2724,-4.2707,-4.252,-4.3047,-4.3785,-4.4615,-4.4615,-4.4615,0.0,-4.4253,-4.3785,-4.3229,-4.2583,-4.1911,-4.1303,-4.1244,-4.1395,-4.1692,-4.1946,-4.2252,-4.2626,-4.288,-4.3135,-4.329,-4.329,-4.329,-4.329,-4.329,-4.329,-4.329,-4.329,-4.329,-4.329,-4.329,-4.329,-4.329,-4.329,-4.3015,-4.2731,-4.2731,-4.2207,-4.1796,-4.1796,-4.1205,-4.0681,-4.0442,-4.0053,-3.9709,-3.9418,-3.9388,-3.9388,-3.9388,-3.9388,-3.9388,-3.9388,-3.9388,-3.9388,-3.9388,-3.9388,-3.9388,-3.9388,-3.9388,-3.9388,-3.9388,-3.9388,-3.9388,-3.9388,-3.9388,-3.9388,-3.9388,-3.9388,-3.9388,0.0,-2.7975,-2.8415,-2.76,-2.6891,-2.602,-2.4659,-2.3804,0.0,-2.2398,-2.1892,-2.1482,-2.1135,-2.1354,-2.1541,-2.1392,0.0,0.0,0.0,-3.0091,0.0,0.0,-3.7635,0.0,-3.9005,-3.9706,-4.0096,-4.0096,-4.073,-4.1136,-4.1204,-4.1847,-4.2557,-4.3291,-4.4096,-4.4519,-4.4514,-4.368,-4.3276,-4.3216,-4.2458,-4.252,-4.3306,-4.3366,-4.3844,0.0,-4.4615,-4.457,-4.444,-4.3621,-4.3246,-4.2939,-4.133,-4.0656,-4.0562,-4.0396,-4.0367,-4.0487,-4.11,-4.1339,-4.1527,-4.2186,-4.2776,-4.323,-4.329,-4.329,-4.329,-4.329,-4.329,-4.329,-4.329,-4.329,-4.329,-4.329,-4.329,-4.329,-4.329,-4.329,-4.329,-4.329,-4.2851,-4.247,-4.247,-4.1931,-4.125,-4.0636,-4.0502,-4.0232,-3.9574,-3.9493,-3.9529,-3.9388,-3.9454,-3.9433,-3.9388,-3.9388,-3.9388,-3.9388,-3.9388,-3.9388,-3.9388,-3.9388,-3.9388,-3.9388,-3.9388,-3.9388,-3.9388,-3.9388,-3.9388,-3.9388,-3.9388,-3.9388,-2.3401,0.0,-2.4527,-2.3773,-2.3462,-2.3235,0.0,-2.2683,-2.2406,-2.1865,0.0,-2.1657,-2.181,-2.1711,-2.2322,-2.4542,0.0,0.0,-3.0074,0.0,0.0,-3.9029,-3.9486,-3.9656,-3.9825,-3.9994,-4.0096,-4.0096,-4.0265,-4.0595,-4.117,-4.1373,-4.1796,-4.254,-4.3301,-4.3665,-4.3621,-4.3396,-4.2986,-4.2316,-4.2785,-4.3108,-4.3306,-4.4006,-4.4412,-4.4615,-4.4615,-4.4224,-4.3591,-4.3366,-4.252,-4.128,-4.0844,-4.0274,-3.9696,-3.9646,-3.9963,-4.0427,-4.0576,-4.0965,-4.1527,-4.2186,-4.2515,-4.2686,-4.314,-4.329,-4.329,-4.329,-4.329,-4.329,-4.329,-4.329,-4.329,-4.329,-4.329,-4.329,-4.329,-4.329,-4.329,-4.329,-4.317,-4.3105,-4.3105,-4.2566,-4.2111,-4.1961,-4.1512,-4.0905,-4.0247,-4.0606,-4.0531,-3.9493,-3.9873,-3.9963,-3.9454,-3.9388,-3.9388,-3.9388,-3.9388,-3.9388,-3.9388,-3.9388,-3.9388,-3.9388,-3.9388,-3.9388,-3.9388,-3.9388,-3.9388,-3.9388,-3.9388,-3.9388,-2.2296,-2.2844,-2.33,-2.2909,-2.2796,-2.2796,-2.2796,0.0,0.0,0.0,0.0,0.0,0.0,0.0,0.0,0.0,-2.6335,0.0,0.0,0.0,-3.8014,-3.9876,-4.0096,-4.0096,0.0,-4.0096,-4.0096,-4.0096,-4.0096,-4.0282,-4.0663,-4.0696,-4.0888,-4.1285,-4.1676,-4.2356,-4.3339,-4.332,-4.3078,-4.2583,-4.3078,-4.3306,-4.3336,-4.4196,-4.4384,-4.4006,-4.4006,-4.3515,-4.2676,-4.2252,-4.1543,-4.0656,-4.0274,-3.9829,-3.9388,-3.9388,-3.9649,-3.9948,-3.9948,-4.0382,-4.0995,-4.1339,-4.1916,-4.247,-4.2776,-4.309,-4.329,-4.329,-4.329,-4.329,-4.329,-4.329,-4.329,-4.329,-4.329,-4.329,-4.329,-4.329,-4.329,-4.329,-4.329,-4.329,-4.329,-4.3045,-4.2701,-4.244,-4.2096,-4.1632,-4.0935,-4.116,-4.1115,-4.0397,-4.0367,-4.0247,-3.9903,-3.9589,-3.9388,-3.9388,-3.9388,-3.9388,-3.9388,-3.9388,-3.9388,-3.9388,-3.9388,-3.9388,-3.9388,-3.9388,-3.9388,-3.9388,-3.9388,-3.9388,-2.257,-2.3087,-2.3511,-2.3283,-2.3314,-2.338,-2.3266,0.0,0.0,0.0,0.0,0.0,0.0,-2.2005,0.0,0.0,0.0,0.0,-3.4167,-3.6705,-3.8565,-3.9943,-4.0096,0.0,-4.0096,-4.0096,-4.0096,-4.0096,-4.0096,-4.0096,-4.0096,-4.0096,-4.0042,-3.993,-4.0034,-4.0945,-4.2702,-4.2726,-4.2872,-4.3108,-4.3108,-4.3246,-4.3532,-4.4253,-4.4121,-4.3306,0.0,0.0,-4.1723,-4.1013,-4.0622,-4.0432,-3.9702,-3.9388,-3.9388,-3.9388,-3.9388,-3.9388,-3.9388,-3.9783,-4.0262,-4.0367,-4.1145,-4.2141,-4.2336,-4.2746,-4.317,-4.326,-4.329,-4.329,-4.329,-4.329,-4.329,-4.329,-4.329,-4.329,-4.329,-4.329,-4.329,-4.329,-4.329,-4.329,-4.329,-4.329,-4.315,-4.262,-4.2545,-4.2306,-4.1647,-4.1609,-4.1609,-4.1399,-4.0965,-4.0651,-4.0561,-4.0038,-3.9723,-3.9723,-3.9493,-3.9388,-3.9388,-3.9388,-3.9388,-3.9388,-3.9388,-3.9388,-3.9388,-3.9388,-3.9388,-3.9388,-3.9388,-3.9433,-2.3821,-2.4247,-2.4018,-2.2779,-2.2926,-2.3235,-2.2618,0.0,0.0,0.0,0.0,0.0,0.0,-2.3831,-2.4806,0.0,0.0,-3.3322,0.0,0.0,-3.914,-3.9994,0.0,-4.0096,-4.0096,-4.0096,-4.0096,-4.0096,-4.0096,-4.0096,-4.0096,-4.0096,-3.9781,-3.91,-3.9754,-3.9931,-3.9593,-4.004,-4.0893,-4.2189,-4.2189,-4.2953,-4.4412,-4.4542,-4.4121,-4.3306,0.0,-4.2395,-4.0878,-4.0758,-4.0274,-3.9574,-3.9445,-3.9388,-3.9388,-3.9388,-3.9388,-3.9388,-3.9388,-3.9484,-3.9664,-4.0217,-4.0531,-4.0905,-4.2066,-4.247,-4.2626,-4.314,-4.329,-4.329,-4.329,-4.329,-4.329,-4.329,-4.329,-4.329,-4.329,-4.329,-4.329,-4.329,-4.329,-4.329,-4.329,-4.329,-4.326,-4.317,-4.314,-4.2955,-4.2336,-4.2686,-4.2611,-4.1542,-4.1826,-4.1871,-4.128,-4.113,-4.107,-4.107,-4.0038,-3.9388,-3.9388,-3.9388,-3.9388,-3.9388,-3.9388,-3.9388,-3.9388,-3.9388,-3.9388,-3.9388,-3.9388,-3.9709,-2.3136,-2.3608,-2.3751,-2.3058,-2.3757,-2.4498,-2.4162,0.0,0.0,0.0,0.0,0.0,0.0,0.0,-2.704,-3.0306,0.0,-3.574,-3.7178,-3.8311,-3.9259,0.0,0.0,-4.0096,-4.0096,-4.0096,-4.0096,-4.0096,-4.0096,-4.0096,-4.0096,-3.9688,-3.9102,-3.833,-3.8239,-3.8016,-3.7606,-3.8225,-3.9771,-4.2183,-4.2528,-4.335,-4.457,-4.4093,-4.3426,-4.2583,0.0,-4.1147,-3.999,-3.999,-3.9773,-3.9388,-3.9388,-3.9388,-3.9388,-3.9388,-3.9388,-3.9388,-3.9388,-3.9388,-3.9433,-3.9768,-4.0113,-4.0576,-4.1572,-4.2111,-4.2545,-4.315,-4.329,-4.329,-4.329,-4.329,-4.329,-4.329,-4.329,-4.329,-4.329,-4.329,-4.329,-4.329,-4.329,-4.329,-4.329,-4.329,-4.329,-4.329,-4.329,-4.3185,-4.2925,-4.315,-4.3065,-4.2491,-4.2387,-4.2276,-4.1976,-4.1632,-4.1422,-4.1422,-4.0816,-4.0322,-3.9963,-3.9948,-3.9783,-3.9388,-3.9388,-3.9388,-3.9388,-3.9388,-3.9604,-3.9948,-3.9948,-4.0307,-2.2731,-2.3095,-2.3515,-2.4048,0.0,-2.5399,-2.5554,-2.5302,0.0,0.0,0.0,0.0,0.0,-2.7428,0.0,-3.3326,-3.5825,-3.7499,-3.8075,-3.8785,-3.9486,-4.0028,-4.0096,-4.0096,-4.0096,-4.0096,-4.0096,-4.0096,-4.0096,-4.0096,-4.0096,-3.9342,-3.8553,-3.7806,-3.7024,-3.6583,-3.6537,-3.7227,-3.898,-4.1747,-4.244,-4.3323,-4.4299,-4.3635,-4.2837,-4.1965,-4.128,-4.0413,-3.9388,-3.9388,-3.9388,-3.9388,-3.9388,-3.9388,-3.9388,-3.9388,-3.9388,-3.9388,-3.9388,-3.9388,-3.9388,-3.9388,-3.9768,-4.0292,-4.095,-4.1542,-4.2111,-4.288,-4.3105,-4.3135,-4.3245,-4.329,-4.325,-4.2981,-4.3115,-4.325,-4.2941,-4.3115,-4.329,-4.329,-4.329,-4.329,-4.329,-4.329,-4.329,-4.329,-4.329,-4.329,-4.329,-4.329,-4.329,-4.329,-4.2895,-4.262,-4.262,-4.2132,-4.1833,-4.1833,-4.1549,-4.116,-4.0651,-4.0621,-4.0382,-3.9888,-3.9873,-3.9873,-3.9873,-3.9873,-4.0142,-4.0621,-4.0621,-4.098,-2.3969,-2.3884,-2.3898,-2.5949,-2.5512,0.0,-2.5443,-2.6082,0.0,-2.7383,0.0,0.0,0.0,-3.1033,-3.3499,-3.5177,-3.7364,-3.8853,-3.8903,0.0,-4.0045,-4.0096,-4.0096,-4.0096,-4.0096,-4.0096,-4.0096,-4.0096,-4.0096,-4.0096,-4.0096,-3.9342,-3.8553,-3.7806,-3.7024,-3.66,-3.66,-3.725,-3.845,-4.0071,-4.0838,-4.1969,-4.3477,-4.3405,-4.2883,-4.1997,-4.1933,-4.0961,-3.9388,-3.9388,-3.9388,-3.9388,-3.9388,-3.9388,-3.9388,-3.9388,-3.9388,-3.9388,-3.9388,-3.9388,-3.9388,-3.9388,-3.9418,-3.9619,-4.0277,-4.0502,-4.0801,-4.2111,-4.247,-4.2605,-4.3125,-4.329,-4.3036,-4.1988,-4.2548,-4.3036,-4.1932,-4.2548,-4.329,-4.329,-4.329,-4.329,-4.329,-4.329,-4.329,-4.329,-4.329,-4.329,-4.329,-4.329,-4.329,-4.329,-4.3245,-4.323,-4.323,-4.3185,-4.3155,-4.3155,-4.2058,-4.1392,-4.1347,-4.1347,-4.1332,-4.125,-4.1272,-4.1272,-4.1272,-4.1272,-4.1265,-4.1347,-4.1347,-4.1707,-2.2867,-2.3255,-2.3697,-2.5004,-2.595,0.0,0.0,-2.7943,-2.8468,-2.9668,-2.9922,0.0,0.0,0.0,-3.5842,-3.6874,-3.8514,-3.969,-3.969,-3.9926,-4.0096,-4.0096,-4.0096,-3.9901,-3.9394,-3.9808,-3.9901,-3.9394,-3.9808,-4.0096,-4.0096,-3.8897,-3.8092,-3.7822,-3.6554,-3.6149,-3.6615,-3.7351,-3.8259,-3.9296,-4.0439,-4.1587,-4.2682,-4.1683,-4.1037,-4.0639,-4.002,-3.9386,-3.8811,-3.9245,-3.9388,-3.9388,-3.9388,-3.9388,-3.9388,-3.9388,-3.9388,-3.9388,-3.9388,-3.9388,-3.9388,-3.9388,-3.9388,-3.9544,-4.0202,-4.0397,-4.0591,-4.1527,-4.2081,-4.2545,-4.3125,-4.329,-4.3036,-4.185,-4.2467,-4.2981,-4.185,-4.2508,-4.329,-4.329,-4.329,-4.329,-4.329,-4.329,-4.329,-4.329,-4.329,-4.329,-4.329,-4.329,-4.329,-4.329,-4.329,-4.329,-4.329,-4.329,-4.329,-4.329,-4.2826,-4.2417,-4.2051,-4.2036,-4.1841,-4.1384,-4.1422,-4.1422,-4.1422,-4.1422,-4.1632,-4.2036,-4.2036,-4.2342,-2.1874,-2.2488,-2.3289,-2.4256,0.0,0.0,-2.9293,-2.9873,-3.0533,-3.2239,-3.2391,0.0,-3.388,0.0,0.0,0.0,-3.914,-4.0096,-4.0096,-4.0096,-4.002,-3.9756,-3.9731,-3.9489,-3.8962,-3.9394,-3.961,-3.9315,-3.9782,-4.0096,-4.0096,-3.864,-3.7793,-3.7793,-3.6538,-3.6212,-3.6964,-3.7761,-3.8541,-3.9289,-4.0248,-4.1027,-4.1567,-4.0451,-3.9798,-3.9486,-3.8793,-3.834,-3.8138,-3.8811,-3.923,-3.9388,-3.9388,-3.9388,-3.9388,-3.9388,-3.9388,-3.9388,-3.9388,-3.9388,-3.9388,-3.9388,-3.9388,-3.9514,-3.9963,-4.0083,-4.0232,-4.0891,-4.1384,-4.1938,-4.2806,-4.314,-4.29,-4.1435,-4.2208,-4.2981,-4.185,-4.2508,-4.329,-4.329,-4.329,-4.329,-4.329,-4.329,-4.329,-4.329,-4.329,-4.329,-4.329,-4.329,-4.329,-4.329,-4.329,-4.329,-4.329,-4.329,-4.329,-4.329,-4.329,-4.3135,-4.2686,-4.2671,-4.2462,-4.1998,-4.1998,-4.1998,-4.1998,-4.1998,-4.2237,-4.2671,-4.2671,-4.291,-2.1392,-2.1742,-2.2651,0.0,0.0,0.0,-3.0362,-3.1785,-3.2936,-3.5143,-3.5047,-3.4759,-3.5481,-3.5633,0.0,-3.7669,-3.914,-4.0096,-4.0096,-4.0096,-3.9782,-3.8989,-3.8881,-3.8881,-3.8881,-3.8908,-3.9236,-4.002,-4.0113,-4.0096,-4.0096,-3.864,-3.7793,-3.7793,-3.7024,-3.6994,-3.7777,-3.8525,-3.9315,-4.0096,-4.0096,-4.0091,-4.0084,-4.0084,-3.957,-3.8662,-3.8677,-3.8185,-3.7449,-3.8123,-3.8796,-3.9373,-3.9388,-3.9388,-3.9388,-3.9388,-3.9388,-3.9388,-3.9388,-3.9388,-3.9388,-3.9388,-3.9388,-3.9388,-3.9388,-3.9388,-3.9559,-4.0202,-4.0397,-4.0696,-4.1998,-4.2821,-4.2725,-4.0447,-4.1657,-4.2981,-4.185,-4.2508,-4.329,-4.329,-4.329,-4.329,-4.329,-4.329,-4.329,-4.329,-4.329,-4.329,-4.329,-4.329,-4.329,-4.329,-4.329,-4.329,-4.329,-4.329,-4.329,-4.329,-4.329,-4.329,-4.329,-4.329,-4.329,-4.329,-4.329,-4.329,-4.329,-4.329,-4.329,-4.329,-4.329,-4.329,-2.1253,-2.1883,0.0,-2.4818,0.0,0.0,0.0,-3.2141,0.0,0.0,-3.6671,-3.6958,-3.7195,-3.7652,0.0,-3.8599,-3.9486,-4.0096,-4.0096,-3.961,-3.9166,-3.8935,-3.8442,-3.8121,-3.8121,-3.8608,-3.8989,-3.9236,-3.9782,-4.0096,-4.0096,-3.864,-3.7793,-3.7793,-3.7024,-3.6994,-3.7777,-3.8525,-3.9315,-4.0096,-3.9516,-3.9255,-3.9237,-3.8727,-3.8016,-3.7219,-3.7184,-3.7014,-3.6851,-3.7943,-3.8512,-3.8736,-3.923,-3.9388,-3.9388,-3.9388,-3.9388,-3.9388,-3.9388,-3.9388,-3.9388,-3.9388,-3.9388,-3.9388,-3.9388,-3.9388,-3.9454,-3.9649,-4.0053,-4.0323,-3.9891,-4.0879,-4.1813,-4.1219,-4.2208,-4.2981,-4.185,-4.2508,-4.329,-4.329,-4.329,-4.329,-4.329,-4.329,-4.329,-4.329,-4.329,-4.329,-4.329,-4.329,-4.329,-4.329,-4.329,-4.329,-4.329,-4.329,-4.329,-4.329,-4.329,-4.329,-4.329,-4.329,-4.329,-4.329,-4.329,-4.329,-4.329,-4.329,-4.329,-4.329,-4.329,-4.329,-2.1339,-2.2004,0.0,-2.5163,-2.7306,-2.9669,-3.2512,0.0,0.0,0.0,0.0,-3.7635,-3.8227,-3.8464,0.0,-3.8937,-3.9622,-3.9995,-3.9662,-3.9209,-3.8674,-3.8044,-3.7876,-3.7793,-3.7793,-3.8469,-3.9016,-3.9342,-3.985,-4.0096,-4.0096,-3.8914,-3.8246,-3.8246,-3.7774,-3.7745,-3.8218,-3.9005,-3.961,-4.0096,-3.9289,-3.8745,-3.8442,-3.7674,-3.6905,-3.6164,-3.6122,-3.6237,-3.6552,-3.7315,-3.7778,-3.8063,-3.8751,-3.9005,-3.905,-3.932,-3.9388,-3.9388,-3.9388,-3.9388,-3.9388,-3.9388,-3.9388,-3.9388,-3.9388,-3.9388,-3.9388,-3.9388,-3.9709,-3.9906,-3.9478,-4.0201,-4.1029,-4.1169,-4.2085,-4.2803,-4.2353,-4.2805,-4.329,-4.329,-4.329,-4.329,-4.329,-4.329,-4.329,-4.329,-4.329,-4.329,-4.329,-4.329,-4.329,-4.329,-4.329,-4.329,-4.329,-4.329,-4.329,-4.329,-4.329,-4.329,-4.329,-4.329,-4.329,-4.329,-4.329,-4.329,-4.329,-4.329,-4.329,-4.329,-4.329,-4.329,-2.1495,0.0,0.0,-2.5358,-2.7259,0.0,-3.3671,-3.5673,-3.6891,-3.7652,0.0,-3.7422,-3.8734,-3.8514,-3.8328,-3.8988,-3.9673,-3.9808,-3.9016,-3.8854,-3.8286,-3.6873,-3.7308,-3.7764,-3.7892,-3.8497,-3.9236,-4.0045,-4.0096,-4.0096,-4.0096,-3.9342,-3.8908,-3.8908,-3.8908,-3.8881,-3.8799,-3.9584,-3.9969,-3.9876,-3.9086,-3.8358,-3.7661,-3.6934,-3.6196,-3.5504,-3.5504,-3.5848,-3.6402,-3.6462,-3.6821,-3.7389,-3.8048,-3.8347,-3.8467,-3.9095,-3.9364,-3.9388,-3.9388,-3.9388,-3.9388,-3.9388,-3.9388,-3.9388,-3.9388,-3.9388,-3.9388,-3.9388,-3.9388,-3.9559,-4.0157,-4.0307,-4.0345,-4.0539,-4.1504,-4.256,-4.312,-4.3245,-4.329,-4.329,-4.329,-4.329,-4.329,-4.329,-4.329,-4.329,-4.329,-4.329,-4.329,-4.329,-4.329,-4.329,-4.329,-4.329,-4.329,-4.329,-4.329,-4.329,-4.329,-4.329,-4.329,-4.329,-4.329,-4.329,-4.329,-4.329,-4.329,-4.329,-4.329,-4.329,-4.329,-4.329,-2.1265,-2.2078,0.0,0.0,-2.9152,-3.2238,-3.4779,-3.5639,-3.6096,-3.688,-3.7845,-3.8616,-3.8937,-3.9326,-3.969,-3.9842,-3.9994,-3.9808,-3.9016,-3.8386,-3.7921,-3.7573,-3.7144,-3.7336,-3.8553,-3.8799,-3.9236,-4.0045,-4.0096,-4.0096,-4.0096,-3.9342,-3.8908,-3.8908,-3.8908,-3.8635,-3.8035,-3.8772,-3.887,-3.829,-3.7483,-3.7008,-3.6843,-3.6661,-3.6196,-3.5504,-3.5504,-3.5594,-3.5759,-3.6267,-3.6567,-3.6746,-3.7375,-3.7943,-3.8407,-3.8556,-3.896,-3.9388,-3.9388,-3.9388,-3.9388,-3.9388,-3.9388,-3.9388,-3.9388,-3.9388,-3.9388,-3.9388,-3.9388,-3.9418,-3.9589,-3.9634,-3.9755,-4.0307,-4.1441,-4.244,-4.259,-4.297,-4.329,-4.329,-4.329,-4.329,-4.329,-4.329,-4.329,-4.329,-4.329,-4.329,-4.329,-4.329,-4.329,-4.329,-4.329,-4.329,-4.329,-4.329,-4.329,-4.329,-4.329,-4.329,-4.329,-4.329,-4.329,-4.329,-4.329,-4.329,-4.329,-4.329,-4.329,-4.329,-4.329,-4.329,0.0,0.0,0.0,-2.6951,0.0,-3.2046,-3.3764,-3.4645,-3.5238,-3.5663,-3.6922,-3.8142,-3.8853,-3.9292,-3.9706,-4.0045,-3.9782,-3.9262,-3.8469,-3.8035,-3.7661,-3.7263,-3.7512,-3.8015,-3.8827,-3.9262,-3.9636,-4.007,-4.0096,-4.0096,-4.0096,-3.9688,-3.9463,-3.9463,-3.9463,-3.9289,-3.8914,-3.8897,-3.8718,-3.8302,-3.7158,-3.6415,-3.6086,-3.6086,-3.5863,-3.5504,-3.5504,-3.5504,-3.5534,-3.5878,-3.6013,-3.6073,-3.6716,-3.718,-3.7554,-3.8167,-3.8616,-3.8975,-3.9305,-3.9388,-3.9388,-3.9388,-3.9388,-3.9388,-3.9388,-3.9388,-3.9388,-3.9388,-3.9388,-3.9388,-3.9388,-3.9388,-3.9514,-3.9843,-4.0935,-4.2021,-4.2336,-4.2865,-4.329,-4.329,-4.329,-4.329,-4.329,-4.329,-4.329,-4.329,-4.329,-4.329,-4.329,-4.329,-4.329,-4.329,-4.329,-4.329,-4.329,-4.329,-4.329,-4.329,-4.329,-4.329,-4.329,-4.329,-4.329,-4.329,-4.329,-4.329,-4.329,-4.329,-4.329,-4.329,-4.329,-4.329,0.0,0.0,-2.4313,-2.7751,-2.9524,0.0,-3.2276,-3.3462,-3.4331,-3.4559,-3.5787,-3.7168,-3.8403,-3.8717,-3.8963,-3.9438,-3.8959,-3.8281,-3.7527,-3.7543,-3.743,-3.6858,-3.8044,-3.8962,-3.9086,-3.9714,-4.0096,-4.0096,-4.0096,-4.0096,-4.0096,-4.0096,-4.0096,-4.0096,-3.9969,-3.985,-3.9705,-3.8908,-3.8453,-3.8286,-3.7024,-3.6086,-3.5504,-3.5504,-3.5504,-3.5504,-3.5504,-3.5504,-3.5504,-3.5504,-3.5504,-3.5564,-3.6103,-3.6387,-3.6611,-3.7674,-3.8123,-3.8317,-3.9005,-3.9245,-3.926,-3.9343,-3.9388,-3.9388,-3.9388,-3.9388,-3.9388,-3.9388,-3.9388,-3.9388,-3.9388,-3.9388,-3.9388,-3.9388,-4.0337,-4.1384,-4.2096,-4.2791,-4.329,-4.329,-4.329,-4.329,-4.329,-4.329,-4.329,-4.329,-4.329,-4.329,-4.329,-4.329,-4.329,-4.329,-4.329,-4.329,-4.329,-4.329,-4.329,-4.329,-4.329,-4.329,-4.329,-4.329,-4.329,-4.329,-4.329,-4.329,-4.329,-4.329,-4.329,-4.329,-4.329,-4.329,0.0,0.0,-2.4953,0.0,-2.9166,-3.0241,0.0,0.0,-3.3193,0.0,-3.5787,-3.6863,-3.7066,-3.7618,-3.7872,-3.731,-3.7158,-3.6808,-3.6023,-3.6492,-3.7102,-3.7581,-3.8386,-3.9166,-3.9859,-4.0045,-4.0096,-4.0096,-4.0096,-4.0096,-4.0096,-4.0096,-4.0096,-4.0096,-3.9437,-3.8745,-3.8092,-3.7322,-3.66,-3.5958,-3.5765,-3.5587,-3.5504,-3.5504,-3.5504,-3.5504,-3.5504,-3.5504,-3.5504,-3.5504,-3.5504,-3.5519,-3.5609,-3.5983,-3.6507,-3.6671,-3.7075,-3.7629,-3.8302,-3.8527,-3.8631,-3.923,-3.9388,-3.9388,-3.9388,-3.9388,-3.9388,-3.9388,-3.9388,-3.9388,-3.9388,-3.9388,-3.9388,-3.9388,-3.9993,-4.0711,-4.1407,-4.2476,-4.329,-4.329,-4.329,-4.329,-4.329,-4.329,-4.329,-4.329,-4.329,-4.329,-4.329,-4.329,-4.329,-4.329,-4.329,-4.329,-4.329,-4.329,-4.329,-4.329,-4.329,-4.329,-4.329,-4.329,-4.329,-4.329,-4.329,-4.329,-4.329,-4.329,-4.329,-4.329,-4.329,-4.329,-2.015,-2.2415,-2.49,0.0,-2.7966,-2.8828,-3.0073,0.0,-3.2771,-3.3348,-3.4878,-3.6265,-3.6728,-3.7083,-3.7175,-3.6862,-3.645,-3.6061,-3.5719,-3.5948,-3.6435,-3.7097,-3.8216,-3.9084,-3.9437,-3.9859,-4.0096,-4.0096,-4.0096,-4.0096,-4.0096,-4.0096,-3.9901,-3.9437,-3.9086,-3.8553,-3.7822,-3.6994,-3.6228,-3.5504,-3.5504,-3.5504,-3.5504,-3.5504,-3.5504,-3.5504,-3.5504,-3.5504,-3.5504,-3.5504,-3.5504,-3.5504,-3.5504,-3.5684,-3.5983,-3.6357,-3.6656,-3.703,-3.8048,-3.8392,-3.8497,-3.9185,-3.9388,-3.9388,-3.9388,-3.9388,-3.9388,-3.9388,-3.9388,-3.9388,-3.9388,-3.9388,-3.9388,-3.9388,-3.9918,-4.0576,-4.1272,-4.2132,-4.2895,-4.3215,-4.329,-4.329,-4.329,-4.329,-4.329,-4.329,-4.329,-4.329,-4.329,-4.329,-4.329,-4.329,-4.329,-4.329,-4.329,-4.329,-4.329,-4.329,-4.329,-4.329,-4.329,-4.329,-4.329,-4.329,-4.329,-4.329,-4.329,-4.329,-4.329,-4.329,-4.329,-4.329,0.0,0.0,-2.3626,-2.5401,-2.6477,-2.7315,0.0,0.0,-3.1779,0.0,-3.3807,-3.5128,-3.6085,-3.6242,-3.6117,-3.5803,-3.5257,-3.4959,-3.5133,-3.5329,-3.5771,-3.6605,-3.7895,-3.8785,-3.8971,-3.9503,-3.991,-4.0096,-4.0096,-4.0096,-4.0096,-3.9901,-3.9516,-3.8908,-3.8509,-3.806,-3.7515,-3.6722,-3.6023,-3.5504,-3.5504,-3.5504,-3.5504,-3.5504,-3.5504,-3.5504,-3.5504,-3.5504,-3.5504,-3.5504,-3.5504,-3.5504,-3.5504,-3.5504,-3.5564,-3.6058,-3.6237,-3.6402,-3.7524,-3.7913,-3.8013,-3.857,-3.8924,-3.9113,-3.9009,-3.9177,-3.9388,-3.9388,-3.9388,-3.9388,-3.9388,-3.9388,-3.9388,-3.9388,-3.9918,-4.0621,-4.1444,-4.2186,-4.2746,-4.32,-4.329,-4.329,-4.329,-4.329,-4.329,-4.329,-4.329,-4.329,-4.329,-4.329,-4.329,-4.329,-4.329,-4.329,-4.329,-4.329,-4.329,-4.329,-4.329,-4.329,-4.329,-4.329,-4.329,-4.329,-4.329,-4.329,-4.329,-4.329,-4.329,-4.329,-4.329,-4.329,0.0,-1.9876,0.0,-2.3122,0.0,0.0,0.0,0.0,0.0,-3.2072,-3.2698,-3.3161,-3.4462,-3.4714,-3.4301,-3.3016,-3.2804,-3.2967,-3.3544,-3.4257,-3.5249,-3.654,-3.7443,-3.8227,-3.892,-3.9022,-3.9368,-4.0045,-4.0096,-4.0096,-4.0096,-3.9368,-3.8935,-3.8908,-3.7467,-3.6691,-3.6661,-3.5926,-3.5537,-3.5504,-3.5504,-3.5504,-3.5504,-3.5504,-3.5504,-3.5504,-3.5504,-3.5504,-3.5504,-3.5504,-3.5504,-3.5504,-3.5504,-3.5504,-3.5504,-3.5549,-3.5549,-3.5654,-3.6357,-3.6582,-3.6641,-3.6845,-3.7629,-3.8365,-3.7993,-3.8583,-3.9388,-3.9388,-3.9388,-3.9388,-3.9388,-3.9388,-3.9388,-3.9388,-3.9918,-4.0756,-4.2066,-4.2821,-4.3245,-4.329,-4.329,-4.329,-4.329,-4.329,-4.329,-4.329,-4.329,-4.329,-4.329,-4.329,-4.329,-4.329,-4.329,-4.329,-4.329,-4.329,-4.329,-4.329,-4.329,-4.329,-4.329,-4.329,-4.329,-4.329,-4.329,-4.329,-4.329,-4.329,-4.329,-4.329,-4.329,-4.329,0.0,0.0,0.0,-2.2039,-2.3355,-2.4552,-2.548,-2.7494,-2.9454,-3.0414,-3.2328,-3.3697,-3.3324,-3.3974,-3.4161,-3.2815,-3.296,-3.3314,-3.3525,-3.4182,-3.4972,-3.589,-3.6717,-3.7297,-3.7574,-3.8007,-3.8599,-3.9351,-3.9402,-3.9387,-3.9325,-3.9059,-3.8453,-3.7467,-3.6904,-3.6353,-3.5894,-3.5651,-3.5504,-3.5504,-3.5504,-3.5504,-3.5504,-3.5504,-3.5504,-3.5504,-3.5504,-3.5504,-3.5504,-3.5504,-3.5504,-3.5504,-3.5504,-3.5504,-3.5504,-3.5504,-3.5504,-3.5609,-3.6252,-3.6492,-3.6653,-3.7558,-3.808,-3.8441,-3.8736,-3.9104,-3.9388,-3.9388,-3.9388,-3.9388,-3.9388,-3.9388,-3.9493,-3.9948,-4.0546,-4.1265,-4.2201,-4.2865,-4.329,-4.329,-4.329,-4.329,-4.329,-4.329,-4.329,-4.329,-4.329,-4.329,-4.329,-4.329,-4.329,-4.329,-4.329,-4.329,-4.329,-4.329,-4.329,-4.329,-4.329,-4.329,-4.329,-4.329,-4.329,-4.329,-4.329,-4.329,-4.329,-4.329,-4.329,-4.329,-4.329,-4.329,-1.7465,0.0,0.0,0.0,0.0,-2.3205,-2.462,0.0,-2.8858,-2.939,-3.1611,-3.3195,-3.2313,-3.3307,-3.3786,-3.2431,-3.2799,-3.3339,-3.3572,-3.4186,-3.4847,-3.5515,-3.6079,-3.6485,-3.6778,-3.7229,-3.7838,-3.8582,-3.8411,0.0,-3.8513,-3.8067,-3.7316,-3.6275,-3.6228,-3.6006,-3.5504,-3.5504,-3.5504,-3.5504,-3.5504,-3.5504,-3.5504,-3.5504,-3.5504,-3.5504,-3.5504,-3.5504,-3.5504,-3.5504,-3.5504,-3.5504,-3.5504,-3.5504,-3.5504,-3.5504,-3.5504,-3.5532,-3.5622,-3.5885,-3.6257,-3.6852,-3.7511,-3.8142,-3.8713,-3.9104,-3.9388,-3.9388,-3.9388,-3.9388,-3.9388,-3.9388,-3.9649,-4.0516,-4.107,-4.1662,-4.2491,-4.303,-4.329,-4.329,-4.329,-4.329,-4.329,-4.329,-4.329,-4.329,-4.329,-4.329,-4.329,-4.329,-4.329,-4.329,-4.329,-4.329,-4.329,-4.329,-4.329,-4.329,-4.329,-4.329,-4.329,-4.329,-4.329,-4.329,-4.329,-4.329,-4.329,-4.329,-4.329,-4.329,-4.329,-4.329,0.0,0.0,0.0,0.0,0.0,0.0,-2.48,0.0,-2.754,-2.9117,-3.0451,-3.1358,-3.1453,-3.2535,-3.3007,-3.1671,-3.2145,-3.2895,-3.3531,-3.4211,-3.4871,-3.5515,-3.5577,-3.5887,-3.6671,-3.6715,-3.6996,-3.7756,-3.7145,-3.703,-3.7666,-3.6349,-3.5539,-3.5477,-3.5489,-3.5504,-3.5504,-3.5504,-3.5504,-3.5504,-3.5504,-3.5504,-3.5504,-3.5504,-3.5504,-3.5504,-3.5504,-3.5504,-3.5504,-3.5504,-3.5504,-3.5504,-3.5504,-3.5504,-3.5504,-3.5504,-3.5504,-3.5359,-3.4394,-3.4691,-3.5388,-3.4727,-3.5827,-3.7471,-3.7752,-3.8583,-3.9388,-3.9388,-3.9388,-3.9388,-3.9388,-3.9388,-3.9753,-4.107,-4.1422,-4.1743,-4.3006,-4.329,-4.329,-4.329,-4.329,-4.329,-4.329,-4.329,-4.329,-4.329,-4.329,-4.329,-4.329,-4.329,-4.329,-4.329,-4.329,-4.329,-4.329,-4.329,-4.329,-4.329,-4.329,-4.329,-4.329,-4.329,-4.329,-4.329,-4.329,-4.329,-4.329,-4.329,-4.329,-4.329,-4.329,-4.3305,-1.6861,0.0,0.0,0.0,0.0,0.0,0.0,0.0,-2.5263,-2.7333,-2.8845,-2.9992,-3.0603,-3.1093,-3.1259,-3.0848,-3.2621,-3.4112,-3.4309,-3.4894,-3.5385,-3.5577,-3.5184,-3.4977,-3.5193,-3.4783,-3.478,0.0,-3.539,-3.5353,-3.5537,-3.5077,-3.4798,-3.4788,-3.525,-3.5504,-3.5504,-3.5504,-3.5504,-3.5504,-3.5504,-3.5504,-3.5504,-3.5504,-3.5504,-3.5504,-3.5504,-3.5504,-3.5504,-3.5504,-3.5504,-3.5504,-3.5504,-3.5504,-3.5504,-3.5504,-3.5504,-3.5472,-3.518,-3.5279,-3.5615,-3.6325,-3.6961,-3.759,-3.8652,-3.9141,-3.9388,-3.9388,-3.9388,-3.9388,-3.9388,-3.9388,-3.9753,-4.107,-4.1422,-4.1743,-4.3006,-4.329,-4.329,-4.329,-4.329,-4.329,-4.329,-4.329,-4.329,-4.329,-4.329,-4.329,-4.329,-4.329,-4.329,-4.329,-4.329,-4.329,-4.329,-4.329,-4.329,-4.329,-4.329,-4.329,-4.329,-4.329,-4.329,-4.329,-4.329,-4.329,-4.329,-4.329,-4.329,-4.329,-4.329,-4.3544,-1.7807,-1.8605,0.0,0.0,0.0,0.0,-2.1586,-2.296,0.0,0.0,-2.7394,-2.8425,-2.8726,-2.9517,-3.0123,-3.0075,-3.2126,-3.3825,-3.4098,-3.4984,-3.5492,-3.5207,-3.4847,-3.4479,-3.4211,-3.3836,-3.3784,-3.42,-3.3985,-3.3815,-3.3778,-3.397,-3.4068,-3.4068,-3.4726,-3.507,-3.507,-3.5355,-3.5504,-3.5504,-3.5504,-3.5504,-3.5504,-3.5504,-3.5504,-3.5504,-3.5504,-3.5504,-3.5504,-3.5504,-3.5504,-3.5504,-3.5504,-3.5504,-3.5439,-3.5019,-3.5133,-3.5392,-3.4558,-3.482,-3.5648,-3.6547,-3.7065,-3.7659,-3.9005,-3.9388,-3.9388,-3.9388,-3.9388,-3.9388,-3.9388,-3.9388,-3.9753,-4.107,-4.1422,-4.1743,-4.3006,-4.329,-4.329,-4.329,-4.329,-4.329,-4.329,-4.329,-4.329,-4.329,-4.329,-4.329,-4.329,-4.329,-4.329,-4.329,-4.329,-4.329,-4.329,-4.329,-4.329,-4.329,-4.329,-4.329,-4.329,-4.329,-4.329,-4.329,-4.329,-4.329,-4.329,-4.329,-4.329,-4.329,-4.329,-4.3648,-1.9197,-1.9402,-2.0032,-2.1419,-2.1371,0.0,-2.3135,-2.3967,-2.4524,0.0,-2.5966,-2.6648,-2.6472,-2.7888,-2.9117,-2.9102,-3.0871,-3.2529,-3.336,-3.4509,-3.5075,-3.4532,-3.4364,-3.4064,-3.3531,-3.3401,-3.3375,-3.3375,-3.2799,-3.2448,-3.2407,-3.3021,-3.338,-3.338,-3.4054,-3.4429,-3.4503,-3.5085,-3.5429,-3.5504,-3.5504,-3.5504,-3.5504,-3.5504,-3.5504,-3.5504,-3.5504,-3.5504,-3.5504,-3.5504,-3.5504,-3.5504,-3.5504,-3.5504,-3.5392,-3.4509,-3.4725,-3.5246,-3.3498,-3.4056,-3.5553,-3.5945,-3.6678,-3.7644,-3.8916,-3.9328,-3.9388,-3.9388,-3.9388,-3.9388,-3.9388,-3.9388,-3.9753,-4.107,-4.1422,-4.1743,-4.3006,-4.329,-4.329,-4.329,-4.329,-4.329,-4.329,-4.329,-4.329,-4.329,-4.329,-4.329,-4.329,-4.329,-4.329,-4.329,-4.329,-4.329,-4.329,-4.329,-4.329,-4.329,-4.329,-4.329,-4.329,-4.329,-4.329,-4.329,-4.329,-4.329,-4.329,-4.329,-4.329,-4.329,-4.3364,-4.3753,-1.998,-2.0671,-2.1374,-2.059,-2.1824,0.0,-2.1539,-2.2478,-2.3804,0.0,-2.4447,-2.4616,-2.5724,-2.6354,-2.6659,-2.6528,-2.889,-3.1355,-3.3172,-3.3239,-3.3253,-3.367,-3.28,-3.2337,-3.2768,-3.2272,-3.1923,-3.1923,-3.1796,-3.1728,-3.169,-3.2318,-3.2706,-3.2706,-3.335,-3.3933,-3.4503,-3.4638,-3.4966,-3.5504,-3.5504,-3.5504,-3.5504,-3.5504,-3.5504,-3.5504,-3.5504,-3.5504,-3.5504,-3.5504,-3.5504,-3.5504,-3.5504,-3.5504,-3.5472,-3.5279,-3.5326,-3.5439,-3.5067,-3.518,-3.5606,-3.6201,-3.685,-3.7554,-3.8347,-3.8975,-3.9388,-3.9388,-3.9388,-3.9388,-3.9388,-3.9388,-3.9753,-4.107,-4.1422,-4.1743,-4.3006,-4.329,-4.329,-4.329,-4.329,-4.329,-4.329,-4.329,-4.329,-4.329,-4.329,-4.329,-4.329,-4.329,-4.329,-4.329,-4.329,-4.329,-4.329,-4.329,-4.329,-4.329,-4.329,-4.329,-4.329,-4.329,-4.329,-4.329,-4.329,-4.329,-4.329,-4.329,-4.329,-4.3305,-4.3828,-4.4466,-2.1383,-2.1491,-2.1824,-2.1727,0.0,0.0,0.0,-2.2433,-2.3097,-2.3926,-2.3571,-2.3471,-2.4711,-2.4946,-2.5166,-2.5799,-2.7419,-2.9065,-3.0417,-3.1695,-3.2384,-3.2088,-3.1483,-3.1211,-3.1525,-3.1227,-3.1137,-3.1481,-3.1511,-3.1511,-3.1511,-3.1809,-3.1989,-3.1989,-3.2662,-3.3155,-3.3499,-3.4174,-3.4683,-3.4996,-3.534,-3.5504,-3.5504,-3.5504,-3.5504,-3.5504,-3.5504,-3.5504,-3.5504,-3.5504,-3.5504,-3.5504,-3.5504,-3.5504,-3.5439,-3.4953,-3.5067,-3.5439,-3.492,-3.51,-3.5609,-3.6267,-3.6911,-3.7539,-3.8197,-3.8871,-3.9388,-3.9388,-3.9388,-3.9388,-3.9388,-3.9388,-3.9753,-4.107,-4.1422,-4.1743,-4.3006,-4.329,-4.329,-4.329,-4.329,-4.329,-4.329,-4.329,-4.329,-4.329,-4.329,-4.329,-4.329,-4.329,-4.329,-4.329,-4.329,-4.329,-4.329,-4.329,-4.329,-4.329,-4.329,-4.329,-4.329,-4.329,-4.329,-4.329,-4.329,-4.329,-4.329,-4.329,-4.329,-4.3305,-4.4003,-4.4661,-2.3422,-2.3087,-2.3117,-2.3504,0.0,-2.3528,0.0,0.0,0.0,0.0,0.0,0.0,0.0,0.0,0.0,0.0,0.0,0.0,0.0,-2.931,0.0,-3.0033,-2.9993,-3.0057,-3.0128,-3.0013,-3.0268,-3.1062,-3.1017,-3.1047,-3.1286,-3.1436,-3.1511,-3.1511,-3.2019,-3.2363,-3.2512,-3.3694,-3.4384,-3.4518,-3.5175,-3.5504,-3.5504,-3.5504,-3.5504,-3.5504,-3.5504,-3.5504,-3.5504,-3.5504,-3.5504,-3.5504,-3.5504,-3.5504,-3.5392,-3.4576,-3.4806,-3.5392,-3.4576,-3.4839,-3.5594,-3.6133,-3.6806,-3.7539,-3.8197,-3.8871,-3.9388,-3.9388,-3.9388,-3.9388,-3.9388,-3.9388,-3.9753,-4.107,-4.1422,-4.1743,-4.3006,-4.329,-4.329,-4.329,-4.329,-4.329,-4.329,-4.329,-4.329,-4.329,-4.329,-4.329,-4.329,-4.329,-4.329,-4.329,-4.329,-4.329,-4.329,-4.329,-4.329,-4.329,-4.329,-4.329,-4.329,-4.329,-4.329,-4.329,-4.329,-4.329,-4.329,-4.3424,-4.3484,-4.3499,-4.4197,-4.4855,0.0,0.0,0.0,0.0,-2.6319,0.0,0.0,0.0,-2.3917,-2.2712,0.0,0.0,0.0,0.0,0.0,0.0,0.0,0.0,-2.3745,-2.4973,-2.6427,-2.7455,-2.7787,-2.8181,-2.8742,-2.8289,-2.8453,-2.9726,-2.9265,-2.943,-3.0552,-3.1182,-3.1511,-3.1511,-3.157,-3.1899,-3.2482,-3.3245,-3.3903,-3.4518,-3.5175,-3.5504,-3.5504,-3.5504,-3.5504,-3.5504,-3.5504,-3.5504,-3.5504,-3.5504,-3.5504,-3.5504,-3.5504,-3.5504,-3.5504,-3.5359,-3.5392,-3.5472,-3.5359,-3.5392,-3.5519,-3.5594,-3.6432,-3.7539,-3.8197,-3.8871,-3.9388,-3.9388,-3.9388,-3.9388,-3.9388,-3.9388,-3.9753,-4.107,-4.1422,-4.1743,-4.3006,-4.329,-4.329,-4.329,-4.329,-4.329,-4.329,-4.329,-4.329,-4.329,-4.329,-4.329,-4.329,-4.329,-4.329,-4.329,-4.329,-4.329,-4.329,-4.329,-4.329,-4.329,-4.329,-4.329,-4.329,-4.329,-4.329,-4.329,-4.329,-4.329,-4.329,-4.3888,-4.4212,-4.4212,-4.487,-4.5559,0.0,0.0,0.0,0.0,0.0,0.0,-2.3562,0.0,-2.3173,0.0,0.0,0.0,0.0,0.0,0.0,0.0,-2.3714,0.0,0.0,0.0,-2.4268,0.0,0.0,0.0,-2.729,-2.754,-2.8154,-2.9502,-2.8633,-2.8742,-3.0417,-3.0776,-3.1092,-3.1496,-3.1511,-3.1645,-3.1914,-3.2976,-3.3634,-3.3918,-3.4996,-3.5504,-3.5504,-3.5504,-3.5504,-3.5504,-3.5504,-3.5504,-3.5504,-3.5504,-3.5504,-3.5504,-3.5504,-3.5504,-3.5504,-3.5504,-3.5504,-3.5504,-3.5504,-3.5504,-3.5624,-3.6372,-3.6971,-3.7614,-3.8661,-3.9185,-3.9388,-3.9388,-3.9388,-3.9388,-3.9388,-3.9388,-3.9753,-4.107,-4.1422,-4.1743,-4.3006,-4.329,-4.329,-4.329,-4.329,-4.329,-4.329,-4.329,-4.329,-4.329,-4.329,-4.329,-4.329,-4.329,-4.329,-4.329,-4.329,-4.329,-4.329,-4.329,-4.329,-4.329,-4.329,-4.3469,-4.3843,-4.3898,-4.3898,-4.3898,-4.4272,-4.4287,-4.3858,-4.4556,-4.508,-4.5484,-4.5768,-4.6052,-2.8299,0.0,0.0,0.0,0.0,0.0,0.0,0.0,0.0,0.0,0.0,0.0,0.0,0.0,0.0,0.0,0.0,-2.3242,0.0,-2.2292,0.0,0.0,0.0,0.0,0.0,-2.5908,-2.6611,-2.8113,-2.7165,-2.745,-2.9579,-3.0043,-3.0552,-3.1197,-3.1406,-3.1511,-3.1511,-3.2841,-3.3499,-3.3514,-3.4861,-3.5504,-3.5504,-3.5504,-3.5504,-3.5504,-3.5504,-3.5504,-3.5504,-3.5504,-3.5504,-3.5504,-3.5504,-3.5504,-3.5504,-3.5504,-3.5504,-3.5504,-3.5504,-3.5504,-3.5684,-3.6791,-3.727,-3.7629,-3.8781,-3.9275,-3.9388,-3.9388,-3.9388,-3.9388,-3.9388,-3.9559,-3.9978,-4.1115,-4.1557,-4.1953,-4.305,-4.329,-4.329,-4.329,-4.329,-4.329,-4.329,-4.329,-4.329,-4.329,-4.329,-4.329,-4.329,-4.329,-4.329,-4.329,-4.329,-4.329,-4.329,-4.329,-4.329,-4.329,-4.329,-4.3589,-4.4287,-4.4317,-4.4407,-4.4586,-4.505,-4.5065,-4.4586,-4.5259,-4.5828,-4.6279,-4.6279,-4.6384,0.0,0.0,0.0,-2.7757,0.0,0.0,0.0,0.0,-2.5101,0.0,0.0,0.0,0.0,0.0,-2.5018,-2.363,0.0,0.0,0.0,0.0,0.0,0.0,0.0,0.0,0.0,-2.2592,-2.2697,-2.4619,-2.4133,-2.4904,-2.754,-2.8933,-2.9894,-3.0507,-3.1152,-3.1511,-3.1511,-3.2841,-3.3499,-3.3514,-3.4861,-3.5504,-3.5504,-3.5504,-3.5504,-3.5504,-3.5504,-3.5504,-3.5504,-3.5504,-3.5504,-3.5504,-3.5504,-3.5504,-3.5504,-3.5504,-3.5504,-3.5504,-3.5504,-3.5504,-3.5609,-3.6297,-3.6926,-3.7539,-3.8212,-3.8901,-3.9388,-3.9388,-3.9388,-3.9388,-3.9388,-3.9888,-4.0531,-4.122,-4.1916,-4.2545,-4.3155,-4.329,-4.329,-4.329,-4.329,-4.329,-4.329,-4.329,-4.329,-4.329,-4.329,-4.329,-4.329,-4.329,-4.329,-4.329,-4.329,-4.329,-4.329,-4.329,-4.329,-4.329,-4.329,-4.3589,-4.4287,-4.4317,-4.4616,-4.5244,-4.5289,-4.5289,-4.5274,-4.5963,-4.6264,-4.6279,-4.6279,-4.6666,0.0,0.0,-3.3288,-2.982,0.0,0.0,0.0,0.0,0.0,0.0,0.0,0.0,0.0,0.0,-2.5998,-2.5017,-2.4312,0.0,0.0,0.0,0.0,0.0,0.0,0.0,0.0,0.0,0.0,-2.5136,-2.4634,-2.5435,-2.8113,-2.9101,-2.9864,-3.0477,-3.1152,-3.1511,-3.1511,-3.2841,-3.3499,-3.3514,-3.4861,-3.5504,-3.5504,-3.5504,-3.5504,-3.5504,-3.5504,-3.5504,-3.5504,-3.5504,-3.5504,-3.5504,-3.5504,-3.5504,-3.5504,-3.5504,-3.5504,-3.5504,-3.5504,-3.5504,-3.5684,-3.6746,-3.724,-3.7614,-3.8736,-3.923,-3.9388,-3.9388,-3.9388,-3.9388,-3.9388,-3.9903,-4.0561,-4.122,-4.1916,-4.259,-4.3155,-4.329,-4.329,-4.329,-4.329,-4.329,-4.329,-4.329,-4.329,-4.329,-4.329,-4.329,-4.329,-4.329,-4.329,-4.329,-4.329,-4.329,-4.329,-4.329,-4.329,-4.329,-4.3708,-4.4272,-4.493,-4.5394,-4.5753,-4.5978,-4.6396,-4.6411,-4.5978,-4.6651,-4.7319,-4.7956,-4.7956,-4.8079,-3.3474,-3.3931,0.0,-3.1157,-3.0125,0.0,-2.5963,0.0,-2.7232,0.0,0.0,0.0,0.0,0.0,0.0,-2.5967,-2.4795,-2.3384,0.0,-2.0345,0.0,0.0,0.0,0.0,0.0,0.0,-2.2173,-2.4403,-2.3723,-2.447,0.0,-2.8382,-2.9292,-3.0148,-3.1032,-3.1511,-3.1511,-3.2841,-3.3499,-3.3514,-3.4861,-3.5504,-3.5504,-3.5504,-3.5504,-3.5504,-3.5504,-3.5504,-3.5504,-3.5504,-3.5504,-3.5504,-3.5504,-3.5504,-3.5504,-3.5504,-3.5504,-3.5504,-3.5504,-3.5654,-3.6028,-3.706,-3.7569,-3.7958,-3.908,-3.9388,-3.9388,-3.9388,-3.9388,-3.9388,-3.9388,-4.0083,-4.0846,-4.128,-4.2096,-4.2821,-4.32,-4.329,-4.329,-4.329,-4.2981,-4.2805,-4.325,-4.2941,-4.282,-4.325,-4.329,-4.329,-4.329,-4.329,-4.329,-4.329,-4.329,-4.329,-4.329,-4.329,-4.3394,-4.3618,-4.4077,-4.4721,-4.5618,-4.6082,-4.6384,-4.6666,-4.7085,-4.7242,-4.7198,-4.7622,-4.8377,-4.9376,-5.0015,-5.0314]},{"header":{"parameterUnit":"m.s-1","parameterCategory":1,"la1":30.6,"la2":29.2853,"lo1":-89.7004,"lo2":-87.6739,"dy":0.0162,"dx":0.0183,"nx":112,"ny":82,"refTime":"2026-02-20T12:00:00:Z","depth":0,"parameterNumber":3,"parameterNumberName":"V-component_of_WINDS"},"data":[0.0,0.0,0.0,0.0,0.0,0.0,0.0,0.0,0.0,0.0,0.0,0.0,0.0,0.0,0.0,0.0,0.0,0.0,0.0,0.0,0.0,0.0,0.0,0.0,0.0,0.0,0.0,0.0,0.0,0.0,0.0,0.0,0.0,0.0,0.0,0.0,0.0,0.0,0.0,0.0,0.0,0.0,0.0,0.0,0.0,0.0,0.0,0.0,0.0,0.0,0.0,0.0,0.0,0.0,0.0,0.0,0.0,0.0,0.0,0.0,0.0,0.0,0.0,0.0,0.0,0.0,0.0,0.0,0.0,0.0,0.0,0.0,0.0,0.0,0.0,0.0,0.0,0.0,0.0,0.0,0.0,0.0,0.0,0.0,0.0,0.0,0.0,0.0,0.0,0.0,-2.0705,-2.1127,-2.1809,-2.1773,-2.0673,-2.0478,-1.9887,-1.8676,0.0,0.0,0.0,0.0,0.0,0.0,0.0,0.0,0.0,0.0,0.0,0.0,0.0,0.0,0.0,0.0,0.0,0.0,0.0,0.0,0.0,0.0,0.0,0.0,0.0,0.0,0.0,0.0,0.0,0.0,0.0,0.0,0.0,0.0,0.0,0.0,0.0,0.0,0.0,0.0,0.0,0.0,0.0,0.0,0.0,0.0,0.0,0.0,0.0,0.0,0.0,0.0,0.0,0.0,0.0,0.0,0.0,0.0,0.0,0.0,0.0,0.0,0.0,0.0,0.0,0.0,0.0,0.0,0.0,0.0,0.0,0.0,0.0,0.0,0.0,0.0,0.0,0.0,0.0,0.0,0.0,0.0,0.0,0.0,0.0,0.0,0.0,0.0,0.0,0.0,0.0,0.0,0.0,0.0,0.0,0.0,0.0,0.0,0.0,0.0,0.0,0.0,0.0,0.0,-2.0588,-2.2253,-2.2936,-2.2563,-2.075,-1.993,-1.9233,-1.8644,0.0,0.0,0.0,0.0,0.0,0.0,0.0,0.0,0.0,0.0,0.0,0.0,0.0,0.0,0.0,0.0,0.0,0.0,0.0,0.0,0.0,0.0,0.0,0.0,0.0,0.0,0.0,0.0,0.0,0.0,0.0,0.0,0.0,0.0,0.0,0.0,0.0,0.0,0.0,0.0,0.0,0.0,0.0,0.0,0.0,0.0,0.0,0.0,0.0,0.0,0.0,0.0,0.0,0.0,0.0,0.0,0.0,0.0,0.0,0.0,0.0,0.0,0.0,0.0,0.0,0.0,0.0,0.0,0.0,0.0,0.0,0.0,0.0,0.0,0.0,0.0,0.0,0.0,0.0,0.0,0.0,0.0,0.0,0.0,0.0,0.0,0.0,0.0,0.0,0.0,0.0,0.0,0.0,0.0,0.0,0.0,0.0,0.0,0.0,0.0,0.0,0.0,0.0,-2.0482,-2.1569,-2.26,-2.3187,-2.2702,-2.075,-1.9822,-1.9093,-1.8622,-1.8163,0.0,0.0,0.0,0.0,0.0,0.0,0.0,0.0,0.0,0.0,0.0,0.0,0.0,0.0,0.0,0.0,0.0,0.0,0.0,0.0,0.0,0.0,0.0,0.0,0.0,0.0,0.0,0.0,0.0,0.0,0.0,0.0,0.0,0.0,0.0,0.0,0.0,0.0,0.0,0.0,0.0,0.0,0.0,0.0,0.0,0.0,0.0,0.0,0.0,0.0,0.0,0.0,0.0,0.0,0.0,0.0,0.0,0.0,0.0,0.0,0.0,0.0,0.0,0.0,0.0,0.0,0.0,0.0,0.0,0.0,0.0,0.0,0.0,0.0,0.0,0.0,0.0,0.0,0.0,0.0,0.0,0.0,0.0,0.0,0.0,0.0,0.0,0.0,0.0,0.0,0.0,0.0,0.0,0.0,0.0,0.0,0.0,0.0,0.0,0.0,0.0,0.0,-2.2472,-2.2755,-2.287,-2.3254,-2.2702,-2.075,-1.959,-1.8871,-1.8611,-1.7465,0.0,0.0,0.0,0.0,0.0,0.0,0.0,0.0,0.0,0.0,0.0,0.0,0.0,0.0,0.0,0.0,0.0,0.0,0.0,0.0,0.0,0.0,0.0,0.0,0.0,0.0,0.0,0.0,0.0,0.0,0.0,0.0,0.0,0.0,0.0,0.0,0.0,0.0,0.0,0.0,0.0,0.0,0.0,0.0,0.0,0.0,0.0,0.0,0.0,0.0,0.0,0.0,0.0,0.0,0.0,0.0,0.0,0.0,0.0,0.0,0.0,0.0,0.0,0.0,0.0,0.0,0.0,0.0,0.0,0.0,0.0,0.0,0.0,0.0,0.0,0.0,0.0,0.0,0.0,0.0,0.0,0.0,0.0,0.0,0.0,0.0,0.0,0.0,0.0,0.0,0.0,0.0,0.0,0.0,0.0,0.0,0.0,0.0,0.0,0.0,0.0,0.0,-2.2912,-2.3774,-2.3494,-2.3492,-2.2702,-2.075,-1.9053,-1.825,-1.8568,-1.6561,0.0,0.0,0.0,0.0,0.0,0.0,0.0,0.0,0.0,0.0,0.0,0.0,0.0,0.0,0.0,0.0,0.0,0.0,0.0,0.0,0.0,0.0,0.0,0.0,0.0,0.0,0.0,0.0,0.0,0.0,0.0,0.0,0.0,0.0,0.0,0.0,0.0,0.0,0.0,0.0,0.0,0.0,0.0,0.0,0.0,0.0,0.0,0.0,0.0,0.0,0.0,0.0,0.0,0.0,0.0,0.0,0.0,0.0,0.0,0.0,0.0,0.0,0.0,0.0,0.0,0.0,0.0,0.0,0.0,0.0,0.0,0.0,0.0,0.0,0.0,0.0,0.0,0.0,0.0,0.0,0.0,0.0,0.0,0.0,0.0,0.0,0.0,0.0,0.0,0.0,0.0,0.0,0.0,0.0,0.0,0.0,0.0,0.0,0.0,0.0,0.0,0.0,-2.2828,-2.3698,-2.4354,-2.3854,-2.2962,-2.1593,-2.0354,-1.9328,-1.8631,0.0,0.0,0.0,0.0,0.0,0.0,0.0,0.0,0.0,0.0,0.0,0.0,0.0,0.0,0.0,0.0,0.0,0.0,0.0,0.0,0.0,0.0,0.0,0.0,0.0,0.0,0.0,0.0,0.0,0.0,0.0,0.0,0.0,0.0,0.0,0.0,0.0,0.0,0.0,0.0,0.0,0.0,0.0,0.0,0.0,0.0,0.0,0.0,0.0,0.0,0.0,0.0,0.0,0.0,0.0,0.0,0.0,0.0,0.0,0.0,0.0,0.0,0.0,0.0,0.0,0.0,0.0,0.0,0.0,0.0,0.0,0.0,0.0,0.0,0.0,0.0,0.0,0.0,0.0,0.0,0.0,0.0,0.0,0.0,0.0,0.0,0.0,0.0,0.0,0.0,0.0,0.0,0.0,0.0,0.0,0.0,0.0,0.0,0.0,0.0,0.0,0.0,-2.197,-2.3089,-2.3986,-2.4897,-2.4233,-2.3327,-2.229,-2.0919,-1.9749,-1.8851,0.0,0.0,0.0,0.0,0.0,0.0,0.0,0.0,0.0,0.0,0.0,0.0,0.0,0.0,0.0,0.0,0.0,0.0,0.0,0.0,0.0,0.0,0.0,0.0,0.0,0.0,0.0,0.0,0.0,0.0,0.0,0.0,0.0,0.0,0.0,0.0,0.0,0.0,0.0,0.0,0.0,0.0,0.0,0.0,0.0,0.0,0.0,0.0,0.0,0.0,0.0,0.0,0.0,0.0,0.0,0.0,0.0,0.0,0.0,0.0,0.0,0.0,0.0,0.0,0.0,0.0,0.0,0.0,0.0,0.0,0.0,0.0,0.0,0.0,0.0,0.0,0.0,0.0,0.0,0.0,0.0,0.0,0.0,0.0,0.0,0.0,0.0,0.0,0.0,0.0,0.0,0.0,0.0,0.0,0.0,0.0,0.0,0.0,0.0,0.0,0.0,0.0,-2.2061,-2.3777,-2.4859,-2.4991,-2.4541,-2.3793,-2.2775,-2.0502,-1.9156,0.0,0.0,0.0,0.0,0.0,0.0,0.0,0.0,0.0,0.0,0.0,0.0,0.0,0.0,0.0,0.0,0.0,0.0,0.0,0.0,0.0,0.0,0.0,0.0,0.0,0.0,0.0,0.0,0.0,0.0,0.0,0.0,0.0,0.0,0.0,0.0,0.0,0.0,0.0,0.0,0.0,0.0,0.0,0.0,0.0,0.0,0.0,0.0,0.0,0.0,0.0,0.0,0.0,0.0,0.0,0.0,0.0,0.0,0.0,0.0,0.0,0.0,0.0,0.0,0.0,0.0,0.0,0.0,0.0,0.0,0.0,0.0,0.0,0.0,0.0,0.0,0.0,0.0,0.0,0.0,0.0,0.0,0.0,0.0,0.0,0.0,0.0,0.0,0.0,0.0,0.0,0.0,0.0,0.0,0.0,0.0,0.0,0.0,0.0,0.0,0.0,0.0,0.0,-2.2062,-2.376,-2.4816,-2.4851,-2.4454,-2.3894,-2.3187,-2.178,-2.0437,-1.927,0.0,0.0,0.0,0.0,0.0,0.0,0.0,0.0,0.0,0.0,0.0,0.0,0.0,0.0,0.0,0.0,0.0,0.0,0.0,0.0,0.0,0.0,0.0,0.0,0.0,0.0,0.0,0.0,0.0,0.0,0.0,0.0,0.0,0.0,0.0,0.0,0.0,0.0,0.0,0.0,0.0,0.0,0.0,0.0,0.0,0.0,0.0,0.0,0.0,0.0,0.0,0.0,0.0,0.0,0.0,0.0,0.0,0.0,0.0,0.0,0.0,0.0,0.0,0.0,0.0,0.0,0.0,0.0,0.0,0.0,0.0,0.0,0.0,0.0,0.0,0.0,0.0,0.0,0.0,0.0,0.0,0.0,0.0,0.0,0.0,0.0,0.0,0.0,0.0,0.0,0.0,0.0,0.0,0.0,0.0,0.0,0.0,0.0,0.0,0.0,0.0,0.0,-2.2059,-2.3567,-2.4569,-2.4763,-2.4407,-2.3959,-2.362,-2.2376,-2.0986,-1.9516,0.0,0.0,0.0,0.0,0.0,0.0,0.0,0.0,0.0,0.0,0.0,0.0,0.0,0.0,0.0,0.0,0.0,0.0,0.0,0.0,0.0,0.0,0.0,0.0,0.0,0.0,0.0,0.0,0.0,0.0,0.0,0.0,0.0,0.0,0.0,0.0,0.0,0.0,0.0,0.0,0.0,0.0,0.0,0.0,0.0,0.0,0.0,0.0,0.0,0.0,0.0,0.0,0.0,0.0,0.0,0.0,0.0,0.0,0.0,0.0,0.0,0.0,0.0,0.0,0.0,0.0,0.0,0.0,0.0,0.0,0.0,0.0,0.0,0.0,0.0,0.0,0.0,0.0,0.0,0.0,0.0,0.0,0.0,0.0,0.0,0.0,0.0,0.0,0.0,0.0,0.0,0.0,0.0,0.0,0.0,0.0,0.0,0.0,0.0,0.0,0.0,0.0,-2.1977,-2.3259,-2.4167,-2.4587,-2.4268,-2.3979,-2.3916,-2.2472,-2.1079,-1.9962,0.0,0.0,0.0,0.0,0.0,0.0,0.0,0.0,0.0,0.0,0.0,0.0,0.0,0.0,0.0,0.0,0.0,0.0,0.0,0.0,0.0,0.0,0.0,0.0,0.0,0.0,0.0,0.0,0.0,0.0,0.0,0.0,0.0,0.0,0.0,0.0,0.0,0.0,0.0,0.0,0.0,0.0,0.0,0.0,0.0,0.0,0.0,0.0,0.0,0.0,0.0,0.0,0.0,0.0,0.0,0.0,0.0,0.0,0.0,0.0,-1.8601,0.0,0.0,0.0,0.0,0.0,0.0,0.0,0.0,0.0,0.0,0.0,0.0,0.0,0.0,0.0,0.0,0.0,0.0,0.0,0.0,0.0,0.0,0.0,0.0,0.0,0.0,0.0,0.0,0.0,0.0,0.0,0.0,0.0,0.0,0.0,0.0,0.0,0.0,0.0,0.0,0.0,-2.142,-2.2998,-2.3866,-2.3496,-2.3803,-2.3816,-2.3333,-2.2569,-2.1656,-2.0578,-1.93,0.0,0.0,0.0,0.0,0.0,0.0,0.0,0.0,0.0,0.0,0.0,0.0,0.0,0.0,0.0,0.0,0.0,0.0,0.0,0.0,0.0,0.0,0.0,0.0,0.0,0.0,0.0,0.0,0.0,0.0,0.0,0.0,0.0,0.0,0.0,0.0,0.0,0.0,0.0,0.0,0.0,0.0,0.0,0.0,0.0,0.0,0.0,0.0,0.0,0.0,0.0,0.0,0.0,0.0,0.0,0.0,0.0,0.0,0.0,0.0,-1.9388,0.0,0.0,0.0,0.0,0.0,0.0,0.0,0.0,0.0,0.0,0.0,0.0,0.0,0.0,0.0,0.0,0.0,0.0,0.0,0.0,0.0,0.0,0.0,0.0,0.0,0.0,0.0,0.0,0.0,0.0,0.0,0.0,0.0,0.0,0.0,0.0,0.0,0.0,0.0,0.0,-2.0922,-2.2506,-2.3446,-2.3133,-2.3371,-2.3434,-2.3133,-2.2606,-2.1845,-2.0767,-1.9757,0.0,0.0,0.0,0.0,0.0,0.0,0.0,0.0,0.0,0.0,0.0,0.0,0.0,0.0,0.0,0.0,0.0,0.0,0.0,0.0,0.0,0.0,0.0,0.0,0.0,0.0,0.0,0.0,0.0,0.0,0.0,0.0,0.0,0.0,0.0,0.0,0.0,0.0,0.0,0.0,0.0,0.0,0.0,0.0,0.0,0.0,0.0,0.0,0.0,0.0,0.0,0.0,0.0,-1.8447,-1.9013,-1.9467,-2.0436,-2.1063,-2.1375,-2.0873,-2.143,-2.2526,-2.0808,0.0,0.0,0.0,0.0,0.0,0.0,0.0,0.0,0.0,0.0,0.0,0.0,0.0,0.0,0.0,0.0,0.0,0.0,0.0,0.0,0.0,0.0,0.0,0.0,-2.3382,-2.3813,-2.1777,0.0,0.0,0.0,0.0,0.0,0.0,0.0,0.0,0.0,0.0,0.0,-2.0831,-2.227,-2.3258,-2.3258,-2.3258,-2.3208,-2.3108,-2.2681,-2.202,-2.1043,-2.0322,-1.9003,0.0,0.0,0.0,0.0,0.0,0.0,0.0,0.0,0.0,0.0,0.0,0.0,0.0,0.0,0.0,0.0,0.0,0.0,0.0,0.0,0.0,0.0,0.0,0.0,0.0,0.0,0.0,0.0,0.0,0.0,0.0,0.0,-1.2667,-1.2755,0.0,0.0,0.0,0.0,0.0,0.0,0.0,0.0,0.0,0.0,0.0,0.0,0.0,-1.665,-1.7207,-1.8672,-1.9287,-1.9062,-2.0996,-2.177,-2.1508,-2.2362,-2.2991,-2.3403,-2.3347,0.0,-2.0941,-2.1196,0.0,0.0,0.0,0.0,0.0,0.0,0.0,0.0,0.0,0.0,0.0,0.0,0.0,0.0,0.0,0.0,0.0,0.0,0.0,0.0,0.0,0.0,-2.5933,-2.5879,-2.6013,-2.5815,0.0,-2.2767,-2.1196,-2.0338,-1.901,0.0,0.0,0.0,0.0,0.0,0.0,0.0,-2.1864,-2.3127,-2.3891,-2.3891,-2.3891,-2.3678,-2.3145,-2.3045,-2.2732,-2.2133,-2.1549,-2.0657,-1.9384,-1.8993,0.0,0.0,0.0,0.0,0.0,0.0,0.0,0.0,0.0,0.0,0.0,0.0,0.0,0.0,0.0,0.0,0.0,0.0,0.0,0.0,0.0,0.0,0.0,0.0,0.0,0.0,0.0,0.0,0.0,-1.2506,-1.3494,-1.3253,-1.3445,-1.3407,0.0,0.0,0.0,0.0,0.0,0.0,0.0,0.0,0.0,-1.905,-1.8484,-1.8613,-1.9541,-2.0527,-2.1172,-2.1525,-2.2666,-2.3252,-2.332,-2.3691,-2.4092,-2.4512,-2.4512,-2.4361,-2.4099,-2.3483,-2.2795,-2.208,0.0,0.0,0.0,0.0,-2.3,-2.3213,-2.4695,-2.5008,-2.4682,-2.428,0.0,0.0,0.0,0.0,0.0,0.0,0.0,0.0,0.0,0.0,-2.665,-2.7266,-2.7381,-2.7256,-2.6766,-2.5364,-2.368,0.0,-2.108,-2.0193,-1.8322,0.0,0.0,0.0,0.0,-2.1393,-2.2217,-2.3566,-2.4456,-2.4456,-2.4456,-2.423,-2.3634,-2.3615,-2.3221,-2.2372,-2.2083,-2.1455,-2.0365,-2.0295,-1.9588,0.0,0.0,0.0,0.0,0.0,0.0,0.0,0.0,0.0,0.0,0.0,0.0,0.0,0.0,0.0,0.0,0.0,0.0,0.0,0.0,0.0,0.0,0.0,0.0,0.0,0.0,0.0,0.0,-1.3558,-1.428,-1.3887,-1.4377,-1.4346,0.0,0.0,0.0,0.0,0.0,0.0,-2.0674,-2.0941,-2.0869,-2.0762,-2.0337,-2.0635,-2.1719,-2.2266,-2.2852,-2.3486,-2.3916,-2.4277,-2.459,-2.4697,-2.4932,-2.5244,-2.5244,-2.5856,-2.682,-2.5659,-2.5122,-2.5064,-2.5061,-2.4782,-2.4499,-2.5477,-2.5841,-2.6092,-2.7921,-2.8273,-2.7783,-2.6942,-2.6025,-2.4992,-2.3719,0.0,0.0,0.0,0.0,-2.4825,-2.5938,-2.6666,-2.7331,-2.831,-2.8536,-2.8499,-2.8348,-2.767,-2.6324,0.0,-2.3132,-2.2322,-1.9909,0.0,0.0,0.0,0.0,-2.2619,-2.2891,-2.4167,-2.4988,-2.4988,-2.4988,-2.4808,-2.4255,-2.4079,-2.364,-2.2799,-2.2774,-2.2312,-2.1157,-2.1677,-2.1211,-1.9552,0.0,0.0,0.0,0.0,0.0,0.0,0.0,0.0,0.0,0.0,0.0,0.0,0.0,0.0,0.0,0.0,0.0,0.0,0.0,0.0,0.0,0.0,0.0,0.0,0.0,0.0,0.0,0.0,0.0,-1.4775,-1.583,0.0,0.0,0.0,0.0,-1.5144,-1.6802,-1.8944,-2.1706,-2.1837,-2.1645,-2.1193,-2.1924,-2.2578,-2.311,-2.3877,-2.4316,-2.4365,-2.4795,-2.5067,-2.5096,-2.5478,-2.5635,-2.5654,-2.5654,-2.6157,-2.6904,-2.6824,-2.7197,-2.7877,-2.7891,-2.7883,-2.7934,-2.8461,-2.8687,-2.8775,-2.9478,-2.9691,-2.9654,-2.9603,-2.8158,-2.6388,-2.6239,-2.5153,0.0,0.0,-2.5895,-2.6622,-2.7682,-2.8349,-2.8925,-2.9566,-2.9704,-2.9553,-2.8963,-2.8813,-2.8134,0.0,-2.4167,-2.2736,-2.1577,0.0,-2.1398,-2.1335,-2.2313,-2.3452,-2.4525,-2.5197,-2.5548,-2.5548,-2.5548,-2.5347,-2.482,-2.4305,-2.3979,-2.3916,-2.4098,-2.3602,-2.2275,-2.2924,-2.2724,-2.1489,-2.0202,0.0,0.0,0.0,0.0,0.0,0.0,0.0,0.0,0.0,0.0,0.0,0.0,0.0,0.0,0.0,0.0,0.0,0.0,0.0,0.0,0.0,0.0,0.0,0.0,0.0,0.0,0.0,0.0,-1.5228,-1.6226,0.0,-1.5062,-1.3698,-1.3164,-1.3731,-1.8442,-2.1688,-2.2611,-2.3031,-2.2994,-2.2461,-2.3291,-2.3809,-2.3965,-2.4551,-2.4834,-2.4891,-2.6108,-2.6699,-2.6746,-2.7683,-2.7673,-2.6993,-2.7757,-2.8258,-2.8569,-2.9337,-2.9484,-2.9248,-2.9948,-3.0218,-3.0244,-3.0444,-3.0733,-3.1022,-3.0871,-3.106,-3.1235,-3.0545,-2.9541,-2.8573,-2.8113,-2.7612,-2.7241,-2.7607,-2.7877,-2.8222,-2.8988,-2.934,-2.9528,-2.9741,-2.9792,-2.9729,-2.9528,-2.9189,-2.8662,-2.7896,-2.6402,-2.4695,-2.2862,-2.2849,-2.2975,-2.2598,-2.3471,-2.4462,-2.5222,-2.5799,-2.6185,-2.6185,-2.6185,-2.5925,-2.536,-2.4833,-2.4589,-2.4688,-2.4446,-2.4084,-2.3615,-2.4303,-2.3877,-2.2139,-2.2104,-2.0882,0.0,0.0,0.0,0.0,0.0,0.0,0.0,0.0,0.0,0.0,0.0,0.0,0.0,0.0,0.0,0.0,0.0,0.0,0.0,0.0,0.0,0.0,0.0,0.0,0.0,0.0,-1.6264,-1.5757,-1.7222,-1.7318,-1.479,-1.4611,-1.509,-1.6246,-2.1075,-2.3801,-2.3433,-2.3964,-2.4058,-2.3574,-2.4258,-2.4639,-2.4639,-2.5078,-2.5522,-2.5939,-2.7065,-2.7814,-2.8226,-2.9039,-2.8727,-2.7673,-2.869,-2.9115,-2.9195,-3.0232,-3.0618,-3.0693,-3.1626,-3.1951,-3.1938,-3.1738,-3.1901,-3.2127,-3.1587,-3.1512,-3.1562,-3.0846,-3.0244,-2.9729,-2.934,-2.9176,-2.9176,-2.9176,-2.9176,-2.9315,-2.9691,-2.9792,-2.9792,-2.9792,-2.9792,-2.9792,-2.9792,-2.949,-2.9126,-2.8925,-2.7896,-2.6461,-2.4569,-2.4732,-2.4845,-2.4048,-2.477,-2.5498,-2.585,-2.626,-2.6499,-2.6499,-2.6499,-2.6336,-2.5925,-2.5234,-2.4963,-2.5332,-2.472,-2.4344,-2.4344,-2.4832,-2.4361,-2.28,-2.2849,-2.1528,-1.8717,0.0,0.0,0.0,0.0,0.0,0.0,0.0,0.0,0.0,0.0,0.0,0.0,0.0,0.0,0.0,0.0,0.0,0.0,0.0,0.0,0.0,0.0,0.0,-1.4907,-1.6164,-1.6932,-1.6403,-1.8873,-1.8674,-1.3682,-1.6207,-1.9555,-2.2887,-2.4724,-2.5153,-2.4078,-2.4595,-2.4753,-2.4434,-2.4863,-2.5135,-2.5135,-2.5566,-2.639,-2.7589,-2.7683,-2.8319,-2.9453,-2.9498,-2.8866,-2.7746,-2.8462,-2.8701,-2.8746,-2.9445,-3.0712,-3.229,-3.283,-3.3056,-3.298,-3.2416,-3.2202,-3.2114,-3.1574,-3.106,-3.0633,-3.0633,-3.0281,-2.9842,-2.9829,-2.9817,-2.9817,-2.9792,-2.9792,-2.9792,-2.9792,-2.9792,-2.9792,-2.9792,-2.9792,-2.9792,-2.9792,-2.9792,-2.9628,-2.9026,-2.8524,-2.7808,-2.6738,-2.6989,-2.6942,-2.5837,-2.6172,0.0,-2.6512,-2.6499,-2.6499,-2.6499,-2.6499,-2.6499,-2.6499,-2.5448,-2.5103,-2.5818,-2.492,-2.4365,-2.4365,-2.4459,-2.4185,-2.3507,-2.2297,-2.072,-1.8822,0.0,0.0,0.0,0.0,0.0,0.0,0.0,0.0,0.0,0.0,0.0,0.0,0.0,0.0,0.0,0.0,0.0,0.0,0.0,0.0,0.0,-1.578,-1.6819,-1.6765,-1.732,-1.7715,-1.7561,-1.935,-2.0539,-2.0309,-2.117,-2.2357,-2.3929,-2.4311,-2.4531,-2.4665,-2.4901,-2.5006,-2.4893,-2.5322,-2.5557,-2.5557,-2.6549,-2.7268,-2.7636,-2.9361,-3.0406,-3.0721,-3.1645,-3.1412,-3.0259,-3.14,-3.134,-3.0587,-3.1674,-3.2424,-3.2817,-3.2554,-3.2453,-3.2428,-3.2277,-3.1951,-3.1599,-3.1436,-3.1298,-3.1173,-3.1173,-3.1072,-3.0884,-3.0507,-3.0394,-3.0306,-2.9905,-2.9792,-2.9792,-2.9792,-2.9792,-2.9792,-2.9792,-2.9792,-2.9792,-2.9792,-2.9792,-2.9741,-2.9578,-2.9428,-2.8976,-2.7846,-2.777,-2.777,-2.7457,-2.7205,0.0,-2.709,-2.6738,-2.6499,-2.6499,-2.6499,-2.6499,-2.6499,-2.5448,-2.4938,-2.5292,-2.4279,-2.3673,-2.3673,-2.4213,-2.4219,-2.3582,-2.1917,-2.0561,0.0,0.0,0.0,0.0,0.0,0.0,0.0,0.0,0.0,0.0,0.0,0.0,0.0,0.0,0.0,0.0,0.0,0.0,0.0,0.0,0.0,0.0,-1.6894,-1.7906,-1.7723,-1.788,-1.8264,-1.8986,-2.0578,-2.2019,-2.3036,-2.3434,-2.3803,-2.4181,-2.453,-2.4799,-2.4979,-2.5232,-2.5352,-2.5352,-2.5605,-2.5693,-2.5693,-2.6945,-2.7861,-2.8366,-3.0271,-3.15,-3.2008,-3.2754,-3.2382,-3.1255,-3.2265,-3.2038,-3.0922,-3.1974,-3.2503,0.0,0.0,0.0,0.0,0.0,-3.1336,-3.1035,-3.0796,-3.0721,-3.0721,-3.0721,-3.0721,-3.067,-3.0369,-3.0269,-3.0206,-2.988,-2.9792,-2.9792,-2.9792,-2.9792,-2.9792,-2.9792,-2.9792,-2.9792,-2.9792,-2.9792,-2.9792,-2.9792,-2.9792,0.0,-2.8925,-2.8612,-2.8373,-2.8134,-2.7833,-2.7632,-2.7632,-2.7178,-2.6839,-2.6839,-2.6637,-2.6499,-2.6499,-2.5448,0.0,0.0,0.0,-2.3266,-2.3071,-2.3685,0.0,0.0,0.0,0.0,0.0,0.0,0.0,0.0,-1.959,-1.9598,0.0,0.0,0.0,0.0,0.0,0.0,0.0,0.0,0.0,0.0,0.0,0.0,0.0,0.0,0.0,0.0,-1.8217,-1.873,-1.8491,-1.8501,-1.9167,-2.0701,-2.2198,-2.312,-2.3169,-2.392,-2.4306,-2.4156,-2.5063,-2.5518,-2.5194,0.0,0.0,0.0,0.0,-2.5693,-2.5693,-2.6945,-2.8226,-2.9407,-3.0631,-3.1865,-3.3124,-3.2939,-3.2283,-3.1231,-3.1841,-3.1461,-3.0541,-3.1294,-3.1863,-3.2353,-3.2805,-3.2667,-3.2089,-3.1072,-3.0708,-3.0633,-3.0143,0.0,0.0,-2.9967,-2.9967,-2.9967,-2.9905,-2.988,-2.988,-2.9817,-2.9792,-2.9792,-2.9792,-2.9792,-2.9792,-2.9792,-2.9792,-2.9792,-2.9792,-2.9792,-2.9792,-2.9792,-2.9792,-2.9792,-2.9792,-2.9365,-2.8825,-2.8373,-2.8235,-2.8197,-2.8197,-2.772,-2.7369,-2.7369,0.0,0.0,-2.6587,-2.5548,-2.5135,-2.5733,-2.4269,-2.3185,-2.2789,-2.3212,-2.3239,-2.2774,-2.3158,-2.3339,-2.3291,-2.3794,-2.3778,-2.315,-2.1074,-2.1205,0.0,0.0,0.0,0.0,0.0,0.0,0.0,0.0,0.0,0.0,0.0,0.0,0.0,0.0,0.0,-1.6716,-1.8727,-2.043,-2.1078,-2.1713,-2.222,-2.2562,-2.2891,-2.3281,-2.3806,-2.3978,-2.4313,-2.4832,-2.5094,-2.5339,-2.5586,-2.5645,-2.5693,-2.5693,-2.5693,-2.5693,-2.5693,-2.6945,-2.8226,-2.9407,0.0,0.0,-3.3068,-3.2052,-3.1444,-3.1211,-3.1336,-3.1245,-3.1156,-3.2284,-3.2817,-3.288,-3.2516,-3.2303,-3.2127,-3.1486,-3.1248,-3.1223,-3.1122,-3.1085,-3.1085,-3.1085,-3.1085,-3.0997,-3.0583,-3.0457,0.0,-2.9917,-2.9792,-2.9792,-2.9792,-2.9792,-2.9792,-2.9792,-2.9792,-2.9792,-2.9792,-2.9792,-2.9792,-2.9792,-2.9792,-2.9792,-2.9792,-2.9691,-2.9591,-2.9478,-2.9063,-2.8737,-2.8737,-2.8285,-2.7946,-2.7946,-2.7457,-2.7165,-2.7165,-2.6088,-2.5325,-2.5013,-2.4298,-2.3809,-2.3731,-2.382,-2.3833,-2.3718,-2.3361,-2.3145,-2.3141,-2.3259,-2.3492,-2.3803,-2.342,-2.3178,0.0,0.0,0.0,0.0,0.0,0.0,0.0,0.0,0.0,0.0,0.0,-1.3737,-1.4475,0.0,-1.5501,-1.8211,-2.0439,-2.1991,-2.2432,-2.2863,-2.3116,-2.3116,-2.3384,-2.3673,-2.3953,-2.4346,-2.4722,-2.5086,-2.5273,-2.5508,-2.5674,-2.5693,-2.5693,-2.5693,-2.5518,-2.54,-2.54,-2.7232,-2.8193,-2.8182,-3.0882,-3.1833,-3.1235,-3.1223,-3.1223,-3.1223,-3.1223,-3.1545,-3.2196,-3.284,-3.3124,-3.3056,-3.2754,-3.2641,-3.2541,-3.17,-3.1562,-3.1763,-3.1486,-3.1386,-3.1386,-3.1386,-3.1386,-3.1336,-3.1085,-3.0997,-3.0896,-3.0357,-3.0206,-3.0143,-2.9867,-2.9792,-2.9792,-2.9792,-2.9792,-2.9792,-2.9792,-2.9792,-2.9792,-2.9792,-2.9792,-2.9792,-2.9792,-2.9792,-2.9792,-2.9792,-2.9541,-2.9365,-2.9365,-2.8863,-2.8511,-2.8511,-2.8021,-2.7695,-2.7695,-2.67,-2.5686,-2.4838,-2.4537,-2.4293,-2.4004,-2.4268,-2.428,-2.4004,-2.396,-2.4211,-2.4795,-2.4795,-2.5234,-2.605,-2.6103,-2.5625,0.0,0.0,0.0,0.0,0.0,0.0,0.0,0.0,-1.3016,-1.4271,-1.405,-1.4159,-1.5824,-1.4907,-1.5479,-2.0304,-2.2216,-2.3113,-2.3087,-2.3109,-2.3091,-2.3091,-2.3511,-2.3904,-2.4071,-2.4597,-2.501,-2.5185,-2.5527,-2.5654,-2.5567,-2.5557,-2.5518,-2.544,-2.5215,-2.5116,-2.5116,-2.7154,-2.7793,-2.7079,-3.0444,-3.1101,-2.9453,-3.0406,-3.0855,-3.0855,-3.1078,-3.1921,-3.3124,-3.3124,-3.3124,-3.3124,-3.3124,-3.3124,-3.3011,-3.2051,-3.2001,-3.2315,-3.1876,-3.1712,-3.1712,-3.1712,-3.1712,-3.17,-3.1587,-3.1549,-3.1436,-3.0922,-3.0771,-3.067,-3.0218,-3.003,-2.9955,-2.9955,-2.9867,-2.9792,-2.9792,-2.9792,-2.9792,-2.9792,-2.9792,-2.9792,-2.9792,-2.9792,-2.9792,-2.9792,-2.9972,-3.0075,-3.0075,-2.9656,-2.9365,-2.9365,-2.8698,-2.8222,-2.8109,-2.7329,-2.6436,-2.5511,-2.5427,-2.5259,-2.4808,-2.5222,-2.5247,-2.4808,-2.5234,-2.5887,-2.6813,-2.6813,-2.7266,-2.8109,-2.821,-2.7733,-1.328,-1.2394,-1.1848,-1.2939,-1.2978,-1.3267,0.0,0.0,-1.4664,-1.5824,-1.6172,-1.6129,-1.56,-1.6561,-1.8608,-2.2219,-2.2989,-2.3107,-2.309,-2.3115,-2.3091,-2.3091,-2.314,-2.3516,-2.4277,-2.4434,-2.4814,-2.5557,-2.5664,-2.5566,-2.5213,-2.5184,-2.4961,-2.458,-2.4893,-2.5116,-2.5116,-2.5737,-2.6539,-2.7505,-2.797,-2.8634,-2.9407,-2.9544,-2.959,-2.9681,-3.0721,-3.1921,-3.3124,-3.3124,-3.3124,-3.3124,-3.3124,-3.3124,-3.3056,-3.2973,-3.2973,-3.2968,-3.2948,-3.2893,-3.2893,-3.2893,-3.2893,-3.2792,-3.2277,-3.2127,-3.2001,-3.1461,-3.1298,-3.1286,-3.1235,-3.0871,-3.052,-3.052,-3.0143,-2.9792,-2.9792,-2.9792,-2.9792,-2.9792,-2.9792,-2.9792,-2.9792,-2.9792,-2.9792,-2.9792,-3.052,-3.1044,-3.1044,-3.0979,-3.0939,-3.0939,-2.9653,-2.8599,-2.8147,-2.7996,-2.7871,-2.7745,-2.7733,-2.7708,-2.7645,-2.7708,-2.7708,-2.7645,-2.7708,-2.7795,-2.7921,-2.7921,-2.7984,-2.8109,-2.8612,-2.8511,-1.4274,-1.4033,-1.3809,0.0,-1.4104,-1.4589,-1.5484,-1.5372,-1.5477,-1.6998,-1.6589,-1.6131,-1.6797,-1.8339,-2.0279,0.0,-2.3123,-2.3118,-2.3125,-2.3091,-2.3003,-2.276,-2.2945,-2.3432,-2.4336,-2.4648,-2.5059,-2.5645,-2.5498,-2.5264,-2.5125,-2.4824,-2.4727,-2.4795,-2.4727,-2.4814,-2.5116,-2.5946,-2.631,-2.6178,-2.7853,-2.8179,-2.7258,-2.7992,-2.8727,-2.9453,-3.0676,-3.1921,-3.3124,-3.3124,-3.3124,-3.3124,-3.3124,-3.3124,-3.3124,-3.3124,-3.3124,-3.3124,-3.3124,-3.3124,-3.3124,-3.3124,-3.3124,-3.3031,-3.2792,-3.2717,-3.2591,-3.2026,-3.1863,-3.1788,-3.1474,-3.1223,-3.0997,-3.0683,-3.0444,-3.0181,-2.9867,-2.9792,-2.9792,-2.9792,-2.9792,-2.996,-3.052,-3.062,-3.0809,-3.1341,-3.1291,-3.1217,-3.1217,-3.1217,-3.1007,-3.0457,-2.9821,-2.9202,-2.8599,-2.8586,-2.8411,-2.8122,-2.8109,-2.8109,-2.8109,-2.8109,-2.8109,-2.8109,-2.8109,-2.826,-2.8586,-2.8586,-2.8762,-2.9089,-2.9327,-2.9302,-1.481,-1.5088,-1.5322,-1.4913,-1.5349,-1.5896,-1.6081,-1.6124,-1.6468,-1.7744,-1.7387,-1.7222,-1.8496,-1.9729,-2.1141,-2.2816,-2.2958,-2.2911,-2.3081,-2.2994,-2.2808,-2.2549,-2.2676,-2.3081,-2.3984,-2.456,-2.5068,-2.5518,-2.5254,-2.5057,-2.4893,-2.459,-2.4502,-2.4707,-2.4639,-2.4746,-2.5106,-2.6064,-2.6125,-2.5302,-2.7364,-2.7437,-2.5732,-2.7352,-2.8773,-2.9943,-3.1178,-3.2239,-3.3124,-3.3124,-3.3124,-3.3124,-3.3124,-3.3124,-3.3124,-3.3124,-3.3124,-3.3124,-3.3124,-3.3124,-3.3124,-3.3124,-3.3124,-3.3124,-3.3124,-3.3124,-3.2993,-3.2566,-3.2453,-3.2353,-3.1964,-3.1738,-3.1524,-3.1148,-3.0934,-3.0683,-3.0143,-3.0018,-2.998,-2.9829,-2.9998,-3.0317,-3.072,-3.1044,-3.1426,-3.2105,-3.1646,-3.1278,-3.1536,-3.1352,-3.0833,-2.9895,-2.9792,-2.9616,-2.9202,-2.9126,-2.9001,-2.8599,-2.8574,-2.8574,-2.8574,-2.8574,-2.8574,-2.8574,-2.8574,-2.8762,-2.9126,-2.9126,-2.939,-2.9792,-2.9792,-2.9792,-1.4902,-1.5088,-1.5615,-1.6414,-1.6848,-1.7182,-1.7799,-1.7907,-1.7939,-1.8004,-1.9307,-2.0469,-2.0527,-2.0564,-2.1136,-2.2817,-2.2648,-2.2508,-2.3033,-2.274,-2.2529,-2.251,-2.2168,-2.2256,0.0,-2.3945,-2.4619,-2.5106,-2.5125,-2.4883,-2.4463,-2.4424,-2.4238,-2.3838,-2.4666,-2.5106,-2.5116,-2.5498,-2.5713,-2.5664,-2.5771,-2.5781,-2.5781,-2.8215,-2.9988,-3.1223,-3.2469,-3.3068,-3.3124,-3.3124,-3.3124,-3.3124,-3.3124,-3.3124,-3.3124,-3.3124,-3.3124,-3.3124,-3.3124,-3.3124,-3.3124,-3.3124,-3.3124,-3.3124,-3.3124,-3.3124,-3.3124,-3.3056,-3.3056,-3.3086,-3.3074,-3.2604,-3.219,-3.2177,-3.175,-3.1223,-3.0708,-3.0595,-3.0432,-2.9892,-3.052,-3.0871,-2.9998,-3.0595,-3.1217,-3.1254,-3.1217,-3.1536,-3.2464,-3.1742,-3.0833,-2.9895,-2.9792,-2.9779,-2.9767,-2.9767,-2.9767,-2.9741,-2.9741,-2.9741,-2.9741,-2.9741,-2.9741,-2.9741,-2.9741,-2.9754,-2.9767,-2.9767,-2.9779,-2.9792,-2.9792,-2.9792,-1.4805,-1.532,-1.61,-1.6572,-1.7202,-1.7743,-1.7963,-1.8892,-1.9726,-1.9726,-2.0186,-2.0242,-1.9079,-1.9821,-2.0888,-2.1818,-2.2163,-2.2499,-2.3033,-2.2974,-2.2682,-2.2168,-2.2461,0.0,0.0,0.0,0.0,-2.458,-2.4375,-2.416,-2.4004,-2.4004,-2.4062,-2.4199,-2.4766,-2.5215,-2.5508,-2.5615,-2.5693,-2.5693,-2.5693,-2.5693,-2.5781,-2.7447,-2.8866,-3.0079,-3.1323,-3.2326,-3.3124,-3.3124,-3.3124,-3.3124,-3.3124,-3.3124,-3.3124,-3.3124,-3.3124,-3.3124,-3.3124,-3.3124,-3.3124,-3.3124,-3.3124,-3.3124,-3.3124,-3.3124,-3.3124,-3.3124,-3.3124,-3.3124,-3.3124,-3.293,-3.2692,-3.2303,-3.2077,-3.1788,-3.1248,-3.1135,-3.0972,-3.0444,-3.0581,-3.0791,-3.0723,-3.1007,-3.1217,-3.1217,-3.1217,-3.1315,-3.1646,-3.0833,-3.0139,-2.983,-2.9792,-2.9792,-2.9792,-2.9792,-2.9792,-2.9792,-2.9792,-2.9792,-2.9792,-2.9792,-2.9792,-2.9792,-2.9792,-2.9792,-2.9792,-2.9792,-2.9792,-2.9792,-2.9792,-2.9792,-1.5232,-1.6034,-1.703,-1.7518,-1.8276,-1.8937,-1.8937,-1.9793,-2.0615,-2.0612,-2.0601,-1.9893,-1.7522,-1.8258,-1.9638,-2.0909,-2.1455,-2.2016,-2.2964,-2.2964,-2.2672,-2.2178,-2.2451,-2.2539,0.0,0.0,0.0,-2.4336,-2.4033,-2.3857,-2.4004,-2.3867,-2.3984,-2.4404,-2.4844,-2.5283,-2.5684,-2.5693,-2.5693,-2.5693,-2.5693,-2.5693,-2.5781,-2.7484,-2.868,-2.9498,-3.1134,-3.2326,-3.3124,-3.3124,-3.3124,-3.3124,-3.3124,-3.3124,-3.3124,-3.3124,-3.3124,-3.3124,-3.3124,-3.3124,-3.3124,-3.3124,-3.3124,-3.3124,-3.3124,-3.3124,-3.3124,-3.3124,-3.3124,-3.3124,-3.3124,-3.3124,-3.298,-3.2604,-3.2516,-3.2479,-3.2309,-3.1949,-3.1647,-3.1492,-3.1417,-3.1368,-3.1267,-3.1124,-3.0929,-3.0722,-3.0696,-3.0696,-3.0696,-3.0177,-2.9792,-2.9792,-2.9792,-2.9792,-2.9792,-2.9792,-2.9792,-2.9792,-2.9792,-2.9792,-2.9792,-2.9792,-2.9792,-2.9792,-2.9792,-2.9792,-2.9792,-2.9792,-2.9792,-2.9792,-2.9792,-2.9792,-1.6225,-1.7165,-1.8239,-1.9155,-1.9976,-2.0586,-2.0605,-2.0595,-2.0604,-2.0591,-2.0518,-1.9449,0.0,0.0,-1.7598,-2.0148,-2.0625,-2.1261,-2.2857,-2.275,-2.2549,0.0,0.0,0.0,0.0,0.0,0.0,-2.4326,0.0,-2.3945,-2.4365,-2.4033,-2.4004,-2.4404,-2.4863,-2.5303,-2.5684,-2.5693,-2.5693,-2.5693,-2.5693,-2.5693,-2.5781,-2.8215,-2.9315,-2.9453,-3.1921,-3.2982,-3.3025,-3.3068,-3.3124,-3.3124,-3.3124,-3.3124,-3.3124,-3.3124,-3.3124,-3.3124,-3.3106,-3.3106,-3.3124,-3.3124,-3.3124,-3.3124,-3.3124,-3.3124,-3.3124,-3.3124,-3.3124,-3.3124,-3.3124,-3.3124,-3.3124,-3.3124,-3.3124,-3.3204,-3.3654,-3.2949,-3.2367,-3.2869,-3.2817,-3.2449,-3.1536,-3.0984,-3.047,-2.9917,-2.9829,-2.9829,-2.9792,-2.9792,-2.9792,-2.9792,-2.9792,-2.9792,-2.9792,-2.9792,-2.9792,-2.9792,-2.9792,-2.9792,-2.9792,-2.9792,-2.9792,-2.9792,-2.9792,-2.9792,-2.9792,-2.9792,-2.9792,-2.9792,-2.9792,-2.9792,-1.7276,-1.777,-1.8357,-1.9899,-2.0429,-2.0612,-2.0586,-2.0611,-2.0609,-2.0585,-1.9555,-1.8006,0.0,0.0,0.0,-1.9806,-2.0908,0.0,-2.2945,-2.3003,0.0,-2.2935,0.0,-2.335,-2.3457,-2.375,0.0,0.0,-2.3686,-2.3496,-2.3926,-2.4141,-2.4307,-2.4414,-2.5166,-2.5625,-2.5693,-2.5693,-2.5693,-2.5693,-2.5693,-2.5693,-2.5732,-2.7352,-2.8049,-2.8179,-3.0643,-3.1677,-3.1777,-3.2711,-3.3124,-3.3124,-3.3124,-3.3124,-3.3124,-3.3124,-3.3124,-3.3174,-3.3545,-3.342,-3.3124,-3.3124,-3.3124,-3.3124,-3.3124,-3.3124,-3.3124,-3.3124,-3.3124,-3.3124,-3.3124,-3.3124,-3.3124,-3.3124,-3.3124,-3.3116,-3.3238,-3.3055,-3.2764,-3.2463,-3.2059,-3.1699,-3.1427,-3.1286,-3.1009,-3.0482,-3.0407,-3.0256,-2.9842,-2.9792,-2.9792,-2.9792,-2.9792,-2.9792,-2.9792,-2.9792,-2.9792,-2.9792,-2.9792,-2.9792,-2.9792,-2.9792,-2.9792,-2.9792,-2.9792,-2.9792,-2.9792,-2.9792,-2.9792,-2.9792,-2.9792,-2.9792,-1.7815,-1.8581,-1.9559,-2.1283,-2.1154,-2.0602,-2.0609,-2.0585,-2.0388,-1.9603,-1.8082,0.0,-1.5087,-1.6255,-1.7859,0.0,0.0,0.0,-2.2685,-2.2984,-2.3091,0.0,-2.3315,0.0,-2.3506,-2.3721,-2.389,0.0,-2.3691,-2.3525,-2.3779,-2.4014,-2.4228,-2.4414,-2.5078,-2.5537,-2.5693,-2.5693,-2.5693,-2.5693,-2.5693,-2.5693,-2.5781,-2.7579,-2.8412,-2.8541,0.0,-3.2052,-3.2096,-3.2797,-3.3124,-3.3124,-3.3124,-3.2891,-3.2551,-3.2551,-3.2697,-3.2955,-3.3248,-3.3534,-3.3796,-3.3796,-3.3796,-3.3759,-3.3508,-3.3432,-3.3382,-3.3187,-3.3124,-3.3124,-3.3124,-3.3124,-3.3124,-3.3124,-3.3124,-3.324,-3.3713,-3.3441,-3.298,-3.2654,-3.234,-3.2051,-3.18,-3.175,-3.1574,-3.1035,-3.0947,-3.0758,-3.0218,-2.9942,-2.9792,-2.9792,-2.9792,-2.9792,-2.9792,-2.9792,-2.9792,-2.9792,-2.9792,-2.9792,-2.9792,-2.9792,-2.9792,-2.9792,-2.9792,-2.9792,-2.9792,-2.9792,-2.9792,-2.9792,-2.9792,-2.9792,-1.8321,-1.961,-2.1277,-2.2745,-2.184,-2.0595,-2.0597,-2.0089,-1.9213,-1.7906,0.0,-1.4831,-1.4074,-1.5419,-1.7053,-1.8311,0.0,-2.0518,-2.2266,-2.2779,-2.3052,-2.3169,-2.3179,-2.3198,-2.3257,-2.3266,-2.3403,-2.3769,-2.3789,-2.3789,-2.3789,-2.3838,-2.4092,-2.458,-2.4961,-2.5342,-2.5684,-2.5693,-2.5693,-2.5693,-2.5693,-2.5781,-2.6014,-2.8168,-2.9269,-2.9544,-3.1833,-3.284,-3.284,-3.3025,-3.3124,-3.3068,-3.2896,-3.2438,-3.1916,-3.1916,-3.2248,-3.2757,-3.2969,-3.3817,-3.4768,-3.4705,-3.468,-3.4625,-3.4161,-3.401,-3.3909,-3.3432,-3.3294,-3.3294,-3.3294,-3.3244,-3.3224,-3.3224,-3.3174,-3.3356,-3.4275,-3.3755,-3.3124,-3.3124,-3.3124,-3.2918,-3.2416,-3.2328,-3.2139,-3.1587,-3.1499,-3.1311,-3.0783,-3.0244,-2.988,-2.9804,-2.9792,-2.9792,-2.9792,-2.9792,-2.9792,-2.9792,-2.9792,-2.9792,-2.9792,-2.9792,-2.9792,-2.9792,-2.9792,-2.9792,-2.9792,-2.9792,-2.9792,-2.9792,-2.9792,-2.9792,-1.9944,-2.1375,-2.2747,-2.3021,-2.184,-2.0614,-2.0592,-1.7316,0.0,0.0,-1.4496,-1.3277,-1.3141,-1.4903,-1.6749,-1.7919,-1.9131,-2.0518,-2.2266,-2.2578,-2.2881,0.0,-2.3682,-2.3818,-2.416,-2.4153,0.0,0.0,-2.3789,-2.3789,-2.3789,-2.4121,-2.4678,-2.544,-2.5538,-2.5615,-2.5693,-2.5693,-2.5693,-2.5693,-2.5693,-2.6245,-2.7268,-2.772,-2.8448,-2.9498,-3.0911,0.0,-3.1589,-3.2655,-3.3124,-3.2982,-3.1952,-3.169,-3.1916,-3.2019,-3.2352,-3.2898,-3.4465,-3.516,-3.5282,-3.4818,-3.468,-3.4655,-3.4613,-3.4575,-3.4562,-3.4462,-3.4437,-3.4437,-3.4437,-3.4098,-3.3759,-3.3759,-3.3407,-3.3154,-3.3356,-3.324,-3.3124,-3.3124,-3.3124,-3.3086,-3.2943,-3.293,-3.2729,-3.2152,-3.2077,-3.1876,-3.1323,-3.0796,-3.0294,-2.9842,-2.9792,-2.9792,-2.9792,-2.9792,-2.9792,-2.9792,-2.9792,-2.9792,-2.9792,-2.9792,-2.9792,-2.9792,-2.9792,-2.9792,-2.9792,-2.9792,-2.9792,-2.9792,-2.9792,-2.9792,-2.1556,-2.2482,-2.31,-2.3084,-2.1838,-2.0362,-1.9448,0.0,0.0,0.0,-1.3459,-1.2894,-1.2894,-1.4289,0.0,-1.6831,-1.7891,-1.9277,-2.123,-2.1699,-2.2204,-2.333,-2.3457,-2.3535,0.0,-2.3705,-2.3627,-2.3467,-2.3457,-2.3457,-2.3457,-2.4062,-2.4777,-2.5664,-2.5693,-2.5693,-2.5693,-2.5693,-2.5693,-2.5693,-2.5693,-2.639,-2.7636,-2.8272,-2.9177,-3.0406,-3.1645,-3.1821,-3.1267,-3.1865,-3.1733,-3.1101,-3.0496,-3.0272,-3.0267,-3.0373,-3.1287,-3.26,-3.3536,-3.4773,-3.5931,-3.5655,-3.5579,-3.5529,-3.5194,-3.5107,-3.5044,-3.4756,-3.468,-3.468,-3.468,-3.4525,-3.4324,-3.4324,-3.3909,-3.342,-3.3144,-3.3124,-3.3124,-3.3124,-3.3124,-3.3124,-3.3124,-3.3124,-3.298,-3.2704,-3.2667,-3.2453,-3.1888,-3.1599,-3.1235,-3.0683,-3.062,-3.062,-3.062,-3.062,-3.062,-3.062,-3.0369,-3.0218,-3.0218,-2.9942,-2.9792,-2.9792,-2.9792,-2.9792,-2.9792,-2.9792,-2.9792,-2.9792,-2.9792,-2.9942,-2.2442,-2.2955,-2.3082,-2.3083,-2.1829,-2.0137,-1.8413,-1.6377,0.0,0.0,-1.2901,-1.29,-1.29,0.0,-1.4721,0.0,-1.667,-1.7988,-2.0165,-2.0889,-2.1629,0.0,-2.3042,0.0,-2.3091,-2.3091,0.0,-2.3091,-2.3179,-2.3276,-2.3364,-2.4053,-2.4777,-2.5664,-2.5693,-2.5693,-2.5693,-2.5693,-2.5693,-2.5693,-2.5693,-2.6476,-2.7992,-2.868,-2.9806,-3.1223,-3.1965,-3.1733,-3.081,-3.081,-3.0271,-2.9361,-2.9143,-2.8927,-2.8833,-2.9169,-3.0552,-3.2381,-3.2982,-3.4593,-3.6405,-3.6405,-3.6405,-3.6329,-3.5855,-3.5671,-3.5583,-3.5203,-3.5077,-3.5077,-3.5077,-3.4989,-3.4818,-3.4751,-3.4399,-3.3922,-3.337,-3.3257,-3.3262,-3.3106,-3.3124,-3.3124,-3.3124,-3.3124,-3.3124,-3.3124,-3.3124,-3.2918,-3.2453,-3.239,-3.2227,-3.18,-3.1537,-3.1386,-3.1386,-3.1386,-3.1386,-3.1386,-3.1009,-3.0783,-3.0783,-3.0369,-3.0131,-3.0131,-3.0131,-3.0131,-3.0131,-3.0131,-3.0131,-3.0131,-3.0131,-3.0369,-2.176,-2.2554,-2.3114,-2.3112,-2.184,-2.0154,-1.8412,0.0,-1.3092,-1.2938,-1.2907,-1.2895,-1.2895,0.0,0.0,0.0,0.0,-1.7506,-1.9668,-2.0664,-2.1522,-2.2461,0.0,0.0,-2.3091,-2.3091,-2.3091,-2.3091,-2.3506,-2.3896,-2.4277,-2.4375,-2.4777,-2.5664,-2.5693,-2.5693,-2.5693,-2.5693,-2.5693,-2.5693,-2.5693,-2.6935,-2.9223,-2.8226,-2.9039,-3.1134,-3.0181,-2.9681,0.0,-2.959,-2.9498,-2.9269,-2.8179,-2.8183,-2.8982,-3.0284,-3.1442,-3.2632,-3.515,-3.6203,-3.6405,-3.6405,-3.6405,-3.6405,-3.6342,-3.6329,-3.6317,-3.6267,-3.6254,-3.6254,-3.6254,-3.5843,-3.5295,-3.4839,-3.4675,-3.45,-3.3935,-3.3822,-3.3671,-3.3169,-3.3124,-3.3124,-3.3124,-3.3124,-3.3124,-3.3124,-3.3124,-3.3056,-3.3006,-3.3006,-3.3023,-3.2973,-3.2001,-3.1386,-3.1386,-3.1386,-3.1386,-3.1386,-3.1348,-3.1323,-3.1323,-3.1273,-3.1248,-3.1248,-3.1248,-3.1248,-3.1248,-3.1248,-3.1248,-3.1248,-3.1248,-3.1273,-2.1026,-2.1348,-2.1605,-2.1618,-2.1084,-1.9885,-1.7079,0.0,-1.2905,-1.289,-1.2895,-1.2905,-1.2905,-1.3042,0.0,0.0,0.0,0.0,-1.8086,-1.8906,-1.9865,-2.1512,-2.2129,0.0,0.0,0.0,-2.3091,-2.3091,-2.3545,-2.3975,-2.4394,-2.4668,-2.5098,-2.5674,-2.5693,-2.5693,-2.5693,-2.5693,-2.6062,-2.6849,-2.6849,-2.772,-2.9361,-2.8912,-2.9223,-3.009,-2.959,-2.9004,0.0,-2.8319,-2.7851,-2.7115,-2.6658,-2.7488,-2.8992,-2.9573,-3.1404,-3.3712,-3.4824,-3.5715,-3.6405,-3.6405,-3.6405,-3.6405,-3.6405,-3.6405,-3.6405,-3.6405,-3.6405,-3.6405,-3.6405,-3.6194,-3.5893,-3.5307,-3.5169,-3.5019,-3.4512,-3.4135,-3.3834,-3.3608,-3.3307,-3.3124,-3.3124,-3.3124,-3.3124,-3.3124,-3.3124,-3.3124,-3.3124,-3.3124,-3.3124,-3.3124,-3.2667,-3.2403,-3.2403,-3.2403,-3.2403,-3.2403,-3.2077,-3.1888,-3.1888,-3.1562,-3.1386,-3.1386,-3.1386,-3.1386,-3.1386,-3.1386,-3.1386,-3.1386,-3.1386,-3.1574,-2.0445,-2.0603,-2.0588,-2.0592,-2.0587,-1.968,0.0,-1.4112,-1.2896,-1.2908,-1.2905,-1.2978,-1.322,-1.3051,-1.3189,0.0,0.0,-1.4962,-1.6924,-1.7773,-1.8822,0.0,0.0,-2.1973,0.0,-2.2945,-2.3091,-2.3091,-2.3662,-2.4102,-2.4394,-2.4951,-2.541,-2.5674,-2.5693,-2.5693,-2.5693,-2.5693,-2.6149,-2.703,-2.74,-2.8049,-2.8855,-2.8855,-2.8855,-2.8866,-2.8448,-2.7804,0.0,-2.703,-2.6524,-2.5732,-2.611,-2.7309,-2.8901,-2.9813,-3.1851,-3.422,-3.4776,-3.5619,-3.6405,-3.6405,-3.6405,-3.6405,-3.6405,-3.6405,-3.6405,-3.6405,-3.6405,-3.6405,-3.6405,-3.6405,-3.6304,-3.5881,-3.5793,-3.5583,-3.5044,-3.4663,-3.4336,-3.4173,-3.3696,-3.3319,-3.3319,-3.3224,-3.3124,-3.3124,-3.3124,-3.3124,-3.3124,-3.3124,-3.3124,-3.3124,-3.3124,-3.3124,-3.3124,-3.3124,-3.3124,-3.3124,-3.2692,-3.2466,-3.2466,-3.2089,-3.1888,-3.1888,-3.1888,-3.1888,-3.1888,-3.1888,-3.1888,-3.1888,-3.1888,-3.2102,-2.0125,-2.06,-2.0614,-2.0604,-2.0591,-1.9695,-1.6195,-1.4099,-1.2907,-1.2894,-1.2905,-1.3148,-1.3947,-1.3447,-1.3228,-1.4229,0.0,0.0,-1.6521,-1.7798,-1.8909,0.0,0.0,-2.1375,-2.1855,-2.2646,-2.3091,-2.3091,-2.3881,0.0,-2.4414,-2.5206,-2.5684,-2.5693,-2.5693,-2.5693,-2.5693,-2.5693,-2.5693,-2.5732,-2.6982,-2.7589,-2.7636,-2.7636,-2.7636,-2.7542,-2.6294,-2.5732,0.0,-2.5742,-2.5684,-2.583,-2.7078,-2.7825,-2.8603,-3.1703,-3.3137,-3.3792,-3.572,-3.6405,-3.6405,-3.6405,-3.6405,-3.6405,-3.6405,-3.6405,-3.6405,-3.6405,-3.6405,-3.6405,-3.6405,-3.6405,-3.6405,-3.6405,-3.6405,-3.6207,-3.5608,-3.5483,-3.532,-3.4768,-3.4274,-3.3884,-3.3884,-3.3432,-3.3124,-3.3124,-3.3124,-3.3124,-3.3124,-3.3124,-3.3124,-3.3124,-3.3124,-3.3124,-3.3124,-3.3124,-3.3124,-3.3124,-3.3111,-3.3111,-3.3111,-3.3111,-3.3056,-3.3056,-3.3056,-3.3056,-3.3056,-3.3056,-3.3056,-3.3056,-3.3056,-3.3111,-2.0126,-2.0608,-2.0607,-2.0616,-1.9705,-1.8226,-1.5925,-1.4091,-1.2905,-1.2895,-1.334,-1.3805,-1.4052,-1.3773,-1.4006,-1.5523,0.0,0.0,0.0,0.0,0.0,-1.9844,-2.1424,-2.2545,0.0,0.0,-2.3091,-2.3091,-2.3662,-2.4111,-2.4404,-2.4971,-2.542,-2.5674,-2.5693,-2.5693,-2.5693,-2.5693,-2.6562,-2.8215,-2.7814,-2.8049,-2.8819,-2.8002,-2.7125,-2.6294,-2.5878,-2.5693,-2.5693,-2.5693,-2.6197,-2.703,-2.7447,-2.8928,-3.0962,-3.198,-3.3409,-3.4925,-3.559,-3.6044,-3.6405,-3.6405,-3.6405,-3.6405,-3.6405,-3.6405,-3.6405,-3.6405,-3.6405,-3.6405,-3.6405,-3.6405,-3.6405,-3.6405,-3.6405,-3.6367,-3.6144,-3.5805,-3.5445,-3.527,-3.4793,-3.4462,-3.4462,-3.401,-3.3633,-3.3633,-3.3319,-3.3124,-3.3124,-3.3124,-3.3124,-3.3124,-3.3124,-3.3124,-3.3124,-3.3124,-3.3124,-3.3124,-3.3124,-3.3124,-3.3124,-3.3124,-3.3124,-3.3124,-3.3124,-3.3124,-3.3124,-3.3124,-3.3124,-3.3124,-3.3124,-3.3124,0.0,-1.8185,-1.7682,-1.7697,-1.688,-1.5796,-1.4705,-1.3652,-1.2894,-1.29,-1.3542,-1.4159,-1.4302,-1.4035,-1.4229,-1.5557,-1.5287,0.0,0.0,0.0,0.0,-2.0245,0.0,0.0,0.0,-2.3003,-2.3091,-2.3091,-2.3545,-2.3906,-2.417,-2.459,-2.5019,-2.5469,-2.5596,-2.5693,-2.5693,-2.6197,-2.721,-2.8727,-2.8412,-2.8402,-2.868,-2.7955,-2.6897,-2.5693,-2.5693,-2.5693,0.0,-2.6197,-2.6897,-2.7673,-2.8588,-3.0102,-3.1836,-3.2514,-3.367,-3.4906,-3.5119,-3.5454,-3.5768,-3.5981,-3.6194,-3.6405,-3.6405,-3.6405,-3.6405,-3.6405,-3.6405,-3.6405,-3.6405,-3.6405,-3.6405,-3.6405,-3.6405,-3.6405,-3.6405,-3.6094,-3.5855,-3.5855,-3.5416,-3.4994,-3.4994,-3.4575,-3.4135,-3.3935,-3.3608,-3.3319,-3.3149,-3.3124,-3.3124,-3.3124,-3.3124,-3.3124,-3.3124,-3.3124,-3.3124,-3.3124,-3.3124,-3.3124,-3.3124,-3.3124,-3.3124,-3.3124,-3.3124,-3.3124,-3.3124,-3.3124,-3.3124,-3.3124,-3.3124,-3.3124,0.0,-1.4101,-1.2912,-1.2907,-1.2898,-1.2902,-1.2905,-1.2891,0.0,-1.2964,-1.358,-1.4219,-1.4662,-1.4235,-1.4022,-1.4702,0.0,0.0,0.0,-1.7373,0.0,0.0,-2.1728,0.0,-2.2519,-2.2867,-2.3091,-2.3091,-2.3516,-2.375,-2.3789,-2.416,-2.457,-2.5057,-2.5459,-2.5703,-2.583,-2.703,-2.7636,-2.7731,-2.8773,-2.868,-2.7589,-2.7494,-2.6802,0.0,-2.5693,-2.5732,-2.5917,-2.7125,-2.7683,-2.8085,-3.0305,-3.1267,-3.1548,-3.3226,-3.3872,-3.3972,-3.4487,-3.4688,-3.4768,-3.532,-3.5893,-3.6355,-3.6405,-3.6405,-3.6405,-3.6405,-3.6405,-3.6405,-3.6405,-3.6405,-3.6405,-3.6405,-3.6405,-3.6405,-3.6405,-3.6405,-3.6405,-3.6405,-3.5956,-3.5558,-3.5558,-3.5107,-3.4613,-3.4098,-3.3985,-3.3759,-3.3206,-3.3212,-3.3169,-3.3124,-3.3106,-3.3162,-3.3124,-3.3124,-3.3124,-3.3124,-3.3124,-3.3124,-3.3124,-3.3124,-3.3124,-3.3124,-3.3124,-3.3124,-3.3124,-3.3124,-3.3124,-3.3124,-3.3124,-3.3124,-1.3375,0.0,-1.2904,-1.2907,-1.2905,-1.2913,0.0,-1.2899,-1.3067,-1.3696,0.0,-1.4131,-1.499,-1.4404,-1.4289,-1.5748,0.0,0.0,-1.7363,0.0,0.0,-2.2477,-2.274,-2.2838,-2.2935,-2.3033,-2.3091,-2.3091,-2.3188,-2.3437,-2.3769,-2.3887,-2.4131,-2.456,-2.5,-2.5849,-2.7125,-2.7447,-2.8049,-2.8947,-2.8319,-2.7861,-2.7589,-2.6572,-2.5965,-2.5693,-2.5693,-2.6245,-2.7173,-2.7494,-2.868,-3.0406,-3.0989,-3.1821,-3.2723,-3.312,-3.3533,-3.3922,-3.4048,-3.4374,-3.4768,-3.532,-3.5596,-3.5818,-3.6279,-3.6405,-3.6405,-3.6405,-3.6405,-3.6405,-3.6405,-3.6405,-3.6405,-3.6405,-3.6405,-3.6405,-3.6405,-3.6405,-3.6405,-3.6405,-3.6304,-3.6169,-3.6169,-3.5717,-3.5257,-3.5132,-3.4756,-3.4324,-3.3771,-3.4073,-3.401,-3.3212,-3.3458,-3.3533,-3.3106,-3.3124,-3.3124,-3.3124,-3.3124,-3.3124,-3.3124,-3.3124,-3.3124,-3.3124,-3.3124,-3.3124,-3.3124,-3.3124,-3.3124,-3.3124,-3.3124,-3.3124,-1.2905,-1.2892,-1.2916,-1.2895,-1.2897,-1.2897,-1.2897,0.0,0.0,0.0,0.0,0.0,0.0,0.0,0.0,0.0,-1.5785,0.0,0.0,0.0,-2.1892,-2.2964,-2.3091,-2.3091,0.0,-2.3091,-2.3091,-2.3091,-2.3091,-2.3198,-2.3477,-2.3496,-2.3905,-2.4806,-2.5103,-2.5639,-2.6428,-2.7201,-2.7908,-2.8588,-2.7908,-2.7589,-2.7542,-2.6294,-2.6014,-2.6572,-2.6572,-2.7258,-2.8448,-2.9039,-3.0045,-3.1267,-3.1821,-3.2469,-3.3124,-3.3124,-3.3269,-3.352,-3.352,-3.3884,-3.4399,-3.4688,-3.5094,-3.5558,-3.5893,-3.6157,-3.6405,-3.6405,-3.6405,-3.6405,-3.6405,-3.6405,-3.6405,-3.6405,-3.6405,-3.6405,-3.6405,-3.6405,-3.6405,-3.6405,-3.6405,-3.6405,-3.6405,-3.6119,-3.583,-3.5533,-3.5245,-3.4856,-3.4349,-3.4537,-3.45,-3.3897,-3.3872,-3.3771,-3.3483,-3.3219,-3.3124,-3.3124,-3.3124,-3.3124,-3.3124,-3.3124,-3.3124,-3.3124,-3.3124,-3.3124,-3.3124,-3.3124,-3.3124,-3.3124,-3.3124,-3.3124,-1.29,-1.2897,-1.2898,-1.2906,-1.289,-1.2893,-1.2897,0.0,0.0,0.0,0.0,0.0,0.0,-1.4947,0.0,0.0,0.0,0.0,-1.9727,-2.1191,-2.2266,-2.3003,-2.3091,0.0,-2.3091,-2.3091,-2.3091,-2.3091,-2.3091,-2.3091,-2.3091,-2.3091,-2.3763,-2.5255,-2.5382,-2.5399,-2.5405,-2.7154,-2.7974,-2.7861,-2.7861,-2.7683,-2.7268,-2.6197,-2.638,-2.7589,0.0,0.0,-2.9761,-3.0765,-3.1311,-3.1589,-3.2655,-3.3124,-3.3124,-3.3124,-3.3124,-3.3124,-3.3124,-3.3382,-3.3784,-3.3872,-3.4525,-3.5282,-3.5445,-3.5868,-3.6304,-3.638,-3.6405,-3.6405,-3.6405,-3.6405,-3.6405,-3.6405,-3.6405,-3.6405,-3.6405,-3.6405,-3.6405,-3.6405,-3.6405,-3.6405,-3.6405,-3.6405,-3.6207,-3.5683,-3.5621,-3.542,-3.4868,-3.4914,-3.4914,-3.4738,-3.4374,-3.411,-3.4035,-3.3596,-3.3332,-3.3332,-3.3212,-3.3124,-3.3124,-3.3124,-3.3124,-3.3124,-3.3124,-3.3124,-3.3124,-3.3124,-3.3124,-3.3124,-3.3124,-3.3162,-1.29,-1.2892,-1.2905,-1.2888,-1.2905,-1.2913,-1.2894,0.0,0.0,0.0,0.0,0.0,0.0,-1.464,-1.4649,0.0,0.0,-1.9238,0.0,0.0,-2.2598,-2.3033,0.0,-2.3091,-2.3091,-2.3091,-2.3091,-2.3091,-2.3091,-2.3091,-2.3091,-2.3091,-2.3667,-2.4849,-2.5204,-2.5869,-2.6769,-2.8891,-2.9711,-2.9131,-2.9131,-2.8028,-2.5965,-2.5781,-2.638,-2.7589,0.0,-2.8866,-3.0944,-3.1134,-3.1821,-3.284,-3.3025,-3.3124,-3.3124,-3.3124,-3.3124,-3.3124,-3.3124,-3.3131,-3.3282,-3.3746,-3.401,-3.4324,-3.5219,-3.5558,-3.5768,-3.6279,-3.6405,-3.6405,-3.6405,-3.6405,-3.6405,-3.6405,-3.6405,-3.6405,-3.6405,-3.6405,-3.6405,-3.6405,-3.6405,-3.6405,-3.6405,-3.6405,-3.638,-3.6304,-3.6279,-3.6044,-3.5445,-3.5818,-3.5755,-3.4781,-3.5019,-3.5056,-3.4638,-3.4512,-3.4462,-3.4462,-3.3596,-3.3124,-3.3124,-3.3124,-3.3124,-3.3124,-3.3124,-3.3124,-3.3124,-3.3124,-3.3124,-3.3124,-3.3124,-3.3319,-1.289,-1.4255,-1.5424,-1.4478,-1.389,-1.3615,-1.3775,0.0,0.0,0.0,0.0,0.0,0.0,0.0,-1.6127,-1.7586,0.0,-2.0635,-2.1465,-2.2119,-2.2666,0.0,0.0,-2.3091,-2.3091,-2.3091,-2.3091,-2.3091,-2.3091,-2.3091,-2.3091,-2.3671,-2.4553,-2.5672,-2.6465,-2.7557,-2.8986,-2.9398,-2.9028,-2.792,-2.8283,-2.7484,-2.5732,-2.6428,-2.74,-2.8588,0.0,-3.0586,-3.2239,-3.2239,-3.2568,-3.3124,-3.3124,-3.3124,-3.3124,-3.3124,-3.3124,-3.3124,-3.3124,-3.3124,-3.3162,-3.337,-3.3658,-3.4048,-3.4806,-3.5257,-3.5621,-3.6207,-3.6405,-3.6405,-3.6405,-3.6405,-3.6405,-3.6405,-3.6405,-3.6405,-3.6405,-3.6405,-3.6405,-3.6405,-3.6405,-3.6405,-3.6405,-3.6405,-3.6405,-3.6405,-3.6405,-3.6317,-3.6019,-3.6207,-3.6216,-3.5655,-3.5567,-3.5395,-3.5144,-3.4856,-3.468,-3.468,-3.4248,-3.3834,-3.3533,-3.352,-3.3382,-3.3124,-3.3124,-3.3124,-3.3124,-3.3124,-3.3232,-3.352,-3.352,-3.3822,-1.2893,-1.482,-1.6542,-1.5468,0.0,-1.4443,-1.4605,-1.4535,0.0,0.0,0.0,0.0,0.0,-1.6808,0.0,-1.9386,-2.0684,-2.165,-2.1982,-2.2393,-2.274,-2.3052,-2.3091,-2.3091,-2.3091,-2.3091,-2.3091,-2.3091,-2.3091,-2.3091,-2.3091,-2.4168,-2.5336,-2.6472,-2.7522,-2.871,-2.9985,-2.9282,-2.8256,-2.6981,-2.7167,-2.6679,-2.5576,-2.6543,-2.7885,-2.9453,-3.0406,-3.1645,-3.3124,-3.3124,-3.3124,-3.3124,-3.3124,-3.3124,-3.3124,-3.3124,-3.3124,-3.3124,-3.3124,-3.3124,-3.3124,-3.3124,-3.337,-3.3809,-3.4361,-3.4781,-3.5257,-3.5981,-3.6169,-3.6194,-3.6367,-3.6405,-3.6452,-3.6709,-3.6581,-3.6452,-3.6756,-3.6581,-3.6405,-3.6405,-3.6405,-3.6405,-3.6405,-3.6405,-3.6405,-3.6405,-3.6405,-3.6405,-3.6405,-3.6405,-3.6405,-3.6405,-3.5994,-3.5683,-3.5683,-3.5353,-3.5102,-3.5102,-3.4864,-3.4537,-3.411,-3.4085,-3.3884,-3.347,-3.3458,-3.3458,-3.3458,-3.3458,-3.3684,-3.4085,-3.4085,-3.4387,-1.2913,-1.307,-1.3487,-1.4421,-1.499,0.0,-1.4875,-1.5059,0.0,-1.593,0.0,0.0,0.0,-1.8007,-1.9438,-2.0361,-2.1572,-2.2432,-2.2461,0.0,-2.3062,-2.3091,-2.3091,-2.3091,-2.3091,-2.3091,-2.3091,-2.3091,-2.3091,-2.3091,-2.3091,-2.4168,-2.5336,-2.6472,-2.7522,-2.8148,-2.8275,-2.8712,-2.8517,-2.7798,-2.6838,-2.5971,-2.5165,-2.525,-2.6796,-2.9407,-2.9498,-3.0866,-3.3124,-3.3124,-3.3124,-3.3124,-3.3124,-3.3124,-3.3124,-3.3124,-3.3124,-3.3124,-3.3124,-3.3124,-3.3124,-3.3124,-3.3149,-3.3244,-3.3796,-3.3985,-3.4236,-3.5257,-3.5558,-3.5671,-3.6267,-3.6405,-3.6675,-3.7723,-3.715,-3.6675,-3.7756,-3.715,-3.6405,-3.6405,-3.6405,-3.6405,-3.6405,-3.6405,-3.6405,-3.6405,-3.6405,-3.6405,-3.6405,-3.6405,-3.6405,-3.6405,-3.6367,-3.6355,-3.6355,-3.6317,-3.6292,-3.6292,-3.529,-3.4655,-3.4618,-3.4618,-3.4605,-3.4613,-3.4555,-3.4555,-3.4555,-3.4555,-3.4625,-3.4618,-3.4618,-3.4919,-1.261,-1.3664,-1.4486,-1.4582,-1.5554,0.0,0.0,-1.6093,-1.6395,-1.7129,-1.7275,0.0,0.0,0.0,-2.0693,-2.1289,-2.2236,-2.2857,-2.2857,-2.2994,-2.3091,-2.3091,-2.3091,-2.3387,-2.4082,-2.3507,-2.3387,-2.4082,-2.3507,-2.3091,-2.3091,-2.484,-2.6058,-2.6483,-2.8239,-2.8819,-2.8096,-2.7638,-2.6914,-2.5948,-2.6199,-2.5735,-2.4705,-2.6173,-2.742,-2.8588,-3.0363,-3.1681,-3.2566,-3.293,-3.3124,-3.3124,-3.3124,-3.3124,-3.3124,-3.3124,-3.3124,-3.3124,-3.3124,-3.3124,-3.3124,-3.3124,-3.3124,-3.3181,-3.3734,-3.3897,-3.406,-3.4768,-3.5232,-3.5621,-3.6267,-3.6405,-3.6675,-3.7848,-3.7243,-3.6709,-3.7848,-3.7196,-3.6405,-3.6405,-3.6405,-3.6405,-3.6405,-3.6405,-3.6405,-3.6405,-3.6405,-3.6405,-3.6405,-3.6405,-3.6405,-3.6405,-3.6405,-3.6405,-3.6405,-3.6405,-3.6405,-3.6405,-3.6015,-3.5592,-3.5207,-3.5194,-3.5031,-3.4726,-3.468,-3.468,-3.468,-3.468,-3.4856,-3.5194,-3.5194,-3.5529,-1.2344,-1.3579,-1.4588,-1.4466,0.0,0.0,-1.6998,-1.7204,-1.7584,-1.8613,-1.8701,0.0,-1.9561,0.0,0.0,0.0,-2.2598,-2.3091,-2.3091,-2.3091,-2.3222,-2.3594,-2.3637,-2.3963,-2.4702,-2.4082,-2.38,-2.4211,-2.3551,-2.3091,-2.3091,-2.5274,-2.6524,-2.6524,-2.8291,-2.874,-2.7602,-2.6502,-2.5389,-2.4253,-2.4967,-2.508,-2.4791,-2.6395,-2.7609,-2.8557,-3.0513,-3.1605,-3.2001,-3.2566,-3.2918,-3.3124,-3.3124,-3.3124,-3.3124,-3.3124,-3.3124,-3.3124,-3.3124,-3.3124,-3.3124,-3.3124,-3.3124,-3.3156,-3.3533,-3.3633,-3.3759,-3.4311,-3.4726,-3.519,-3.5918,-3.6279,-3.6803,-3.8302,-3.7507,-3.6709,-3.7848,-3.7196,-3.6405,-3.6405,-3.6405,-3.6405,-3.6405,-3.6405,-3.6405,-3.6405,-3.6405,-3.6405,-3.6405,-3.6405,-3.6405,-3.6405,-3.6405,-3.6405,-3.6405,-3.6405,-3.6405,-3.6405,-3.6405,-3.6194,-3.5818,-3.5805,-3.5629,-3.524,-3.524,-3.524,-3.524,-3.524,-3.5441,-3.5805,-3.5805,-3.6006,-1.2165,-1.2458,-1.3111,0.0,0.0,0.0,-1.7529,-1.8305,-1.8968,-2.0341,-2.0234,-2.0068,-2.0537,-2.0625,0.0,-2.1748,-2.2598,-2.3091,-2.3091,-2.3091,-2.3551,-2.466,-2.483,-2.483,-2.483,-2.4787,-2.4339,-2.3222,-2.3101,-2.3091,-2.3091,-2.5274,-2.6524,-2.6524,-2.7522,-2.7562,-2.6513,-2.5378,-2.4211,-2.3091,-2.3091,-2.3911,-2.5413,-2.5413,-2.6942,-2.9599,-2.9611,-3.0306,-3.1424,-3.1989,-3.2554,-3.3111,-3.3124,-3.3124,-3.3124,-3.3124,-3.3124,-3.3124,-3.3124,-3.3124,-3.3124,-3.3124,-3.3124,-3.3124,-3.3124,-3.3124,-3.3194,-3.3734,-3.3897,-3.4148,-3.524,-3.5931,-3.6977,-3.9316,-3.8088,-3.6709,-3.7848,-3.7196,-3.6405,-3.6405,-3.6405,-3.6405,-3.6405,-3.6405,-3.6405,-3.6405,-3.6405,-3.6405,-3.6405,-3.6405,-3.6405,-3.6405,-3.6405,-3.6405,-3.6405,-3.6405,-3.6405,-3.6405,-3.6405,-3.6405,-3.6405,-3.6405,-3.6405,-3.6405,-3.6405,-3.6405,-3.6405,-3.6405,-3.6405,-3.6405,-3.6405,-3.6405,-1.2055,-1.2954,0.0,-1.4474,0.0,0.0,0.0,-1.851,0.0,0.0,-2.1172,-2.1338,-2.1475,-2.1738,0.0,-2.2285,-2.274,-2.3091,-2.3091,-2.38,-2.4414,-2.4745,-2.5504,-2.6016,-2.6016,-2.5252,-2.466,-2.4339,-2.3551,-2.3091,-2.3091,-2.5274,-2.6524,-2.6524,-2.7522,-2.7562,-2.6513,-2.5378,-2.4211,-2.3091,-2.392,-2.4529,-2.4997,-2.5816,-2.7054,-2.8624,-2.9776,-3.0512,-3.0922,-3.1838,-3.2315,-3.2503,-3.2918,-3.3124,-3.3124,-3.3124,-3.3124,-3.3124,-3.3124,-3.3124,-3.3124,-3.3124,-3.3124,-3.3124,-3.3124,-3.3124,-3.3106,-3.3269,-3.3608,-3.4136,-3.5292,-3.5379,-3.5791,-3.8103,-3.7507,-3.6709,-3.7848,-3.7196,-3.6405,-3.6405,-3.6405,-3.6405,-3.6405,-3.6405,-3.6405,-3.6405,-3.6405,-3.6405,-3.6405,-3.6405,-3.6405,-3.6405,-3.6405,-3.6405,-3.6405,-3.6405,-3.6405,-3.6405,-3.6405,-3.6405,-3.6405,-3.6405,-3.6405,-3.6405,-3.6405,-3.6405,-3.6405,-3.6405,-3.6405,-3.6405,-3.6405,-3.6405,-1.2569,-1.3584,0.0,-1.5382,-1.6856,-1.8271,-1.896,0.0,0.0,0.0,0.0,-2.1728,-2.207,-2.2207,0.0,-2.248,-2.2818,-2.3266,-2.3714,-2.4382,-2.5115,-2.6025,-2.6337,-2.6524,-2.6524,-2.5462,-2.4617,-2.4168,-2.3474,-2.3091,-2.3091,-2.4851,-2.5797,-2.5797,-2.6449,-2.6491,-2.5839,-2.467,-2.38,-2.3091,-2.4253,-2.5041,-2.5504,-2.6625,-2.7747,-2.8831,-2.9843,-3.0407,-3.067,-3.1311,-3.17,-3.1938,-3.2516,-3.2729,-3.2767,-3.2993,-3.3124,-3.3124,-3.3124,-3.3124,-3.3124,-3.3124,-3.3124,-3.3124,-3.3124,-3.3124,-3.3124,-3.3124,-3.3319,-3.3783,-3.4697,-3.464,-3.4964,-3.7232,-3.6908,-3.6315,-3.7224,-3.6883,-3.6405,-3.6405,-3.6405,-3.6405,-3.6405,-3.6405,-3.6405,-3.6405,-3.6405,-3.6405,-3.6405,-3.6405,-3.6405,-3.6405,-3.6405,-3.6405,-3.6405,-3.6405,-3.6405,-3.6405,-3.6405,-3.6405,-3.6405,-3.6405,-3.6405,-3.6405,-3.6405,-3.6405,-3.6405,-3.6405,-3.6405,-3.6405,-3.6405,-3.6405,-1.3367,0.0,0.0,-1.6428,-1.7408,0.0,-1.9686,-2.0596,-2.1299,-2.1738,0.0,-2.1551,-2.2363,-2.2236,-2.2129,-2.251,-2.2847,-2.3507,-2.4617,-2.4872,-2.5703,-2.7723,-2.7168,-2.6565,-2.6348,-2.542,-2.4339,-2.3178,-2.3091,-2.3091,-2.3091,-2.4168,-2.4787,-2.4787,-2.4787,-2.483,-2.4957,-2.3844,-2.3309,-2.343,-2.4542,-2.563,-2.6678,-2.7643,-2.8727,-2.9792,-2.9792,-3.008,-3.0545,-3.0595,-3.0896,-3.1373,-3.1926,-3.2177,-3.2277,-3.2805,-3.3031,-3.3124,-3.3124,-3.3124,-3.3124,-3.3124,-3.3124,-3.3124,-3.3124,-3.3124,-3.3124,-3.3124,-3.3124,-3.3194,-3.3696,-3.3822,-3.4382,-3.6502,-3.6238,-3.5633,-3.6182,-3.6367,-3.6405,-3.6405,-3.6405,-3.6405,-3.6405,-3.6405,-3.6405,-3.6405,-3.6405,-3.6405,-3.6405,-3.6405,-3.6405,-3.6405,-3.6405,-3.6405,-3.6405,-3.6405,-3.6405,-3.6405,-3.6405,-3.6405,-3.6405,-3.6405,-3.6405,-3.6405,-3.6405,-3.6405,-3.6405,-3.6405,-3.6405,-3.6405,-3.6405,-3.6405,-1.2464,-1.4235,0.0,0.0,-1.8617,-2.0096,-2.0384,-2.0576,-2.084,-2.1239,-2.1795,-2.2295,-2.248,-2.2705,-2.2857,-2.2945,-2.3033,-2.3507,-2.4617,-2.5588,-2.6307,-2.6801,-2.736,-2.7064,-2.5336,-2.4957,-2.4339,-2.3178,-2.3091,-2.3091,-2.3091,-2.4168,-2.4787,-2.4787,-2.4787,-2.521,-2.6141,-2.4999,-2.4882,-2.5766,-2.686,-2.751,-2.7763,-2.8004,-2.8727,-2.9792,-2.9792,-2.9867,-3.0005,-3.0432,-3.0683,-3.0834,-3.1361,-3.1838,-3.2227,-3.2353,-3.2692,-3.3124,-3.3124,-3.3124,-3.3124,-3.3124,-3.3124,-3.3124,-3.3124,-3.3124,-3.3124,-3.3124,-3.3124,-3.3149,-3.3219,-3.3257,-3.3507,-3.4426,-3.5082,-3.5533,-3.5658,-3.6056,-3.6405,-3.6405,-3.6405,-3.6405,-3.6405,-3.6405,-3.6405,-3.6405,-3.6405,-3.6405,-3.6405,-3.6405,-3.6405,-3.6405,-3.6405,-3.6405,-3.6405,-3.6405,-3.6405,-3.6405,-3.6405,-3.6405,-3.6405,-3.6405,-3.6405,-3.6405,-3.6405,-3.6405,-3.6405,-3.6405,-3.6405,-3.6405,-3.6405,-3.6405,0.0,0.0,0.0,-1.9091,0.0,-2.182,-2.1666,-2.1439,-2.1331,-2.1534,-2.1749,-2.2021,-2.2432,-2.2685,-2.2867,-2.3062,-2.3551,-2.4296,-2.5462,-2.6141,-2.6678,-2.7197,-2.6819,-2.6066,-2.4914,-2.4296,-2.3757,-2.3135,-2.3091,-2.3091,-2.3091,-2.3671,-2.4006,-2.4006,-2.4006,-2.4253,-2.4851,-2.484,-2.5083,-2.5714,-2.7308,-2.8386,-2.8897,-2.8897,-2.9236,-2.9792,-2.9792,-2.9792,-2.9817,-3.0105,-3.0218,-3.0269,-3.0809,-3.1198,-3.1512,-3.2026,-3.2403,-3.2704,-3.298,-3.3124,-3.3124,-3.3124,-3.3124,-3.3124,-3.3124,-3.3124,-3.3124,-3.3124,-3.3124,-3.3124,-3.3124,-3.3124,-3.3156,-3.3432,-3.4349,-3.5182,-3.5445,-3.5968,-3.6405,-3.6405,-3.6405,-3.6405,-3.6405,-3.6405,-3.6405,-3.6405,-3.6405,-3.6405,-3.6405,-3.6405,-3.6405,-3.6405,-3.6405,-3.6405,-3.6405,-3.6405,-3.6405,-3.6405,-3.6405,-3.6405,-3.6405,-3.6405,-3.6405,-3.6405,-3.6405,-3.6405,-3.6405,-3.6405,-3.6405,-3.6405,-3.6405,-3.6405,0.0,0.0,-1.8782,-2.1102,-2.245,0.0,-2.2757,-2.2411,-2.2083,-2.2017,-2.1556,-2.1405,-2.2116,-2.2353,-2.2552,-2.3057,-2.3932,-2.5038,-2.646,-2.6472,-2.6699,-2.7711,-2.6025,-2.4702,-2.4542,-2.3627,-2.3091,-2.3091,-2.3091,-2.3091,-2.3091,-2.3091,-2.3091,-2.3091,-2.3309,-2.3474,-2.3681,-2.4787,-2.5452,-2.5703,-2.7522,-2.8897,-2.9792,-2.9792,-2.9792,-2.9792,-2.9792,-2.9792,-2.9792,-2.9792,-2.9792,-2.9842,-3.0294,-3.0532,-3.0721,-3.1612,-3.1989,-3.2152,-3.2729,-3.293,-3.2943,-3.3086,-3.3124,-3.3124,-3.3124,-3.3124,-3.3124,-3.3124,-3.3124,-3.3124,-3.3124,-3.3124,-3.3124,-3.3124,-3.3847,-3.4726,-3.5245,-3.5906,-3.6405,-3.6405,-3.6405,-3.6405,-3.6405,-3.6405,-3.6405,-3.6405,-3.6405,-3.6405,-3.6405,-3.6405,-3.6405,-3.6405,-3.6405,-3.6405,-3.6405,-3.6405,-3.6405,-3.6405,-3.6405,-3.6405,-3.6405,-3.6405,-3.6405,-3.6405,-3.6405,-3.6405,-3.6405,-3.6405,-3.6405,-3.6405,-3.6405,-3.6405,0.0,0.0,-1.9104,0.0,-2.2178,-2.2634,0.0,0.0,-2.2495,0.0,-2.1556,-2.1229,-2.1346,-2.1719,-2.2253,-2.3145,-2.3388,-2.4363,-2.6839,-2.6331,-2.5979,-2.6621,-2.5588,-2.4414,-2.342,-2.3178,-2.3091,-2.3091,-2.3091,-2.3091,-2.3091,-2.3091,-2.3091,-2.3091,-2.4049,-2.5041,-2.6058,-2.7116,-2.8148,-2.9118,-2.9417,-2.9663,-2.9792,-2.9792,-2.9792,-2.9792,-2.9792,-2.9792,-2.9792,-2.9792,-2.9792,-2.9804,-2.988,-3.0193,-3.0633,-3.0771,-3.111,-3.1574,-3.2139,-3.2328,-3.2416,-3.2918,-3.3124,-3.3124,-3.3124,-3.3124,-3.3124,-3.3124,-3.3124,-3.3124,-3.3124,-3.3124,-3.3124,-3.3124,-3.3558,-3.4161,-3.4668,-3.5642,-3.6405,-3.6405,-3.6405,-3.6405,-3.6405,-3.6405,-3.6405,-3.6405,-3.6405,-3.6405,-3.6405,-3.6405,-3.6405,-3.6405,-3.6405,-3.6405,-3.6405,-3.6405,-3.6405,-3.6405,-3.6405,-3.6405,-3.6405,-3.6405,-3.6405,-3.6405,-3.6405,-3.6405,-3.6405,-3.6405,-3.6405,-3.6405,-3.6405,-3.6405,-1.5288,-1.7277,-1.9236,0.0,-2.2445,-2.2931,-2.3338,0.0,-2.2628,-2.2441,-2.1583,-2.0937,-2.1151,-2.1356,-2.1897,-2.309,-2.3841,-2.4668,-2.5833,-2.5582,-2.5158,-2.4846,-2.4054,-2.331,-2.2826,-2.2955,-2.3091,-2.3091,-2.3091,-2.3091,-2.3091,-2.3091,-2.3387,-2.4049,-2.4542,-2.5336,-2.6483,-2.7562,-2.8688,-2.9792,-2.9792,-2.9792,-2.9792,-2.9792,-2.9792,-2.9792,-2.9792,-2.9792,-2.9792,-2.9792,-2.9792,-2.9792,-2.9792,-2.9942,-3.0193,-3.0507,-3.0758,-3.1072,-3.1926,-3.2215,-3.2303,-3.288,-3.3124,-3.3124,-3.3124,-3.3124,-3.3124,-3.3124,-3.3124,-3.3124,-3.3124,-3.3124,-3.3124,-3.3124,-3.3495,-3.4048,-3.4555,-3.5353,-3.5994,-3.6342,-3.6405,-3.6405,-3.6405,-3.6405,-3.6405,-3.6405,-3.6405,-3.6405,-3.6405,-3.6405,-3.6405,-3.6405,-3.6405,-3.6405,-3.6405,-3.6405,-3.6405,-3.6405,-3.6405,-3.6405,-3.6405,-3.6405,-3.6405,-3.6405,-3.6405,-3.6405,-3.6405,-3.6405,-3.6405,-3.6405,-3.6405,-3.6405,0.0,0.0,-1.8709,-2.1079,-2.2167,-2.2869,0.0,0.0,-2.2983,0.0,-2.185,-2.1211,-2.1362,-2.1402,-2.1916,-2.3474,-2.4459,-2.5051,-2.5176,-2.4968,-2.447,-2.3602,-2.2826,-2.2393,-2.25,-2.275,-2.2984,-2.3091,-2.3091,-2.3091,-2.3091,-2.3387,-2.392,-2.4787,-2.5368,-2.6036,-2.6883,-2.7988,-2.8976,-2.9792,-2.9792,-2.9792,-2.9792,-2.9792,-2.9792,-2.9792,-2.9792,-2.9792,-2.9792,-2.9792,-2.9792,-2.9792,-2.9792,-2.9792,-2.9842,-3.0256,-3.0407,-3.0545,-3.1486,-3.1813,-3.1967,-3.2942,-3.3098,-3.2965,-3.339,-3.3313,-3.3124,-3.3124,-3.3124,-3.3124,-3.3124,-3.3124,-3.3124,-3.3124,-3.3495,-3.4085,-3.4776,-3.532,-3.5868,-3.6329,-3.6405,-3.6405,-3.6405,-3.6405,-3.6405,-3.6405,-3.6405,-3.6405,-3.6405,-3.6405,-3.6405,-3.6405,-3.6405,-3.6405,-3.6405,-3.6405,-3.6405,-3.6405,-3.6405,-3.6405,-3.6405,-3.6405,-3.6405,-3.6405,-3.6405,-3.6405,-3.6405,-3.6405,-3.6405,-3.6405,-3.6405,-3.6405,0.0,-1.6604,0.0,-1.9359,0.0,0.0,0.0,0.0,0.0,-2.2876,-2.2631,-2.2473,-2.206,-2.1956,-2.2596,-2.4598,-2.4945,-2.5182,-2.5681,-2.4889,-2.4057,-2.356,-2.2554,-2.207,-2.2471,-2.2529,-2.2672,-2.3062,-2.3091,-2.3091,-2.3091,-2.4125,-2.4745,-2.4787,-2.6849,-2.7964,-2.8004,-2.9157,-2.9753,-2.9792,-2.9792,-2.9792,-2.9792,-2.9792,-2.9792,-2.9792,-2.9792,-2.9792,-2.9792,-2.9792,-2.9792,-2.9792,-2.9792,-2.9792,-2.9792,-2.9829,-2.9829,-2.9917,-3.0507,-3.0696,-3.1019,-3.3103,-3.3073,-3.255,-3.4134,-3.3911,-3.3124,-3.3124,-3.3124,-3.3124,-3.3124,-3.3124,-3.3124,-3.3124,-3.3495,-3.4198,-3.5219,-3.5931,-3.6367,-3.6405,-3.6405,-3.6405,-3.6405,-3.6405,-3.6405,-3.6405,-3.6405,-3.6405,-3.6405,-3.6405,-3.6405,-3.6405,-3.6405,-3.6405,-3.6405,-3.6405,-3.6405,-3.6405,-3.6405,-3.6405,-3.6405,-3.6405,-3.6405,-3.6405,-3.6405,-3.6405,-3.6405,-3.6405,-3.6405,-3.6405,-3.6405,-3.6405,0.0,0.0,0.0,-1.8493,-1.9597,-2.0602,-2.138,-2.1626,-2.1597,-2.1296,-2.1044,-2.1261,-2.2371,-2.2274,-2.2664,-2.4671,-2.4445,-2.4093,-2.4301,-2.3438,-2.2495,-2.1725,-2.152,-2.1533,-2.1639,-2.1943,-2.2285,-2.2662,-2.2691,-2.3143,-2.4157,-2.4585,-2.5452,-2.6849,-2.7683,-2.8466,-2.9197,-2.9585,-2.9792,-2.9792,-2.9792,-2.9792,-2.9792,-2.9792,-2.9792,-2.9792,-2.9792,-2.9792,-2.9792,-2.9792,-2.9792,-2.9792,-2.9792,-2.9792,-2.9792,-2.9792,-2.9792,-2.988,-3.0419,-3.062,-3.0823,-3.2291,-3.2523,-3.2399,-3.3377,-3.3398,-3.3124,-3.3124,-3.3124,-3.3124,-3.3124,-3.3124,-3.3212,-3.352,-3.4022,-3.4625,-3.5332,-3.5968,-3.6405,-3.6405,-3.6405,-3.6405,-3.6405,-3.6405,-3.6405,-3.6405,-3.6405,-3.6405,-3.6405,-3.6405,-3.6405,-3.6405,-3.6405,-3.6405,-3.6405,-3.6405,-3.6405,-3.6405,-3.6405,-3.6405,-3.6405,-3.6405,-3.6405,-3.6405,-3.6405,-3.6405,-3.6405,-3.6405,-3.6405,-3.6405,-3.6405,-3.6405,-1.4493,0.0,0.0,0.0,0.0,-1.9044,-2.0613,0.0,-2.0113,-2.0341,-2.0138,-2.0442,-2.226,-2.215,-2.2629,-2.511,-2.466,-2.3891,-2.3562,-2.2627,-2.1669,-2.0712,-2.083,-2.1064,-2.1181,-2.1494,-2.1846,-2.2275,-2.2569,0.0,-2.4535,-2.5256,-2.6556,-2.8597,-2.8688,-2.9028,-2.9792,-2.9792,-2.9792,-2.9792,-2.9792,-2.9792,-2.9792,-2.9792,-2.9792,-2.9792,-2.9792,-2.9792,-2.9792,-2.9792,-2.9792,-2.9792,-2.9792,-2.9792,-2.9792,-2.9792,-2.9792,-2.9881,-3.0559,-3.0581,-3.0626,-3.2389,-3.2465,-3.2147,-3.3284,-3.3398,-3.3124,-3.3124,-3.3124,-3.3124,-3.3124,-3.3124,-3.3269,-3.3997,-3.4462,-3.4881,-3.5655,-3.6107,-3.6405,-3.6405,-3.6405,-3.6405,-3.6405,-3.6405,-3.6405,-3.6405,-3.6405,-3.6405,-3.6405,-3.6405,-3.6405,-3.6405,-3.6405,-3.6405,-3.6405,-3.6405,-3.6405,-3.6405,-3.6405,-3.6405,-3.6405,-3.6405,-3.6405,-3.6405,-3.6405,-3.6405,-3.6405,-3.6405,-3.6405,-3.6405,-3.6405,-3.6405,0.0,0.0,0.0,0.0,0.0,0.0,-2.058,0.0,-1.9373,-2.0152,-2.006,-2.0315,-2.1718,-2.1688,-2.2526,-2.5877,-2.5569,-2.4564,-2.3588,-2.259,-2.1631,-2.0712,-2.0644,-2.0772,-2.1172,-2.1251,-2.1467,-2.1909,-2.2818,-2.3591,-2.4228,-2.6228,-2.8079,-2.9703,-2.9779,-2.9792,-2.9792,-2.9792,-2.9792,-2.9792,-2.9792,-2.9792,-2.9792,-2.9792,-2.9792,-2.9792,-2.9792,-2.9792,-2.9792,-2.9792,-2.9792,-2.9792,-2.9792,-2.9792,-2.9792,-2.9792,-2.9792,-2.9934,-3.0833,-3.0558,-3.0291,-3.3317,-3.2974,-3.1792,-3.3992,-3.3911,-3.3124,-3.3124,-3.3124,-3.3124,-3.3124,-3.3124,-3.3357,-3.4462,-3.468,-3.5027,-3.6166,-3.6405,-3.6405,-3.6405,-3.6405,-3.6405,-3.6405,-3.6405,-3.6405,-3.6405,-3.6405,-3.6405,-3.6405,-3.6405,-3.6405,-3.6405,-3.6405,-3.6405,-3.6405,-3.6405,-3.6405,-3.6405,-3.6405,-3.6405,-3.6405,-3.6405,-3.6405,-3.6405,-3.6405,-3.6405,-3.6405,-3.6405,-3.6405,-3.6405,-3.6405,-3.6417,-1.418,0.0,0.0,0.0,0.0,0.0,0.0,0.0,-1.6681,-1.7835,-1.8554,-1.9477,-2.123,-2.223,-2.3131,-2.4155,-2.3484,-2.2739,-2.244,-2.1593,-2.0895,-2.0644,-2.1193,-2.1645,-2.1778,-2.2427,-2.3075,0.0,-2.3814,-2.4525,-2.5819,-2.7529,-2.8686,-2.9126,-2.9578,-2.9792,-2.9792,-2.9792,-2.9792,-2.9792,-2.9792,-2.9792,-2.9792,-2.9792,-2.9792,-2.9792,-2.9792,-2.9792,-2.9792,-2.9792,-2.9792,-2.9792,-2.9792,-2.9792,-2.9792,-2.9792,-2.9792,-2.983,-3.0113,-2.9998,-3.0084,-3.1716,-3.1847,-3.1682,-3.3085,-3.3356,-3.3124,-3.3124,-3.3124,-3.3124,-3.3124,-3.3124,-3.3357,-3.4462,-3.468,-3.5027,-3.6166,-3.6405,-3.6405,-3.6405,-3.6405,-3.6405,-3.6405,-3.6405,-3.6405,-3.6405,-3.6405,-3.6405,-3.6405,-3.6405,-3.6405,-3.6405,-3.6405,-3.6405,-3.6405,-3.6405,-3.6405,-3.6405,-3.6405,-3.6405,-3.6405,-3.6405,-3.6405,-3.6405,-3.6405,-3.6405,-3.6405,-3.6405,-3.6405,-3.6405,-3.6405,-3.6619,-1.385,-1.47,0.0,0.0,0.0,0.0,-1.6009,-1.5487,0.0,0.0,-1.7705,-1.8592,-2.0537,-2.1544,-2.2138,-2.2203,-2.1772,-2.1497,-2.1723,-2.1072,-2.075,-2.1155,-2.1669,-2.2178,-2.259,-2.3147,-2.3601,-2.3892,-2.4297,-2.5193,-2.6748,-2.794,-2.8586,-2.8586,-2.9139,-2.9428,-2.9428,-2.9666,-2.9792,-2.9792,-2.9792,-2.9792,-2.9792,-2.9792,-2.9792,-2.9792,-2.9792,-2.9792,-2.9792,-2.9792,-2.9792,-2.9792,-2.9792,-2.9792,-2.9869,-3.0241,-3.0139,-2.9895,-3.0709,-3.047,-3.0045,-3.149,-3.1726,-3.1599,-3.2729,-3.3124,-3.3124,-3.3124,-3.3124,-3.3124,-3.3124,-3.3124,-3.3357,-3.4462,-3.468,-3.5027,-3.6166,-3.6405,-3.6405,-3.6405,-3.6405,-3.6405,-3.6405,-3.6405,-3.6405,-3.6405,-3.6405,-3.6405,-3.6405,-3.6405,-3.6405,-3.6405,-3.6405,-3.6405,-3.6405,-3.6405,-3.6405,-3.6405,-3.6405,-3.6405,-3.6405,-3.6405,-3.6405,-3.6405,-3.6405,-3.6405,-3.6405,-3.6405,-3.6405,-3.6405,-3.6405,-3.6707,-1.3411,-1.3967,-1.4925,-1.5243,-1.428,0.0,-1.6199,-1.5342,-1.4627,0.0,-1.7105,-1.7596,-1.9454,-2.003,-2.0152,-2.0001,-2.024,-2.0623,-2.11,-2.0838,-2.0919,-2.1841,-2.2104,-2.26,-2.3588,-2.377,-2.3806,-2.3806,-2.466,-2.5753,-2.7132,-2.7708,-2.8009,-2.8009,-2.8512,-2.8825,-2.8888,-2.944,-2.9729,-2.9792,-2.9792,-2.9792,-2.9792,-2.9792,-2.9792,-2.9792,-2.9792,-2.9792,-2.9792,-2.9792,-2.9792,-2.9792,-2.9792,-2.9792,-2.9895,-3.0733,-3.052,-3.0037,-3.1719,-3.1206,-3.0098,-3.1941,-3.2024,-3.1587,-3.2654,-3.3074,-3.3124,-3.3124,-3.3124,-3.3124,-3.3124,-3.3124,-3.3357,-3.4462,-3.468,-3.5027,-3.6166,-3.6405,-3.6405,-3.6405,-3.6405,-3.6405,-3.6405,-3.6405,-3.6405,-3.6405,-3.6405,-3.6405,-3.6405,-3.6405,-3.6405,-3.6405,-3.6405,-3.6405,-3.6405,-3.6405,-3.6405,-3.6405,-3.6405,-3.6405,-3.6405,-3.6405,-3.6405,-3.6405,-3.6405,-3.6405,-3.6405,-3.6405,-3.6405,-3.6405,-3.6468,-3.6795,-1.3893,-1.444,-1.5036,-1.4384,-1.4445,0.0,-1.3954,-1.3707,-1.3847,0.0,-1.5314,-1.6101,-1.7188,-1.824,-1.8623,-1.76,-1.8627,-1.9592,-1.9687,-2.022,-2.0829,-2.145,-2.286,-2.4038,-2.4636,-2.5441,-2.5908,-2.5908,-2.6094,-2.633,-2.665,-2.7178,-2.7444,-2.7444,-2.7984,-2.8473,-2.8888,-2.9001,-2.934,-2.9792,-2.9792,-2.9792,-2.9792,-2.9792,-2.9792,-2.9792,-2.9792,-2.9792,-2.9792,-2.9792,-2.9792,-2.9792,-2.9792,-2.9792,-2.983,-2.9998,-2.9972,-2.9869,-3.0216,-3.0113,-2.9943,-3.0782,-3.1196,-3.1512,-3.2177,-3.2704,-3.3124,-3.3124,-3.3124,-3.3124,-3.3124,-3.3124,-3.3357,-3.4462,-3.468,-3.5027,-3.6166,-3.6405,-3.6405,-3.6405,-3.6405,-3.6405,-3.6405,-3.6405,-3.6405,-3.6405,-3.6405,-3.6405,-3.6405,-3.6405,-3.6405,-3.6405,-3.6405,-3.6405,-3.6405,-3.6405,-3.6405,-3.6405,-3.6405,-3.6405,-3.6405,-3.6405,-3.6405,-3.6405,-3.6405,-3.6405,-3.6405,-3.6405,-3.6405,-3.6417,-3.6857,-3.7312,-1.3655,-1.3956,-1.4411,-1.3842,0.0,0.0,0.0,-1.3214,-1.347,-1.4447,-1.4836,-1.5389,-1.6629,-1.7427,-1.7622,-1.6754,-1.7594,-1.8206,-1.7783,-1.9375,-2.103,-2.2208,-2.319,-2.4166,-2.5188,-2.5741,-2.6185,-2.6474,-2.6499,-2.6499,-2.6499,-2.6751,-2.6901,-2.6901,-2.7406,-2.7821,-2.8109,-2.8612,-2.9038,-2.9365,-2.9654,-2.9792,-2.9792,-2.9792,-2.9792,-2.9792,-2.9792,-2.9792,-2.9792,-2.9792,-2.9792,-2.9792,-2.9792,-2.9792,-2.9869,-3.0317,-3.0216,-2.9869,-3.0355,-3.0177,-2.988,-3.0432,-3.0972,-3.1499,-3.2051,-3.2616,-3.3124,-3.3124,-3.3124,-3.3124,-3.3124,-3.3124,-3.3357,-3.4462,-3.468,-3.5027,-3.6166,-3.6405,-3.6405,-3.6405,-3.6405,-3.6405,-3.6405,-3.6405,-3.6405,-3.6405,-3.6405,-3.6405,-3.6405,-3.6405,-3.6405,-3.6405,-3.6405,-3.6405,-3.6405,-3.6405,-3.6405,-3.6405,-3.6405,-3.6405,-3.6405,-3.6405,-3.6405,-3.6405,-3.6405,-3.6405,-3.6405,-3.6405,-3.6405,-3.6417,-3.6923,-3.7475,-1.3728,-1.3872,-1.4235,-1.3742,0.0,-1.3584,0.0,0.0,0.0,0.0,0.0,0.0,0.0,0.0,0.0,0.0,0.0,0.0,0.0,-1.8404,0.0,-2.2325,-2.2962,-2.3802,-2.5169,-2.5184,-2.5398,-2.6122,-2.6084,-2.6109,-2.6311,-2.6436,-2.6499,-2.6499,-2.6927,-2.7216,-2.7281,-2.8273,-2.8787,-2.89,-2.9515,-2.9792,-2.9792,-2.9792,-2.9792,-2.9792,-2.9792,-2.9792,-2.9792,-2.9792,-2.9792,-2.9792,-2.9792,-2.9792,-2.9895,-3.0658,-3.0457,-2.9895,-3.0658,-3.0419,-2.9867,-3.0319,-3.0884,-3.1499,-3.2051,-3.2616,-3.3124,-3.3124,-3.3124,-3.3124,-3.3124,-3.3124,-3.3357,-3.4462,-3.468,-3.5027,-3.6166,-3.6405,-3.6405,-3.6405,-3.6405,-3.6405,-3.6405,-3.6405,-3.6405,-3.6405,-3.6405,-3.6405,-3.6405,-3.6405,-3.6405,-3.6405,-3.6405,-3.6405,-3.6405,-3.6405,-3.6405,-3.6405,-3.6405,-3.6405,-3.6405,-3.6405,-3.6405,-3.6405,-3.6405,-3.6405,-3.6405,-3.6518,-3.6568,-3.6581,-3.7086,-3.7638,0.0,0.0,0.0,0.0,-1.5157,0.0,0.0,0.0,-1.3809,-1.3278,0.0,0.0,0.0,0.0,0.0,0.0,0.0,0.0,-1.6243,-1.7284,-1.8376,-1.9629,-2.1759,-2.3386,-2.4117,-2.3684,-2.3822,-2.4888,-2.4556,-2.4695,-2.5636,-2.6223,-2.6499,-2.6499,-2.6549,-2.6826,-2.7316,-2.7896,-2.8448,-2.89,-2.9515,-2.9792,-2.9792,-2.9792,-2.9792,-2.9792,-2.9792,-2.9792,-2.9792,-2.9792,-2.9792,-2.9792,-2.9792,-2.9792,-2.9792,-2.9934,-2.9895,-2.983,-2.9934,-2.9895,-2.9804,-2.9867,-3.057,-3.1499,-3.2051,-3.2616,-3.3124,-3.3124,-3.3124,-3.3124,-3.3124,-3.3124,-3.3357,-3.4462,-3.468,-3.5027,-3.6166,-3.6405,-3.6405,-3.6405,-3.6405,-3.6405,-3.6405,-3.6405,-3.6405,-3.6405,-3.6405,-3.6405,-3.6405,-3.6405,-3.6405,-3.6405,-3.6405,-3.6405,-3.6405,-3.6405,-3.6405,-3.6405,-3.6405,-3.6405,-3.6405,-3.6405,-3.6405,-3.6405,-3.6405,-3.6405,-3.6405,-3.6908,-3.7098,-3.7098,-3.7651,-3.8228,0.0,0.0,0.0,0.0,0.0,0.0,-1.3603,0.0,-1.3379,0.0,0.0,0.0,0.0,0.0,0.0,0.0,-1.3691,0.0,0.0,0.0,-1.747,0.0,0.0,0.0,-2.2899,-2.3058,-2.3572,-2.47,-2.3973,-2.4117,-2.5523,-2.5824,-2.6147,-2.6487,-2.6499,-2.6612,-2.6839,-2.767,-2.8222,-2.8461,-2.9365,-2.9792,-2.9792,-2.9792,-2.9792,-2.9792,-2.9792,-2.9792,-2.9792,-2.9792,-2.9792,-2.9792,-2.9792,-2.9792,-2.9792,-2.9792,-2.9792,-2.9792,-2.9792,-2.9792,-2.9892,-3.052,-3.1022,-3.1562,-3.2441,-3.288,-3.3124,-3.3124,-3.3124,-3.3124,-3.3124,-3.3124,-3.3357,-3.4462,-3.468,-3.5027,-3.6166,-3.6405,-3.6405,-3.6405,-3.6405,-3.6405,-3.6405,-3.6405,-3.6405,-3.6405,-3.6405,-3.6405,-3.6405,-3.6405,-3.6405,-3.6405,-3.6405,-3.6405,-3.6405,-3.6405,-3.6405,-3.6405,-3.6405,-3.6556,-3.687,-3.6835,-3.6835,-3.6835,-3.7149,-3.7161,-3.6883,-3.7387,-3.7826,-3.8165,-3.8404,-3.8642,-1.6297,0.0,0.0,0.0,0.0,0.0,0.0,0.0,0.0,0.0,0.0,0.0,0.0,0.0,0.0,0.0,0.0,-1.4069,0.0,-1.5392,0.0,0.0,0.0,0.0,0.0,-2.1691,-2.228,-2.359,-2.2744,-2.2982,-2.482,-2.5209,-2.5636,-2.6235,-2.6411,-2.6499,-2.6499,-2.7557,-2.8109,-2.8122,-2.9252,-2.9792,-2.9792,-2.9792,-2.9792,-2.9792,-2.9792,-2.9792,-2.9792,-2.9792,-2.9792,-2.9792,-2.9792,-2.9792,-2.9792,-2.9792,-2.9792,-2.9792,-2.9792,-2.9792,-2.9942,-3.0871,-3.1273,-3.1574,-3.2541,-3.2955,-3.3124,-3.3124,-3.3124,-3.3124,-3.3124,-3.3194,-3.3545,-3.45,-3.4793,-3.5203,-3.6204,-3.6405,-3.6405,-3.6405,-3.6405,-3.6405,-3.6405,-3.6405,-3.6405,-3.6405,-3.6405,-3.6405,-3.6405,-3.6405,-3.6405,-3.6405,-3.6405,-3.6405,-3.6405,-3.6405,-3.6405,-3.6405,-3.6405,-3.6656,-3.7161,-3.7186,-3.7262,-3.7412,-3.7801,-3.7814,-3.7412,-3.7977,-3.8454,-3.8919,-3.8919,-3.9007,0.0,0.0,0.0,-1.6025,0.0,0.0,0.0,0.0,-1.4492,0.0,0.0,0.0,0.0,0.0,-1.448,-1.3643,0.0,0.0,0.0,0.0,0.0,0.0,0.0,0.0,0.0,-1.8957,-1.9045,-2.0704,-2.025,-2.0851,-2.3058,-2.4224,-2.5084,-2.5598,-2.6197,-2.6499,-2.6499,-2.7557,-2.8109,-2.8122,-2.9252,-2.9792,-2.9792,-2.9792,-2.9792,-2.9792,-2.9792,-2.9792,-2.9792,-2.9792,-2.9792,-2.9792,-2.9792,-2.9792,-2.9792,-2.9792,-2.9792,-2.9792,-2.9792,-2.9792,-2.988,-3.0457,-3.0984,-3.1499,-3.2064,-3.2641,-3.3124,-3.3124,-3.3124,-3.3124,-3.3124,-3.347,-3.401,-3.4587,-3.5094,-3.5621,-3.6292,-3.6405,-3.6405,-3.6405,-3.6405,-3.6405,-3.6405,-3.6405,-3.6405,-3.6405,-3.6405,-3.6405,-3.6405,-3.6405,-3.6405,-3.6405,-3.6405,-3.6405,-3.6405,-3.6405,-3.6405,-3.6405,-3.6405,-3.6656,-3.7161,-3.7186,-3.7437,-3.7965,-3.8002,-3.8002,-3.799,-3.8567,-3.8906,-3.8919,-3.8919,-3.9157,0.0,0.0,-1.9219,-1.7217,0.0,0.0,0.0,0.0,0.0,0.0,0.0,0.0,0.0,0.0,-1.501,-1.4443,-1.4789,0.0,0.0,0.0,0.0,0.0,0.0,0.0,0.0,0.0,0.0,-2.1091,-2.0717,-2.1343,-2.359,-2.4418,-2.5059,-2.5573,-2.6197,-2.6499,-2.6499,-2.7557,-2.8109,-2.8122,-2.9252,-2.9792,-2.9792,-2.9792,-2.9792,-2.9792,-2.9792,-2.9792,-2.9792,-2.9792,-2.9792,-2.9792,-2.9792,-2.9792,-2.9792,-2.9792,-2.9792,-2.9792,-2.9792,-2.9792,-2.9942,-3.0834,-3.1248,-3.1562,-3.2503,-3.2918,-3.3124,-3.3124,-3.3124,-3.3124,-3.3124,-3.3483,-3.4035,-3.4587,-3.5094,-3.5658,-3.6292,-3.6405,-3.6405,-3.6405,-3.6405,-3.6405,-3.6405,-3.6405,-3.6405,-3.6405,-3.6405,-3.6405,-3.6405,-3.6405,-3.6405,-3.6405,-3.6405,-3.6405,-3.6405,-3.6405,-3.6405,-3.6405,-3.6757,-3.7149,-3.7701,-3.809,-3.8391,-3.858,-3.8931,-3.8944,-3.858,-3.9145,-3.8921,-3.7976,-3.7976,-3.8073,-1.9326,-1.959,0.0,-1.7988,-1.7393,0.0,-1.4952,0.0,-1.5723,0.0,0.0,0.0,0.0,0.0,0.0,-1.541,-1.5531,-1.5662,0.0,-1.6183,0.0,0.0,0.0,0.0,0.0,0.0,-1.8606,-2.0476,-1.995,-2.0578,0.0,-2.3816,-2.4525,-2.5297,-2.6097,-2.6499,-2.6499,-2.7557,-2.8109,-2.8122,-2.9252,-2.9792,-2.9792,-2.9792,-2.9792,-2.9792,-2.9792,-2.9792,-2.9792,-2.9792,-2.9792,-2.9792,-2.9792,-2.9792,-2.9792,-2.9792,-2.9792,-2.9792,-2.9792,-2.9917,-3.0231,-3.1097,-3.1524,-3.1851,-3.2792,-3.3124,-3.3124,-3.3124,-3.3124,-3.3124,-3.3124,-3.3633,-3.4274,-3.4638,-3.5245,-3.5931,-3.6329,-3.6405,-3.6405,-3.6405,-3.6709,-3.6883,-3.6452,-3.6756,-3.6896,-3.6452,-3.6405,-3.6405,-3.6405,-3.6405,-3.6405,-3.6405,-3.6405,-3.6405,-3.6405,-3.6405,-3.6493,-3.6681,-3.6985,-3.7525,-3.8278,-3.8668,-3.9007,-3.9157,-3.9509,-3.929,-3.8391,-3.8736,-3.8137,-3.6703,-3.5593,-3.5067]}]]